<?xml version="1.0" encoding="utf-8"?>
<gpx xmlns:xsi="http://www.w3.org/2001/XMLSchema-instance" xmlns:xsd="http://www.w3.org/2001/XMLSchema" version="1.1" creator="Shapelink.com" xmlns="http://www.topografix.com/GPX/1/1" xmlns:gpxtpx="http://www.garmin.com/xmlschemas/TrackPointExtension/v1">
  <metadata>
    <name>Löpning 8.79 km, 2018-03-28</name>
    <desc></desc>
    <author><name>Bengt-Åke Forslund</name></author> 
    <time>2018-03-28T17:51:50Z</time>
  </metadata>
  <trk>
    <name>Löpning 8.79 km, 2018-03-28</name>
    <trkseg>
      <trkpt lat="62.63583651948" lon="17.967738648907">
        <ele>61.4</ele>
        <time>2018-03-28T17:51:50Z</time>
      </trkpt>
      <trkpt lat="62.635905670155" lon="17.968106530498">
        <ele>61</ele>
        <time>2018-03-28T17:51:59Z</time>
      </trkpt>
      <trkpt lat="62.635921344308" lon="17.968163024504">
        <ele>61</ele>
        <time>2018-03-28T17:52:00Z</time>
      </trkpt>
      <trkpt lat="62.635932492235" lon="17.96822622403">
        <ele>61</ele>
        <time>2018-03-28T17:52:01Z</time>
      </trkpt>
      <trkpt lat="62.63595051332" lon="17.968279532914">
        <ele>61.2</ele>
        <time>2018-03-28T17:52:02Z</time>
      </trkpt>
      <trkpt lat="62.635963337627" lon="17.968315575084">
        <ele>61.2</ele>
        <time>2018-03-28T17:52:03Z</time>
      </trkpt>
      <trkpt lat="62.635985130567" lon="17.968372655823">
        <ele>61.4</ele>
        <time>2018-03-28T17:52:04Z</time>
      </trkpt>
      <trkpt lat="62.636012958475" lon="17.968420516472">
        <ele>61.6</ele>
        <time>2018-03-28T17:52:05Z</time>
      </trkpt>
      <trkpt lat="62.636036930709" lon="17.968452367692">
        <ele>61.8</ele>
        <time>2018-03-28T17:52:06Z</time>
      </trkpt>
      <trkpt lat="62.636061908771" lon="17.968487068758">
        <ele>61.8</ele>
        <time>2018-03-28T17:52:07Z</time>
      </trkpt>
      <trkpt lat="62.636086132462" lon="17.968510202802">
        <ele>62</ele>
        <time>2018-03-28T17:52:08Z</time>
      </trkpt>
      <trkpt lat="62.636112451628" lon="17.968522188919">
        <ele>62</ele>
        <time>2018-03-28T17:52:09Z</time>
      </trkpt>
      <trkpt lat="62.636140279536" lon="17.968538785081">
        <ele>62.2</ele>
        <time>2018-03-28T17:52:10Z</time>
      </trkpt>
      <trkpt lat="62.636172214575" lon="17.968550938836">
        <ele>62.4</ele>
        <time>2018-03-28T17:52:11Z</time>
      </trkpt>
      <trkpt lat="62.636209346392" lon="17.968575581622">
        <ele>62.6</ele>
        <time>2018-03-28T17:52:12Z</time>
      </trkpt>
      <trkpt lat="62.636245472381" lon="17.968586142816">
        <ele>62.6</ele>
        <time>2018-03-28T17:52:13Z</time>
      </trkpt>
      <trkpt lat="62.636283777664" lon="17.968617239665">
        <ele>62.4</ele>
        <time>2018-03-28T17:52:14Z</time>
      </trkpt>
      <trkpt lat="62.636316969988" lon="17.968663507753">
        <ele>62.4</ele>
        <time>2018-03-28T17:52:15Z</time>
      </trkpt>
      <trkpt lat="62.636342367145" lon="17.968699717561">
        <ele>62.2</ele>
        <time>2018-03-28T17:52:16Z</time>
      </trkpt>
      <trkpt lat="62.636369692139" lon="17.968757385033">
        <ele>62</ele>
        <time>2018-03-28T17:52:17Z</time>
      </trkpt>
      <trkpt lat="62.63639475402" lon="17.968805161863">
        <ele>61.8</ele>
        <time>2018-03-28T17:52:18Z</time>
      </trkpt>
      <trkpt lat="62.636415792589" lon="17.968858051652">
        <ele>62</ele>
        <time>2018-03-28T17:52:19Z</time>
      </trkpt>
      <trkpt lat="62.636441608841" lon="17.968916305857">
        <ele>62</ele>
        <time>2018-03-28T17:52:20Z</time>
      </trkpt>
      <trkpt lat="62.636461306306" lon="17.968963663592">
        <ele>62</ele>
        <time>2018-03-28T17:52:21Z</time>
      </trkpt>
      <trkpt lat="62.636482931608" lon="17.969020325236">
        <ele>62.2</ele>
        <time>2018-03-28T17:52:22Z</time>
      </trkpt>
      <trkpt lat="62.636506903842" lon="17.969077405975">
        <ele>62</ele>
        <time>2018-03-28T17:52:23Z</time>
      </trkpt>
      <trkpt lat="62.636527858592" lon="17.969131804506">
        <ele>62</ele>
        <time>2018-03-28T17:52:24Z</time>
      </trkpt>
      <trkpt lat="62.636547556057" lon="17.969199614077">
        <ele>62</ele>
        <time>2018-03-28T17:52:25Z</time>
      </trkpt>
      <trkpt lat="62.63656658297" lon="17.969269854399">
        <ele>62</ele>
        <time>2018-03-28T17:52:26Z</time>
      </trkpt>
      <trkpt lat="62.63658837591" lon="17.969317463591">
        <ele>62</ele>
        <time>2018-03-28T17:52:27Z</time>
      </trkpt>
      <trkpt lat="62.636607319004" lon="17.969383429144">
        <ele>62.2</ele>
        <time>2018-03-28T17:52:28Z</time>
      </trkpt>
      <trkpt lat="62.636626765012" lon="17.969440342245">
        <ele>62.4</ele>
        <time>2018-03-28T17:52:29Z</time>
      </trkpt>
      <trkpt lat="62.636644869916" lon="17.969502955038">
        <ele>62.4</ele>
        <time>2018-03-28T17:52:30Z</time>
      </trkpt>
      <trkpt lat="62.636663896829" lon="17.969552408248">
        <ele>62.6</ele>
        <time>2018-03-28T17:52:31Z</time>
      </trkpt>
      <trkpt lat="62.636675380032" lon="17.96960588477">
        <ele>62.6</ele>
        <time>2018-03-28T17:52:32Z</time>
      </trkpt>
      <trkpt lat="62.636688288158" lon="17.969658104007">
        <ele>62.6</ele>
        <time>2018-03-28T17:52:33Z</time>
      </trkpt>
      <trkpt lat="62.636703627035" lon="17.969707138122">
        <ele>62.6</ele>
        <time>2018-03-28T17:52:34Z</time>
      </trkpt>
      <trkpt lat="62.636722402491" lon="17.969769583277">
        <ele>62.4</ele>
        <time>2018-03-28T17:52:35Z</time>
      </trkpt>
      <trkpt lat="62.636743189603" lon="17.969823478894">
        <ele>62.6</ele>
        <time>2018-03-28T17:52:36Z</time>
      </trkpt>
      <trkpt lat="62.636758779937" lon="17.969868741154">
        <ele>62.6</ele>
        <time>2018-03-28T17:52:37Z</time>
      </trkpt>
      <trkpt lat="62.636782081619" lon="17.969919703106">
        <ele>62.6</ele>
        <time>2018-03-28T17:52:38Z</time>
      </trkpt>
      <trkpt lat="62.636806137672" lon="17.969959181855">
        <ele>62.8</ele>
        <time>2018-03-28T17:52:39Z</time>
      </trkpt>
      <trkpt lat="62.636825416042" lon="17.969994050559">
        <ele>63</ele>
        <time>2018-03-28T17:52:40Z</time>
      </trkpt>
      <trkpt lat="62.636850142647" lon="17.970035792421">
        <ele>62.8</ele>
        <time>2018-03-28T17:52:41Z</time>
      </trkpt>
      <trkpt lat="62.63686916956" lon="17.970070828763">
        <ele>63</ele>
        <time>2018-03-28T17:52:42Z</time>
      </trkpt>
      <trkpt lat="62.636893812346" lon="17.970101590336">
        <ele>63</ele>
        <time>2018-03-28T17:52:43Z</time>
      </trkpt>
      <trkpt lat="62.636919880055" lon="17.970127909502">
        <ele>63</ele>
        <time>2018-03-28T17:52:44Z</time>
      </trkpt>
      <trkpt lat="62.63695298856" lon="17.970160012179">
        <ele>63.2</ele>
        <time>2018-03-28T17:52:45Z</time>
      </trkpt>
      <trkpt lat="62.636983498676" lon="17.970171579201">
        <ele>63.2</ele>
        <time>2018-03-28T17:52:46Z</time>
      </trkpt>
      <trkpt lat="62.6370250729" lon="17.970181386024">
        <ele>63.2</ele>
        <time>2018-03-28T17:52:47Z</time>
      </trkpt>
      <trkpt lat="62.637063210545" lon="17.970179122911">
        <ele>63</ele>
        <time>2018-03-28T17:52:48Z</time>
      </trkpt>
      <trkpt lat="62.637111741746" lon="17.970161185645">
        <ele>62.8</ele>
        <time>2018-03-28T17:52:49Z</time>
      </trkpt>
      <trkpt lat="62.63715666873" lon="17.970137883963">
        <ele>62.6</ele>
        <time>2018-03-28T17:52:50Z</time>
      </trkpt>
      <trkpt lat="62.637203104456" lon="17.970111480978">
        <ele>62.2</ele>
        <time>2018-03-28T17:52:51Z</time>
      </trkpt>
      <trkpt lat="62.637249204906" lon="17.970088933667">
        <ele>62</ele>
        <time>2018-03-28T17:52:52Z</time>
      </trkpt>
      <trkpt lat="62.637300502134" lon="17.970063285053">
        <ele>61.8</ele>
        <time>2018-03-28T17:52:53Z</time>
      </trkpt>
      <trkpt lat="62.637354397751" lon="17.970039312819">
        <ele>61.6</ele>
        <time>2018-03-28T17:52:54Z</time>
      </trkpt>
      <trkpt lat="62.637405443522" lon="17.970022381381">
        <ele>61.2</ele>
        <time>2018-03-28T17:52:55Z</time>
      </trkpt>
      <trkpt lat="62.637457495121" lon="17.970012071644">
        <ele>61</ele>
        <time>2018-03-28T17:52:56Z</time>
      </trkpt>
      <trkpt lat="62.637508457073" lon="17.970009976169">
        <ele>60.8</ele>
        <time>2018-03-28T17:52:57Z</time>
      </trkpt>
      <trkpt lat="62.637549444564" lon="17.970039815733">
        <ele>60.4</ele>
        <time>2018-03-28T17:52:58Z</time>
      </trkpt>
      <trkpt lat="62.637590515874" lon="17.970100584508">
        <ele>60.2</ele>
        <time>2018-03-28T17:52:59Z</time>
      </trkpt>
      <trkpt lat="62.637619768705" lon="17.970166298604">
        <ele>60</ele>
        <time>2018-03-28T17:53:00Z</time>
      </trkpt>
      <trkpt lat="62.637653128667" lon="17.97022111623">
        <ele>60</ele>
        <time>2018-03-28T17:53:01Z</time>
      </trkpt>
      <trkpt lat="62.637685315163" lon="17.970287668516">
        <ele>60</ele>
        <time>2018-03-28T17:53:02Z</time>
      </trkpt>
      <trkpt lat="62.637710041768" lon="17.970354639897">
        <ele>60</ele>
        <time>2018-03-28T17:53:03Z</time>
      </trkpt>
      <trkpt lat="62.6377375344" lon="17.970432591567">
        <ele>60</ele>
        <time>2018-03-28T17:53:04Z</time>
      </trkpt>
      <trkpt lat="62.637758908245" lon="17.97052035006">
        <ele>60</ele>
        <time>2018-03-28T17:53:05Z</time>
      </trkpt>
      <trkpt lat="62.637773828027" lon="17.970591680029">
        <ele>60</ele>
        <time>2018-03-28T17:53:06Z</time>
      </trkpt>
      <trkpt lat="62.637784137764" lon="17.970654209003">
        <ele>60</ele>
        <time>2018-03-28T17:53:07Z</time>
      </trkpt>
      <trkpt lat="62.63779369313" lon="17.970719084909">
        <ele>60</ele>
        <time>2018-03-28T17:53:08Z</time>
      </trkpt>
      <trkpt lat="62.637804924876" lon="17.970774573087">
        <ele>59.8</ele>
        <time>2018-03-28T17:53:09Z</time>
      </trkpt>
      <trkpt lat="62.637816072803" lon="17.970820086804">
        <ele>60</ele>
        <time>2018-03-28T17:53:10Z</time>
      </trkpt>
      <trkpt lat="62.637824789979" lon="17.970894853352">
        <ele>60</ele>
        <time>2018-03-28T17:53:11Z</time>
      </trkpt>
      <trkpt lat="62.637841386141" lon="17.970948078417">
        <ele>60.2</ele>
        <time>2018-03-28T17:53:12Z</time>
      </trkpt>
      <trkpt lat="62.637850606231" lon="17.97100482388">
        <ele>60.4</ele>
        <time>2018-03-28T17:53:13Z</time>
      </trkpt>
      <trkpt lat="62.637863011443" lon="17.971067771949">
        <ele>60.6</ele>
        <time>2018-03-28T17:53:14Z</time>
      </trkpt>
      <trkpt lat="62.637879859062" lon="17.97112300867">
        <ele>60.6</ele>
        <time>2018-03-28T17:53:15Z</time>
      </trkpt>
      <trkpt lat="62.637892012817" lon="17.971188555128">
        <ele>60.6</ele>
        <time>2018-03-28T17:53:16Z</time>
      </trkpt>
      <trkpt lat="62.637906597323" lon="17.97125292812">
        <ele>60.6</ele>
        <time>2018-03-28T17:53:17Z</time>
      </trkpt>
      <trkpt lat="62.63791690706" lon="17.971294418525">
        <ele>60.8</ele>
        <time>2018-03-28T17:53:18Z</time>
      </trkpt>
      <trkpt lat="62.637926881521" lon="17.971360300259">
        <ele>60.8</ele>
        <time>2018-03-28T17:53:19Z</time>
      </trkpt>
      <trkpt lat="62.637941633665" lon="17.971411513668">
        <ele>61</ele>
        <time>2018-03-28T17:53:20Z</time>
      </trkpt>
      <trkpt lat="62.637947584814" lon="17.971458955222">
        <ele>61</ele>
        <time>2018-03-28T17:53:21Z</time>
      </trkpt>
      <trkpt lat="62.637957726913" lon="17.971514024305">
        <ele>61</ele>
        <time>2018-03-28T17:53:22Z</time>
      </trkpt>
      <trkpt lat="62.637969629211" lon="17.971564064248">
        <ele>61.2</ele>
        <time>2018-03-28T17:53:23Z</time>
      </trkpt>
      <trkpt lat="62.637977592016" lon="17.971636902959">
        <ele>61.2</ele>
        <time>2018-03-28T17:53:24Z</time>
      </trkpt>
      <trkpt lat="62.637986644468" lon="17.97170135977">
        <ele>61.2</ele>
        <time>2018-03-28T17:53:25Z</time>
      </trkpt>
      <trkpt lat="62.637987985572" lon="17.971763888744">
        <ele>61.4</ele>
        <time>2018-03-28T17:53:26Z</time>
      </trkpt>
      <trkpt lat="62.637985387183" lon="17.971841086043">
        <ele>61.4</ele>
        <time>2018-03-28T17:53:27Z</time>
      </trkpt>
      <trkpt lat="62.637986225373" lon="17.971893137642">
        <ele>61.6</ele>
        <time>2018-03-28T17:53:28Z</time>
      </trkpt>
      <trkpt lat="62.637986644468" lon="17.97196371324">
        <ele>61.4</ele>
        <time>2018-03-28T17:53:29Z</time>
      </trkpt>
      <trkpt lat="62.637986560649" lon="17.972025236386">
        <ele>61.4</ele>
        <time>2018-03-28T17:53:30Z</time>
      </trkpt>
      <trkpt lat="62.637989075219" lon="17.972082652401">
        <ele>61.6</ele>
        <time>2018-03-28T17:53:31Z</time>
      </trkpt>
      <trkpt lat="62.637993936721" lon="17.972149875239">
        <ele>61.6</ele>
        <time>2018-03-28T17:53:32Z</time>
      </trkpt>
      <trkpt lat="62.637994523454" lon="17.972206620702">
        <ele>61.6</ele>
        <time>2018-03-28T17:53:33Z</time>
      </trkpt>
      <trkpt lat="62.638000977517" lon="17.972245931813">
        <ele>61.8</ele>
        <time>2018-03-28T17:53:34Z</time>
      </trkpt>
      <trkpt lat="62.638006006657" lon="17.972314328117">
        <ele>61.6</ele>
        <time>2018-03-28T17:53:35Z</time>
      </trkpt>
      <trkpt lat="62.638013718005" lon="17.972363446051">
        <ele>61.8</ele>
        <time>2018-03-28T17:53:36Z</time>
      </trkpt>
      <trkpt lat="62.638016735489" lon="17.972421616437">
        <ele>61.8</ele>
        <time>2018-03-28T17:53:37Z</time>
      </trkpt>
      <trkpt lat="62.638016064937" lon="17.972482804307">
        <ele>62</ele>
        <time>2018-03-28T17:53:38Z</time>
      </trkpt>
      <trkpt lat="62.638021848448" lon="17.972543321625">
        <ele>62</ele>
        <time>2018-03-28T17:53:39Z</time>
      </trkpt>
      <trkpt lat="62.638024446837" lon="17.972602078744">
        <ele>62.2</ele>
        <time>2018-03-28T17:53:40Z</time>
      </trkpt>
      <trkpt lat="62.638029056882" lon="17.972668379573">
        <ele>62.4</ele>
        <time>2018-03-28T17:53:41Z</time>
      </trkpt>
      <trkpt lat="62.638027883416" lon="17.972729064529">
        <ele>62.6</ele>
        <time>2018-03-28T17:53:42Z</time>
      </trkpt>
      <trkpt lat="62.638025536484" lon="17.972788911295">
        <ele>62.8</ele>
        <time>2018-03-28T17:53:43Z</time>
      </trkpt>
      <trkpt lat="62.638025117389" lon="17.972844064197">
        <ele>63</ele>
        <time>2018-03-28T17:53:44Z</time>
      </trkpt>
      <trkpt lat="62.638022016086" lon="17.972907682818">
        <ele>63</ele>
        <time>2018-03-28T17:53:45Z</time>
      </trkpt>
      <trkpt lat="62.63802335719" lon="17.972952023069">
        <ele>63.2</ele>
        <time>2018-03-28T17:53:46Z</time>
      </trkpt>
      <trkpt lat="62.638021848448" lon="17.973028801273">
        <ele>63.2</ele>
        <time>2018-03-28T17:53:47Z</time>
      </trkpt>
      <trkpt lat="62.63802419538" lon="17.97308688784">
        <ele>63.2</ele>
        <time>2018-03-28T17:53:48Z</time>
      </trkpt>
      <trkpt lat="62.638032074366" lon="17.973156709067">
        <ele>63.2</ele>
        <time>2018-03-28T17:53:49Z</time>
      </trkpt>
      <trkpt lat="62.638024027742" lon="17.973251340718">
        <ele>63.4</ele>
        <time>2018-03-28T17:53:51Z</time>
      </trkpt>
      <trkpt lat="62.638020591163" lon="17.97331487552">
        <ele>63.4</ele>
        <time>2018-03-28T17:53:52Z</time>
      </trkpt>
      <trkpt lat="62.638014723833" lon="17.973373045906">
        <ele>63.8</ele>
        <time>2018-03-28T17:53:53Z</time>
      </trkpt>
      <trkpt lat="62.638012041625" lon="17.973429036998">
        <ele>64</ele>
        <time>2018-03-28T17:53:54Z</time>
      </trkpt>
      <trkpt lat="62.638008185951" lon="17.973479076941">
        <ele>64</ele>
        <time>2018-03-28T17:53:55Z</time>
      </trkpt>
      <trkpt lat="62.638003492087" lon="17.973545126313">
        <ele>64.4</ele>
        <time>2018-03-28T17:53:56Z</time>
      </trkpt>
      <trkpt lat="62.638002150983" lon="17.973606230364">
        <ele>64.6</ele>
        <time>2018-03-28T17:53:57Z</time>
      </trkpt>
      <trkpt lat="62.638001396612" lon="17.973653923375">
        <ele>64.6</ele>
        <time>2018-03-28T17:53:58Z</time>
      </trkpt>
      <trkpt lat="62.638003575906" lon="17.97372558862">
        <ele>64.4</ele>
        <time>2018-03-28T17:53:59Z</time>
      </trkpt>
      <trkpt lat="62.638010365245" lon="17.973776299115">
        <ele>64.4</ele>
        <time>2018-03-28T17:54:00Z</time>
      </trkpt>
      <trkpt lat="62.638010365245" lon="17.973851736215">
        <ele>64.4</ele>
        <time>2018-03-28T17:54:01Z</time>
      </trkpt>
      <trkpt lat="62.638003408268" lon="17.97390915223">
        <ele>64.6</ele>
        <time>2018-03-28T17:54:02Z</time>
      </trkpt>
      <trkpt lat="62.638007180123" lon="17.97396698734">
        <ele>64.6</ele>
        <time>2018-03-28T17:54:03Z</time>
      </trkpt>
      <trkpt lat="62.638011957806" lon="17.974036389472">
        <ele>64.4</ele>
        <time>2018-03-28T17:54:04Z</time>
      </trkpt>
      <trkpt lat="62.638019752973" lon="17.974094559858">
        <ele>64.4</ele>
        <time>2018-03-28T17:54:05Z</time>
      </trkpt>
      <trkpt lat="62.638020926439" lon="17.974169996958">
        <ele>64.4</ele>
        <time>2018-03-28T17:54:06Z</time>
      </trkpt>
      <trkpt lat="62.638023608647" lon="17.974234789045">
        <ele>64.4</ele>
        <time>2018-03-28T17:54:07Z</time>
      </trkpt>
      <trkpt lat="62.638024698294" lon="17.974304274996">
        <ele>64.6</ele>
        <time>2018-03-28T17:54:08Z</time>
      </trkpt>
      <trkpt lat="62.638024614475" lon="17.974380634105">
        <ele>64.6</ele>
        <time>2018-03-28T17:54:09Z</time>
      </trkpt>
      <trkpt lat="62.638024698294" lon="17.974432434247">
        <ele>64.6</ele>
        <time>2018-03-28T17:54:10Z</time>
      </trkpt>
      <trkpt lat="62.63801665167" lon="17.974518264903">
        <ele>64.4</ele>
        <time>2018-03-28T17:54:11Z</time>
      </trkpt>
      <trkpt lat="62.638016400213" lon="17.974582973171">
        <ele>64.4</ele>
        <time>2018-03-28T17:54:12Z</time>
      </trkpt>
      <trkpt lat="62.638003156811" lon="17.974651956208">
        <ele>64.4</ele>
        <time>2018-03-28T17:54:13Z</time>
      </trkpt>
      <trkpt lat="62.637987734115" lon="17.974727058032">
        <ele>64.4</ele>
        <time>2018-03-28T17:54:14Z</time>
      </trkpt>
      <trkpt lat="62.637977675835" lon="17.974772990844">
        <ele>64.6</ele>
        <time>2018-03-28T17:54:15Z</time>
      </trkpt>
      <trkpt lat="62.637958229827" lon="17.97483032304">
        <ele>64.6</ele>
        <time>2018-03-28T17:54:16Z</time>
      </trkpt>
      <trkpt lat="62.637952781592" lon="17.974881620268">
        <ele>64.6</ele>
        <time>2018-03-28T17:54:17Z</time>
      </trkpt>
      <trkpt lat="62.637938280905" lon="17.97492922946">
        <ele>64.6</ele>
        <time>2018-03-28T17:54:18Z</time>
      </trkpt>
      <trkpt lat="62.637926546245" lon="17.974966528915">
        <ele>64.8</ele>
        <time>2018-03-28T17:54:19Z</time>
      </trkpt>
      <trkpt lat="62.637912297015" lon="17.975006426759">
        <ele>65</ele>
        <time>2018-03-28T17:54:20Z</time>
      </trkpt>
      <trkpt lat="62.637890504075" lon="17.975039367626">
        <ele>65</ele>
        <time>2018-03-28T17:54:21Z</time>
      </trkpt>
      <trkpt lat="62.637883463279" lon="17.975075158339">
        <ele>65.2</ele>
        <time>2018-03-28T17:54:22Z</time>
      </trkpt>
      <trkpt lat="62.637865609832" lon="17.975104997903">
        <ele>65.4</ele>
        <time>2018-03-28T17:54:23Z</time>
      </trkpt>
      <trkpt lat="62.637851947335" lon="17.975145817756">
        <ele>65.6</ele>
        <time>2018-03-28T17:54:24Z</time>
      </trkpt>
      <trkpt lat="62.637840464132" lon="17.975175992596">
        <ele>65.6</ele>
        <time>2018-03-28T17:54:25Z</time>
      </trkpt>
      <trkpt lat="62.63781800064" lon="17.975209017282">
        <ele>65.8</ele>
        <time>2018-03-28T17:54:26Z</time>
      </trkpt>
      <trkpt lat="62.637807607084" lon="17.975248328393">
        <ele>66</ele>
        <time>2018-03-28T17:54:27Z</time>
      </trkpt>
      <trkpt lat="62.637791010922" lon="17.97527707831">
        <ele>66</ele>
        <time>2018-03-28T17:54:28Z</time>
      </trkpt>
      <trkpt lat="62.637770139991" lon="17.975322172932">
        <ele>66.2</ele>
        <time>2018-03-28T17:54:29Z</time>
      </trkpt>
      <trkpt lat="62.637757902417" lon="17.975348911193">
        <ele>66.2</ele>
        <time>2018-03-28T17:54:30Z</time>
      </trkpt>
      <trkpt lat="62.637736612391" lon="17.975369698305">
        <ele>66.4</ele>
        <time>2018-03-28T17:54:31Z</time>
      </trkpt>
      <trkpt lat="62.637719178039" lon="17.975397107118">
        <ele>66.6</ele>
        <time>2018-03-28T17:54:32Z</time>
      </trkpt>
      <trkpt lat="62.637710041768" lon="17.975415044384">
        <ele>66.8</ele>
        <time>2018-03-28T17:54:33Z</time>
      </trkpt>
      <trkpt lat="62.637692439778" lon="17.97543801079">
        <ele>66.8</ele>
        <time>2018-03-28T17:54:34Z</time>
      </trkpt>
      <trkpt lat="62.637673077589" lon="17.9754539364">
        <ele>67</ele>
        <time>2018-03-28T17:54:35Z</time>
      </trkpt>
      <trkpt lat="62.637659079816" lon="17.975476483711">
        <ele>67.2</ele>
        <time>2018-03-28T17:54:36Z</time>
      </trkpt>
      <trkpt lat="62.637642986568" lon="17.975496181176">
        <ele>67.4</ele>
        <time>2018-03-28T17:54:37Z</time>
      </trkpt>
      <trkpt lat="62.637619433429" lon="17.975511855329">
        <ele>67.6</ele>
        <time>2018-03-28T17:54:38Z</time>
      </trkpt>
      <trkpt lat="62.637605435656" lon="17.975534737916">
        <ele>68</ele>
        <time>2018-03-28T17:54:39Z</time>
      </trkpt>
      <trkpt lat="62.637580206137" lon="17.975543874187">
        <ele>68.2</ele>
        <time>2018-03-28T17:54:40Z</time>
      </trkpt>
      <trkpt lat="62.637555730989" lon="17.975569690439">
        <ele>68.4</ele>
        <time>2018-03-28T17:54:41Z</time>
      </trkpt>
      <trkpt lat="62.637534524782" lon="17.975582850022">
        <ele>68.6</ele>
        <time>2018-03-28T17:54:42Z</time>
      </trkpt>
      <trkpt lat="62.637510552548" lon="17.975589806999">
        <ele>68.6</ele>
        <time>2018-03-28T17:54:43Z</time>
      </trkpt>
      <trkpt lat="62.637493872567" lon="17.975610007378">
        <ele>68.8</ele>
        <time>2018-03-28T17:54:44Z</time>
      </trkpt>
      <trkpt lat="62.637470654704" lon="17.975610761749">
        <ele>68.8</ele>
        <time>2018-03-28T17:54:45Z</time>
      </trkpt>
      <trkpt lat="62.637453555628" lon="17.975629285748">
        <ele>69</ele>
        <time>2018-03-28T17:54:46Z</time>
      </trkpt>
      <trkpt lat="62.637434025801" lon="17.975643618797">
        <ele>69.2</ele>
        <time>2018-03-28T17:54:47Z</time>
      </trkpt>
      <trkpt lat="62.637415501802" lon="17.975656107828">
        <ele>69.4</ele>
        <time>2018-03-28T17:54:48Z</time>
      </trkpt>
      <trkpt lat="62.637400330563" lon="17.975683516641">
        <ele>69.6</ele>
        <time>2018-03-28T17:54:49Z</time>
      </trkpt>
      <trkpt lat="62.637373592302" lon="17.97569617331">
        <ele>69.8</ele>
        <time>2018-03-28T17:54:50Z</time>
      </trkpt>
      <trkpt lat="62.637360935633" lon="17.975722241019">
        <ele>70</ele>
        <time>2018-03-28T17:54:51Z</time>
      </trkpt>
      <trkpt lat="62.63733855596" lon="17.975736993163">
        <ele>70</ele>
        <time>2018-03-28T17:54:52Z</time>
      </trkpt>
      <trkpt lat="62.637317098296" lon="17.975758367008">
        <ele>70.2</ele>
        <time>2018-03-28T17:54:53Z</time>
      </trkpt>
      <trkpt lat="62.637301591781" lon="17.975780662862">
        <ele>70.4</ele>
        <time>2018-03-28T17:54:54Z</time>
      </trkpt>
      <trkpt lat="62.637282145773" lon="17.975806730571">
        <ele>70.4</ele>
        <time>2018-03-28T17:54:55Z</time>
      </trkpt>
      <trkpt lat="62.637269070009" lon="17.975843024198">
        <ele>70.6</ele>
        <time>2018-03-28T17:54:56Z</time>
      </trkpt>
      <trkpt lat="62.637254066408" lon="17.975871187382">
        <ele>70.8</ele>
        <time>2018-03-28T17:54:57Z</time>
      </trkpt>
      <trkpt lat="62.637241745015" lon="17.975887364449">
        <ele>71</ele>
        <time>2018-03-28T17:54:58Z</time>
      </trkpt>
      <trkpt lat="62.637229004527" lon="17.975936566202">
        <ele>71.2</ele>
        <time>2018-03-28T17:54:59Z</time>
      </trkpt>
      <trkpt lat="62.637214587659" lon="17.975972021639">
        <ele>71.8</ele>
        <time>2018-03-28T17:55:00Z</time>
      </trkpt>
      <trkpt lat="62.637200925162" lon="17.976009404913">
        <ele>71.8</ele>
        <time>2018-03-28T17:55:01Z</time>
      </trkpt>
      <trkpt lat="62.637197404764" lon="17.976044692712">
        <ele>72.2</ele>
        <time>2018-03-28T17:55:02Z</time>
      </trkpt>
      <trkpt lat="62.637179718955" lon="17.976079561416">
        <ele>72.4</ele>
        <time>2018-03-28T17:55:03Z</time>
      </trkpt>
      <trkpt lat="62.637175360367" lon="17.976131696834">
        <ele>72.4</ele>
        <time>2018-03-28T17:55:04Z</time>
      </trkpt>
      <trkpt lat="62.637158596567" lon="17.976176959094">
        <ele>72.6</ele>
        <time>2018-03-28T17:55:05Z</time>
      </trkpt>
      <trkpt lat="62.63716085968" lon="17.976226328485">
        <ele>72.6</ele>
        <time>2018-03-28T17:55:06Z</time>
      </trkpt>
      <trkpt lat="62.63714912502" lon="17.976272680392">
        <ele>72.8</ele>
        <time>2018-03-28T17:55:07Z</time>
      </trkpt>
      <trkpt lat="62.63713906674" lon="17.976317355919">
        <ele>72.8</ele>
        <time>2018-03-28T17:55:08Z</time>
      </trkpt>
      <trkpt lat="62.637136803627" lon="17.976367060586">
        <ele>73</ele>
        <time>2018-03-28T17:55:09Z</time>
      </trkpt>
      <trkpt lat="62.637124063139" lon="17.976417603443">
        <ele>73</ele>
        <time>2018-03-28T17:55:10Z</time>
      </trkpt>
      <trkpt lat="62.637124230777" lon="17.976466889015">
        <ele>73.2</ele>
        <time>2018-03-28T17:55:11Z</time>
      </trkpt>
      <trkpt lat="62.637109059538" lon="17.976521455184">
        <ele>73.2</ele>
        <time>2018-03-28T17:55:12Z</time>
      </trkpt>
      <trkpt lat="62.637104617131" lon="17.976564035236">
        <ele>73.4</ele>
        <time>2018-03-28T17:55:13Z</time>
      </trkpt>
      <trkpt lat="62.637087853331" lon="17.976608794582">
        <ele>73.4</ele>
        <time>2018-03-28T17:55:14Z</time>
      </trkpt>
      <trkpt lat="62.637081566906" lon="17.976664366579">
        <ele>73.4</ele>
        <time>2018-03-28T17:55:15Z</time>
      </trkpt>
      <trkpt lat="62.637080812535" lon="17.976706024622">
        <ele>73.4</ele>
        <time>2018-03-28T17:55:16Z</time>
      </trkpt>
      <trkpt lat="62.637075029024" lon="17.97676905651">
        <ele>73.6</ele>
        <time>2018-03-28T17:55:17Z</time>
      </trkpt>
      <trkpt lat="62.63707452611" lon="17.976809792544">
        <ele>73.6</ele>
        <time>2018-03-28T17:55:18Z</time>
      </trkpt>
      <trkpt lat="62.637071843902" lon="17.976868633482">
        <ele>73.8</ele>
        <time>2018-03-28T17:55:19Z</time>
      </trkpt>
      <trkpt lat="62.637072514454" lon="17.976925714221">
        <ele>73.6</ele>
        <time>2018-03-28T17:55:20Z</time>
      </trkpt>
      <trkpt lat="62.637072179178" lon="17.976976508535">
        <ele>73.8</ele>
        <time>2018-03-28T17:55:21Z</time>
      </trkpt>
      <trkpt lat="62.637073436463" lon="17.977031326161">
        <ele>73.8</ele>
        <time>2018-03-28T17:55:22Z</time>
      </trkpt>
      <trkpt lat="62.637079722888" lon="17.977073235661">
        <ele>73.6</ele>
        <time>2018-03-28T17:55:23Z</time>
      </trkpt>
      <trkpt lat="62.637077627413" lon="17.97714875658">
        <ele>73.8</ele>
        <time>2018-03-28T17:55:24Z</time>
      </trkpt>
      <trkpt lat="62.637073604101" lon="17.977209357717">
        <ele>73.8</ele>
        <time>2018-03-28T17:55:25Z</time>
      </trkpt>
      <trkpt lat="62.637071005712" lon="17.977268533931">
        <ele>73.8</ele>
        <time>2018-03-28T17:55:26Z</time>
      </trkpt>
      <trkpt lat="62.637055415378" lon="17.977349419266">
        <ele>73.8</ele>
        <time>2018-03-28T17:55:27Z</time>
      </trkpt>
      <trkpt lat="62.637048206944" lon="17.977403985435">
        <ele>73.8</ele>
        <time>2018-03-28T17:55:28Z</time>
      </trkpt>
      <trkpt lat="62.637026078728" lon="17.977469364255">
        <ele>73.8</ele>
        <time>2018-03-28T17:55:29Z</time>
      </trkpt>
      <trkpt lat="62.637011158946" lon="17.977537173826">
        <ele>73.8</ele>
        <time>2018-03-28T17:55:30Z</time>
      </trkpt>
      <trkpt lat="62.636998586096" lon="17.977583861009">
        <ele>73.8</ele>
        <time>2018-03-28T17:55:31Z</time>
      </trkpt>
      <trkpt lat="62.636976374061" lon="17.977650329476">
        <ele>73.8</ele>
        <time>2018-03-28T17:55:32Z</time>
      </trkpt>
      <trkpt lat="62.636969333265" lon="17.977692322795">
        <ele>73.8</ele>
        <time>2018-03-28T17:55:33Z</time>
      </trkpt>
      <trkpt lat="62.636954162026" lon="17.977762730755">
        <ele>73.8</ele>
        <time>2018-03-28T17:55:34Z</time>
      </trkpt>
      <trkpt lat="62.63694460666" lon="17.977823415711">
        <ele>74</ele>
        <time>2018-03-28T17:55:35Z</time>
      </trkpt>
      <trkpt lat="62.636938152597" lon="17.977881586097">
        <ele>74</ele>
        <time>2018-03-28T17:55:36Z</time>
      </trkpt>
      <trkpt lat="62.636929100145" lon="17.977944953261">
        <ele>74</ele>
        <time>2018-03-28T17:55:37Z</time>
      </trkpt>
      <trkpt lat="62.636929854516" lon="17.977993233005">
        <ele>74</ele>
        <time>2018-03-28T17:55:38Z</time>
      </trkpt>
      <trkpt lat="62.636918203675" lon="17.978070430304">
        <ele>74</ele>
        <time>2018-03-28T17:55:39Z</time>
      </trkpt>
      <trkpt lat="62.636915102372" lon="17.978107981216">
        <ele>74</ele>
        <time>2018-03-28T17:55:40Z</time>
      </trkpt>
      <trkpt lat="62.636904708816" lon="17.978185513791">
        <ele>74</ele>
        <time>2018-03-28T17:55:41Z</time>
      </trkpt>
      <trkpt lat="62.63689012431" lon="17.978258101045">
        <ele>74</ele>
        <time>2018-03-28T17:55:42Z</time>
      </trkpt>
      <trkpt lat="62.636873025234" lon="17.978313589223">
        <ele>74</ele>
        <time>2018-03-28T17:55:43Z</time>
      </trkpt>
      <trkpt lat="62.636853160131" lon="17.978374944731">
        <ele>74.2</ele>
        <time>2018-03-28T17:55:44Z</time>
      </trkpt>
      <trkpt lat="62.636836396331" lon="17.978437389886">
        <ele>74</ele>
        <time>2018-03-28T17:55:45Z</time>
      </trkpt>
      <trkpt lat="62.636826254232" lon="17.978482400689">
        <ele>74.2</ele>
        <time>2018-03-28T17:55:46Z</time>
      </trkpt>
      <trkpt lat="62.636804880387" lon="17.97853344646">
        <ele>74.4</ele>
        <time>2018-03-28T17:55:47Z</time>
      </trkpt>
      <trkpt lat="62.636792642813" lon="17.978591197751">
        <ele>74.4</ele>
        <time>2018-03-28T17:55:48Z</time>
      </trkpt>
      <trkpt lat="62.636770598416" lon="17.978634783631">
        <ele>74.4</ele>
        <time>2018-03-28T17:55:49Z</time>
      </trkpt>
      <trkpt lat="62.636755259539" lon="17.978674094742">
        <ele>74.6</ele>
        <time>2018-03-28T17:55:50Z</time>
      </trkpt>
      <trkpt lat="62.636744698345" lon="17.978695887682">
        <ele>74.6</ele>
        <time>2018-03-28T17:55:51Z</time>
      </trkpt>
      <trkpt lat="62.636728437459" lon="17.978727235988">
        <ele>74.8</ele>
        <time>2018-03-28T17:55:52Z</time>
      </trkpt>
      <trkpt lat="62.636702872664" lon="17.978747687824">
        <ele>74.8</ele>
        <time>2018-03-28T17:55:53Z</time>
      </trkpt>
      <trkpt lat="62.636684683941" lon="17.97877568337">
        <ele>74.8</ele>
        <time>2018-03-28T17:55:54Z</time>
      </trkpt>
      <trkpt lat="62.636660963164" lon="17.978774677542">
        <ele>75</ele>
        <time>2018-03-28T17:55:55Z</time>
      </trkpt>
      <trkpt lat="62.636633721989" lon="17.978782472709">
        <ele>75</ele>
        <time>2018-03-28T17:55:56Z</time>
      </trkpt>
      <trkpt lat="62.636610336488" lon="17.97878406527">
        <ele>75</ele>
        <time>2018-03-28T17:55:57Z</time>
      </trkpt>
      <trkpt lat="62.636585358426" lon="17.978789262048">
        <ele>75.2</ele>
        <time>2018-03-28T17:55:58Z</time>
      </trkpt>
      <trkpt lat="62.636564655133" lon="17.978797979224">
        <ele>75.4</ele>
        <time>2018-03-28T17:55:59Z</time>
      </trkpt>
      <trkpt lat="62.63653556994" lon="17.978796554301">
        <ele>75.4</ele>
        <time>2018-03-28T17:56:00Z</time>
      </trkpt>
      <trkpt lat="62.636509502231" lon="17.978801248165">
        <ele>75.4</ele>
        <time>2018-03-28T17:56:01Z</time>
      </trkpt>
      <trkpt lat="62.636489385671" lon="17.978797141034">
        <ele>75.6</ele>
        <time>2018-03-28T17:56:02Z</time>
      </trkpt>
      <trkpt lat="62.636459965202" lon="17.978795716111">
        <ele>75.8</ele>
        <time>2018-03-28T17:56:03Z</time>
      </trkpt>
      <trkpt lat="62.636437669348" lon="17.978805439115">
        <ele>75.8</ele>
        <time>2018-03-28T17:56:04Z</time>
      </trkpt>
      <trkpt lat="62.636411936915" lon="17.978804852382">
        <ele>76</ele>
        <time>2018-03-28T17:56:05Z</time>
      </trkpt>
      <trkpt lat="62.636395508391" lon="17.978810384436">
        <ele>76.2</ele>
        <time>2018-03-28T17:56:06Z</time>
      </trkpt>
      <trkpt lat="62.636377906401" lon="17.978820694173">
        <ele>76.4</ele>
        <time>2018-03-28T17:56:07Z</time>
      </trkpt>
      <trkpt lat="62.636357203108" lon="17.978833183204">
        <ele>76.6</ele>
        <time>2018-03-28T17:56:08Z</time>
      </trkpt>
      <trkpt lat="62.636337589462" lon="17.978851204289">
        <ele>77</ele>
        <time>2018-03-28T17:56:09Z</time>
      </trkpt>
      <trkpt lat="62.636325351888" lon="17.978861933121">
        <ele>77.2</ele>
        <time>2018-03-28T17:56:10Z</time>
      </trkpt>
      <trkpt lat="62.636296769609" lon="17.978878529283">
        <ele>77.2</ele>
        <time>2018-03-28T17:56:11Z</time>
      </trkpt>
      <trkpt lat="62.636277575058" lon="17.978900908956">
        <ele>77.4</ele>
        <time>2018-03-28T17:56:12Z</time>
      </trkpt>
      <trkpt lat="62.636257542317" lon="17.978923120991">
        <ele>77.8</ele>
        <time>2018-03-28T17:56:13Z</time>
      </trkpt>
      <trkpt lat="62.636228540943" lon="17.978949775433">
        <ele>78</ele>
        <time>2018-03-28T17:56:14Z</time>
      </trkpt>
      <trkpt lat="62.636209011116" lon="17.978978190074">
        <ele>78.2</ele>
        <time>2018-03-28T17:56:15Z</time>
      </trkpt>
      <trkpt lat="62.636195097162" lon="17.979002581403">
        <ele>78.6</ele>
        <time>2018-03-28T17:56:16Z</time>
      </trkpt>
      <trkpt lat="62.636177830448" lon="17.979034097347">
        <ele>78.8</ele>
        <time>2018-03-28T17:56:17Z</time>
      </trkpt>
      <trkpt lat="62.636171627842" lon="17.97904809512">
        <ele>79</ele>
        <time>2018-03-28T17:56:18Z</time>
      </trkpt>
      <trkpt lat="62.636157043336" lon="17.979059410685">
        <ele>79.4</ele>
        <time>2018-03-28T17:56:19Z</time>
      </trkpt>
      <trkpt lat="62.636146733599" lon="17.979073743734">
        <ele>79.6</ele>
        <time>2018-03-28T17:56:20Z</time>
      </trkpt>
      <trkpt lat="62.636135585672" lon="17.979086903317">
        <ele>80</ele>
        <time>2018-03-28T17:56:21Z</time>
      </trkpt>
      <trkpt lat="62.636126030306" lon="17.979106936058">
        <ele>80.4</ele>
        <time>2018-03-28T17:56:22Z</time>
      </trkpt>
      <trkpt lat="62.636111194343" lon="17.979129818645">
        <ele>80.6</ele>
        <time>2018-03-28T17:56:23Z</time>
      </trkpt>
      <trkpt lat="62.636101974253" lon="17.979154796707">
        <ele>81</ele>
        <time>2018-03-28T17:56:24Z</time>
      </trkpt>
      <trkpt lat="62.636086635376" lon="17.979179942407">
        <ele>81.4</ele>
        <time>2018-03-28T17:56:25Z</time>
      </trkpt>
      <trkpt lat="62.636075655087" lon="17.979217828595">
        <ele>81.6</ele>
        <time>2018-03-28T17:56:26Z</time>
      </trkpt>
      <trkpt lat="62.636062495504" lon="17.979246410874">
        <ele>82</ele>
        <time>2018-03-28T17:56:27Z</time>
      </trkpt>
      <trkpt lat="62.636049587378" lon="17.979273903506">
        <ele>82.4</ele>
        <time>2018-03-28T17:56:28Z</time>
      </trkpt>
      <trkpt lat="62.636039612917" lon="17.979321596517">
        <ele>82.6</ele>
        <time>2018-03-28T17:56:29Z</time>
      </trkpt>
      <trkpt lat="62.636030811922" lon="17.97936493094">
        <ele>82.8</ele>
        <time>2018-03-28T17:56:30Z</time>
      </trkpt>
      <trkpt lat="62.636017903796" lon="17.97941354596">
        <ele>83</ele>
        <time>2018-03-28T17:56:31Z</time>
      </trkpt>
      <trkpt lat="62.636011449733" lon="17.979465765197">
        <ele>83</ele>
        <time>2018-03-28T17:56:32Z</time>
      </trkpt>
      <trkpt lat="62.636005414765" lon="17.979524270859">
        <ele>83</ele>
        <time>2018-03-28T17:56:33Z</time>
      </trkpt>
      <trkpt lat="62.636003738385" lon="17.979593589172">
        <ele>83</ele>
        <time>2018-03-28T17:56:34Z</time>
      </trkpt>
      <trkpt lat="62.635999882711" lon="17.979668858634">
        <ele>83</ele>
        <time>2018-03-28T17:56:35Z</time>
      </trkpt>
      <trkpt lat="62.635994602114" lon="17.979780170266">
        <ele>82.8</ele>
        <time>2018-03-28T17:56:36Z</time>
      </trkpt>
      <trkpt lat="62.635991081716" lon="17.979927859344">
        <ele>82</ele>
        <time>2018-03-28T17:56:37Z</time>
      </trkpt>
      <trkpt lat="62.635993596286" lon="17.980075213146">
        <ele>81.2</ele>
        <time>2018-03-28T17:56:38Z</time>
      </trkpt>
      <trkpt lat="62.636000301806" lon="17.980232038495">
        <ele>80</ele>
        <time>2018-03-28T17:56:39Z</time>
      </trkpt>
      <trkpt lat="62.636015808321" lon="17.980353827502">
        <ele>78.8</ele>
        <time>2018-03-28T17:56:40Z</time>
      </trkpt>
      <trkpt lat="62.636034080863" lon="17.980503612055">
        <ele>77.8</ele>
        <time>2018-03-28T17:56:41Z</time>
      </trkpt>
      <trkpt lat="62.636059980934" lon="17.980622886492">
        <ele>77</ele>
        <time>2018-03-28T17:56:42Z</time>
      </trkpt>
      <trkpt lat="62.636082192969" lon="17.980744172585">
        <ele>76.6</ele>
        <time>2018-03-28T17:56:43Z</time>
      </trkpt>
      <trkpt lat="62.63609552019" lon="17.98087786389">
        <ele>76.4</ele>
        <time>2018-03-28T17:56:44Z</time>
      </trkpt>
      <trkpt lat="62.636114128008" lon="17.980988588789">
        <ele>76</ele>
        <time>2018-03-28T17:56:45Z</time>
      </trkpt>
      <trkpt lat="62.636141369183" lon="17.981106605941">
        <ele>75.8</ele>
        <time>2018-03-28T17:56:46Z</time>
      </trkpt>
      <trkpt lat="62.636161150467" lon="17.981242895635">
        <ele>75.6</ele>
        <time>2018-03-28T17:56:47Z</time>
      </trkpt>
      <trkpt lat="62.636170789652" lon="17.981351860335">
        <ele>75.4</ele>
        <time>2018-03-28T17:56:48Z</time>
      </trkpt>
      <trkpt lat="62.636177914267" lon="17.981468536383">
        <ele>75</ele>
        <time>2018-03-28T17:56:49Z</time>
      </trkpt>
      <trkpt lat="62.636186128529" lon="17.981580602386">
        <ele>74.8</ele>
        <time>2018-03-28T17:56:50Z</time>
      </trkpt>
      <trkpt lat="62.636191241488" lon="17.981681436643">
        <ele>74.6</ele>
        <time>2018-03-28T17:56:51Z</time>
      </trkpt>
      <trkpt lat="62.636200713035" lon="17.981770200964">
        <ele>74.6</ele>
        <time>2018-03-28T17:56:52Z</time>
      </trkpt>
      <trkpt lat="62.636208005288" lon="17.981865167891">
        <ele>74.4</ele>
        <time>2018-03-28T17:56:53Z</time>
      </trkpt>
      <trkpt lat="62.636215632817" lon="17.981950495633">
        <ele>74.4</ele>
        <time>2018-03-28T17:56:54Z</time>
      </trkpt>
      <trkpt lat="62.636227702753" lon="17.982020149222">
        <ele>74.8</ele>
        <time>2018-03-28T17:56:55Z</time>
      </trkpt>
      <trkpt lat="62.636235917015" lon="17.98212006147">
        <ele>75</ele>
        <time>2018-03-28T17:56:56Z</time>
      </trkpt>
      <trkpt lat="62.636249244236" lon="17.982204299565">
        <ele>75.2</ele>
        <time>2018-03-28T17:56:57Z</time>
      </trkpt>
      <trkpt lat="62.63625729086" lon="17.982266828539">
        <ele>75.4</ele>
        <time>2018-03-28T17:56:58Z</time>
      </trkpt>
      <trkpt lat="62.636259889249" lon="17.982344361114">
        <ele>75.6</ele>
        <time>2018-03-28T17:56:59Z</time>
      </trkpt>
      <trkpt lat="62.63627237828" lon="17.982397334722">
        <ele>75.4</ele>
        <time>2018-03-28T17:57:00Z</time>
      </trkpt>
      <trkpt lat="62.636275647221" lon="17.982477884781">
        <ele>75.4</ele>
        <time>2018-03-28T17:57:01Z</time>
      </trkpt>
      <trkpt lat="62.636273970841" lon="17.982543515058">
        <ele>75.4</ele>
        <time>2018-03-28T17:57:02Z</time>
      </trkpt>
      <trkpt lat="62.636277994153" lon="17.982601769263">
        <ele>75.4</ele>
        <time>2018-03-28T17:57:03Z</time>
      </trkpt>
      <trkpt lat="62.636267181502" lon="17.982694892172">
        <ele>75.4</ele>
        <time>2018-03-28T17:57:04Z</time>
      </trkpt>
      <trkpt lat="62.636268438787" lon="17.982760606268">
        <ele>75.4</ele>
        <time>2018-03-28T17:57:05Z</time>
      </trkpt>
      <trkpt lat="62.636264666932" lon="17.982823973432">
        <ele>75.6</ele>
        <time>2018-03-28T17:57:06Z</time>
      </trkpt>
      <trkpt lat="62.636258212869" lon="17.98289873998">
        <ele>75.6</ele>
        <time>2018-03-28T17:57:07Z</time>
      </trkpt>
      <trkpt lat="62.636262152362" lon="17.982964537895">
        <ele>76</ele>
        <time>2018-03-28T17:57:08Z</time>
      </trkpt>
      <trkpt lat="62.636267013864" lon="17.983027737421">
        <ele>76</ele>
        <time>2018-03-28T17:57:09Z</time>
      </trkpt>
      <trkpt lat="62.636263744923" lon="17.983089763481">
        <ele>76</ele>
        <time>2018-03-28T17:57:10Z</time>
      </trkpt>
      <trkpt lat="62.636267935873" lon="17.983166374047">
        <ele>76.2</ele>
        <time>2018-03-28T17:57:11Z</time>
      </trkpt>
      <trkpt lat="62.636265169846" lon="17.983240386224">
        <ele>76.2</ele>
        <time>2018-03-28T17:57:12Z</time>
      </trkpt>
      <trkpt lat="62.63626064362" lon="17.983303501931">
        <ele>76</ele>
        <time>2018-03-28T17:57:13Z</time>
      </trkpt>
      <trkpt lat="62.636254357195" lon="17.983376005366">
        <ele>76.2</ele>
        <time>2018-03-28T17:57:14Z</time>
      </trkpt>
      <trkpt lat="62.636250920616" lon="17.983437025598">
        <ele>76.2</ele>
        <time>2018-03-28T17:57:15Z</time>
      </trkpt>
      <trkpt lat="62.636243376906" lon="17.983498967839">
        <ele>76.2</ele>
        <time>2018-03-28T17:57:16Z</time>
      </trkpt>
      <trkpt lat="62.636236168472" lon="17.983557808777">
        <ele>76.2</ele>
        <time>2018-03-28T17:57:17Z</time>
      </trkpt>
      <trkpt lat="62.636228373305" lon="17.983608435453">
        <ele>76.4</ele>
        <time>2018-03-28T17:57:18Z</time>
      </trkpt>
      <trkpt lat="62.636220745776" lon="17.983666354382">
        <ele>76.2</ele>
        <time>2018-03-28T17:57:19Z</time>
      </trkpt>
      <trkpt lat="62.636204820166" lon="17.983721758741">
        <ele>76.6</ele>
        <time>2018-03-28T17:57:20Z</time>
      </trkpt>
      <trkpt lat="62.63619694118" lon="17.983769870847">
        <ele>76.8</ele>
        <time>2018-03-28T17:57:21Z</time>
      </trkpt>
      <trkpt lat="62.636184284511" lon="17.983831058717">
        <ele>76.8</ele>
        <time>2018-03-28T17:57:22Z</time>
      </trkpt>
      <trkpt lat="62.636158468259" lon="17.983872884398">
        <ele>76.8</ele>
        <time>2018-03-28T17:57:23Z</time>
      </trkpt>
      <trkpt lat="62.636150505454" lon="17.983927953481">
        <ele>77</ele>
        <time>2018-03-28T17:57:24Z</time>
      </trkpt>
      <trkpt lat="62.636143799934" lon="17.983981597641">
        <ele>77</ele>
        <time>2018-03-28T17:57:25Z</time>
      </trkpt>
      <trkpt lat="62.636140195717" lon="17.984029709747">
        <ele>77</ele>
        <time>2018-03-28T17:57:26Z</time>
      </trkpt>
      <trkpt lat="62.636138603156" lon="17.984091400531">
        <ele>77</ele>
        <time>2018-03-28T17:57:27Z</time>
      </trkpt>
      <trkpt lat="62.636135920948" lon="17.984141943388">
        <ele>77.2</ele>
        <time>2018-03-28T17:57:28Z</time>
      </trkpt>
      <trkpt lat="62.63613323874" lon="17.984191396598">
        <ele>77.2</ele>
        <time>2018-03-28T17:57:29Z</time>
      </trkpt>
      <trkpt lat="62.636129299247" lon="17.984262139834">
        <ele>77.2</ele>
        <time>2018-03-28T17:57:30Z</time>
      </trkpt>
      <trkpt lat="62.636121923175" lon="17.98432533936">
        <ele>77.6</ele>
        <time>2018-03-28T17:57:31Z</time>
      </trkpt>
      <trkpt lat="62.63611731313" lon="17.984382587737">
        <ele>77.6</ele>
        <time>2018-03-28T17:57:32Z</time>
      </trkpt>
      <trkpt lat="62.636113708913" lon="17.984436315716">
        <ele>77.6</ele>
        <time>2018-03-28T17:57:33Z</time>
      </trkpt>
      <trkpt lat="62.636113625094" lon="17.984500856346">
        <ele>77.8</ele>
        <time>2018-03-28T17:57:34Z</time>
      </trkpt>
      <trkpt lat="62.636107757764" lon="17.984578305102">
        <ele>78</ele>
        <time>2018-03-28T17:57:35Z</time>
      </trkpt>
      <trkpt lat="62.636100465511" lon="17.984637481316">
        <ele>78</ele>
        <time>2018-03-28T17:57:36Z</time>
      </trkpt>
      <trkpt lat="62.636099292045" lon="17.984692298942">
        <ele>78</ele>
        <time>2018-03-28T17:57:37Z</time>
      </trkpt>
      <trkpt lat="62.636093508534" lon="17.984739321401">
        <ele>78.2</ele>
        <time>2018-03-28T17:57:38Z</time>
      </trkpt>
      <trkpt lat="62.63609552019" lon="17.984795647769">
        <ele>78.2</ele>
        <time>2018-03-28T17:57:39Z</time>
      </trkpt>
      <trkpt lat="62.636095352552" lon="17.984849124291">
        <ele>78.4</ele>
        <time>2018-03-28T17:57:40Z</time>
      </trkpt>
      <trkpt lat="62.636094514362" lon="17.984921124812">
        <ele>78.6</ele>
        <time>2018-03-28T17:57:41Z</time>
      </trkpt>
      <trkpt lat="62.636089485222" lon="17.984984575795">
        <ele>78.4</ele>
        <time>2018-03-28T17:57:42Z</time>
      </trkpt>
      <trkpt lat="62.636087725023" lon="17.985038806688">
        <ele>78.6</ele>
        <time>2018-03-28T17:57:43Z</time>
      </trkpt>
      <trkpt lat="62.636083617892" lon="17.985099491644">
        <ele>78.6</ele>
        <time>2018-03-28T17:57:44Z</time>
      </trkpt>
      <trkpt lat="62.636086216281" lon="17.985145256818">
        <ele>78.8</ele>
        <time>2018-03-28T17:57:45Z</time>
      </trkpt>
      <trkpt lat="62.636081354779" lon="17.985185992852">
        <ele>78.8</ele>
        <time>2018-03-28T17:57:46Z</time>
      </trkpt>
      <trkpt lat="62.636074816897" lon="17.985257741916">
        <ele>79</ele>
        <time>2018-03-28T17:57:47Z</time>
      </trkpt>
      <trkpt lat="62.636067273187" lon="17.985312559542">
        <ele>79.2</ele>
        <time>2018-03-28T17:57:48Z</time>
      </trkpt>
      <trkpt lat="62.636062411685" lon="17.985373160679">
        <ele>79</ele>
        <time>2018-03-28T17:57:49Z</time>
      </trkpt>
      <trkpt lat="62.63606031621" lon="17.985431666341">
        <ele>79.2</ele>
        <time>2018-03-28T17:57:50Z</time>
      </trkpt>
      <trkpt lat="62.636052856319" lon="17.985492854211">
        <ele>79.2</ele>
        <time>2018-03-28T17:57:51Z</time>
      </trkpt>
      <trkpt lat="62.636050928482" lon="17.98555580228">
        <ele>79.4</ele>
        <time>2018-03-28T17:57:52Z</time>
      </trkpt>
      <trkpt lat="62.636037852718" lon="17.985620426729">
        <ele>79.4</ele>
        <time>2018-03-28T17:57:53Z</time>
      </trkpt>
      <trkpt lat="62.636026118058" lon="17.985694522725">
        <ele>79.6</ele>
        <time>2018-03-28T17:57:54Z</time>
      </trkpt>
      <trkpt lat="62.636020753642" lon="17.985739952623">
        <ele>79.6</ele>
        <time>2018-03-28T17:57:55Z</time>
      </trkpt>
      <trkpt lat="62.636009521896" lon="17.985799547932">
        <ele>79.6</ele>
        <time>2018-03-28T17:57:56Z</time>
      </trkpt>
      <trkpt lat="62.635996865227" lon="17.985843972002">
        <ele>79.4</ele>
        <time>2018-03-28T17:57:57Z</time>
      </trkpt>
      <trkpt lat="62.63596979169" lon="17.985879427439">
        <ele>79.6</ele>
        <time>2018-03-28T17:57:58Z</time>
      </trkpt>
      <trkpt lat="62.635951435329" lon="17.985919241464">
        <ele>79.6</ele>
        <time>2018-03-28T17:57:59Z</time>
      </trkpt>
      <trkpt lat="62.63592536762" lon="17.985941118223">
        <ele>79.8</ele>
        <time>2018-03-28T17:58:00Z</time>
      </trkpt>
      <trkpt lat="62.635914554969" lon="17.985961737697">
        <ele>80.2</ele>
        <time>2018-03-28T17:58:01Z</time>
      </trkpt>
      <trkpt lat="62.635894438409" lon="17.98597154452">
        <ele>80.4</ele>
        <time>2018-03-28T17:58:02Z</time>
      </trkpt>
      <trkpt lat="62.635869963261" lon="17.985990236157">
        <ele>80.6</ele>
        <time>2018-03-28T17:58:03Z</time>
      </trkpt>
      <trkpt lat="62.635853031823" lon="17.985996857858">
        <ele>80.8</ele>
        <time>2018-03-28T17:58:04Z</time>
      </trkpt>
      <trkpt lat="62.635833669634" lon="17.986036420426">
        <ele>80.8</ele>
        <time>2018-03-28T17:58:05Z</time>
      </trkpt>
      <trkpt lat="62.635795112894" lon="17.986070702397">
        <ele>80.8</ele>
        <time>2018-03-28T17:58:06Z</time>
      </trkpt>
      <trkpt lat="62.635780193112" lon="17.986092579156">
        <ele>80.8</ele>
        <time>2018-03-28T17:58:07Z</time>
      </trkpt>
      <trkpt lat="62.635758819267" lon="17.98612241872">
        <ele>81</ele>
        <time>2018-03-28T17:58:08Z</time>
      </trkpt>
      <trkpt lat="62.635734930852" lon="17.986165334048">
        <ele>81</ele>
        <time>2018-03-28T17:58:09Z</time>
      </trkpt>
      <trkpt lat="62.63571833469" lon="17.986198526372">
        <ele>81.2</ele>
        <time>2018-03-28T17:58:10Z</time>
      </trkpt>
      <trkpt lat="62.635695033008" lon="17.986225599909">
        <ele>81.4</ele>
        <time>2018-03-28T17:58:11Z</time>
      </trkpt>
      <trkpt lat="62.635675084086" lon="17.986252505808">
        <ele>81.4</ele>
        <time>2018-03-28T17:58:12Z</time>
      </trkpt>
      <trkpt lat="62.635659242295" lon="17.986300617914">
        <ele>81.6</ele>
        <time>2018-03-28T17:58:13Z</time>
      </trkpt>
      <trkpt lat="62.635647423816" lon="17.986334229333">
        <ele>81.8</ele>
        <time>2018-03-28T17:58:14Z</time>
      </trkpt>
      <trkpt lat="62.635628983636" lon="17.986389466054">
        <ele>82</ele>
        <time>2018-03-28T17:58:15Z</time>
      </trkpt>
      <trkpt lat="62.635619092994" lon="17.986444032223">
        <ele>82.2</ele>
        <time>2018-03-28T17:58:16Z</time>
      </trkpt>
      <trkpt lat="62.635599982262" lon="17.986494239804">
        <ele>82.4</ele>
        <time>2018-03-28T17:58:17Z</time>
      </trkpt>
      <trkpt lat="62.635573244001" lon="17.986546375222">
        <ele>82.6</ele>
        <time>2018-03-28T17:58:18Z</time>
      </trkpt>
      <trkpt lat="62.635557988943" lon="17.986596331346">
        <ele>82.6</ele>
        <time>2018-03-28T17:58:19Z</time>
      </trkpt>
      <trkpt lat="62.635537620926" lon="17.986634804267">
        <ele>82.8</ele>
        <time>2018-03-28T17:58:20Z</time>
      </trkpt>
      <trkpt lat="62.63552638918" lon="17.986682748735">
        <ele>82.6</ele>
        <time>2018-03-28T17:58:21Z</time>
      </trkpt>
      <trkpt lat="62.63551213995" lon="17.986726586072">
        <ele>82.6</ele>
        <time>2018-03-28T17:58:22Z</time>
      </trkpt>
      <trkpt lat="62.635499064186" lon="17.986781068422">
        <ele>82.6</ele>
        <time>2018-03-28T17:58:23Z</time>
      </trkpt>
      <trkpt lat="62.635480875463" lon="17.986829767261">
        <ele>82.8</ele>
        <time>2018-03-28T17:58:24Z</time>
      </trkpt>
      <trkpt lat="62.635457322324" lon="17.986875280978">
        <ele>82.8</ele>
        <time>2018-03-28T17:58:25Z</time>
      </trkpt>
      <trkpt lat="62.635439720334" lon="17.986916771383">
        <ele>83</ele>
        <time>2018-03-28T17:58:26Z</time>
      </trkpt>
      <trkpt lat="62.635421447792" lon="17.986976031416">
        <ele>83</ele>
        <time>2018-03-28T17:58:27Z</time>
      </trkpt>
      <trkpt lat="62.635406108915" lon="17.987005535704">
        <ele>83.2</ele>
        <time>2018-03-28T17:58:28Z</time>
      </trkpt>
      <trkpt lat="62.635392446418" lon="17.987058593131">
        <ele>83.2</ele>
        <time>2018-03-28T17:58:29Z</time>
      </trkpt>
      <trkpt lat="62.635379370654" lon="17.987077284768">
        <ele>83.4</ele>
        <time>2018-03-28T17:58:30Z</time>
      </trkpt>
      <trkpt lat="62.635373503324" lon="17.98712070301">
        <ele>83.4</ele>
        <time>2018-03-28T17:58:31Z</time>
      </trkpt>
      <trkpt lat="62.635351039832" lon="17.987148782375">
        <ele>83.8</ele>
        <time>2018-03-28T17:58:32Z</time>
      </trkpt>
      <trkpt lat="62.635351878022" lon="17.987193206445">
        <ele>83.8</ele>
        <time>2018-03-28T17:58:33Z</time>
      </trkpt>
      <trkpt lat="62.635331426186" lon="17.987226398769">
        <ele>84</ele>
        <time>2018-03-28T17:58:34Z</time>
      </trkpt>
      <trkpt lat="62.635311141988" lon="17.987266967165">
        <ele>84.2</ele>
        <time>2018-03-28T17:58:35Z</time>
      </trkpt>
      <trkpt lat="62.635293120903" lon="17.98730929576">
        <ele>84.4</ele>
        <time>2018-03-28T17:58:36Z</time>
      </trkpt>
      <trkpt lat="62.635270657411" lon="17.987342320446">
        <ele>84.2</ele>
        <time>2018-03-28T17:58:37Z</time>
      </trkpt>
      <trkpt lat="62.635256827276" lon="17.987387834163">
        <ele>84.2</ele>
        <time>2018-03-28T17:58:38Z</time>
      </trkpt>
      <trkpt lat="62.635233609413" lon="17.987412225492">
        <ele>84.2</ele>
        <time>2018-03-28T17:58:39Z</time>
      </trkpt>
      <trkpt lat="62.635215755966" lon="17.987434856622">
        <ele>84</ele>
        <time>2018-03-28T17:58:40Z</time>
      </trkpt>
      <trkpt lat="62.635196645234" lon="17.987519094717">
        <ele>84.4</ele>
        <time>2018-03-28T17:58:41Z</time>
      </trkpt>
      <trkpt lat="62.635172253905" lon="17.987584976451">
        <ele>84.4</ele>
        <time>2018-03-28T17:58:42Z</time>
      </trkpt>
      <trkpt lat="62.635165716023" lon="17.987636273679">
        <ele>85</ele>
        <time>2018-03-28T17:58:43Z</time>
      </trkpt>
      <trkpt lat="62.635151885888" lon="17.987690085477">
        <ele>85.2</ele>
        <time>2018-03-28T17:58:44Z</time>
      </trkpt>
      <trkpt lat="62.635147611119" lon="17.98774347818">
        <ele>85.4</ele>
        <time>2018-03-28T17:58:45Z</time>
      </trkpt>
      <trkpt lat="62.635151466793" lon="17.987792679933">
        <ele>85.4</ele>
        <time>2018-03-28T17:58:46Z</time>
      </trkpt>
      <trkpt lat="62.635142414341" lon="17.98783903184">
        <ele>85.8</ele>
        <time>2018-03-28T17:58:47Z</time>
      </trkpt>
      <trkpt lat="62.635145767101" lon="17.98788932324">
        <ele>85.6</ele>
        <time>2018-03-28T17:58:48Z</time>
      </trkpt>
      <trkpt lat="62.635130931138" lon="17.987947493626">
        <ele>85.8</ele>
        <time>2018-03-28T17:58:49Z</time>
      </trkpt>
      <trkpt lat="62.635125315265" lon="17.987994180809">
        <ele>86</ele>
        <time>2018-03-28T17:58:50Z</time>
      </trkpt>
      <trkpt lat="62.635113580605" lon="17.988048495521">
        <ele>86</ele>
        <time>2018-03-28T17:58:51Z</time>
      </trkpt>
      <trkpt lat="62.635104611972" lon="17.98809970893">
        <ele>86</ele>
        <time>2018-03-28T17:58:52Z</time>
      </trkpt>
      <trkpt lat="62.635092122941" lon="17.988142540439">
        <ele>86</ele>
        <time>2018-03-28T17:58:53Z</time>
      </trkpt>
      <trkpt lat="62.63507376658" lon="17.988191658373">
        <ele>86</ele>
        <time>2018-03-28T17:58:54Z</time>
      </trkpt>
      <trkpt lat="62.635059433531" lon="17.988231807674">
        <ele>86.2</ele>
        <time>2018-03-28T17:58:55Z</time>
      </trkpt>
      <trkpt lat="62.635047112138" lon="17.988278662495">
        <ele>86.4</ele>
        <time>2018-03-28T17:58:56Z</time>
      </trkpt>
      <trkpt lat="62.635034790745" lon="17.988312022457">
        <ele>86.6</ele>
        <time>2018-03-28T17:58:57Z</time>
      </trkpt>
      <trkpt lat="62.635013165443" lon="17.988338257804">
        <ele>86.6</ele>
        <time>2018-03-28T17:58:58Z</time>
      </trkpt>
      <trkpt lat="62.634998832394" lon="17.988363654961">
        <ele>86.8</ele>
        <time>2018-03-28T17:58:59Z</time>
      </trkpt>
      <trkpt lat="62.634972764685" lon="17.988380754037">
        <ele>87</ele>
        <time>2018-03-28T17:59:00Z</time>
      </trkpt>
      <trkpt lat="62.634956587618" lon="17.988392740154">
        <ele>87</ele>
        <time>2018-03-28T17:59:01Z</time>
      </trkpt>
      <trkpt lat="62.634928340615" lon="17.988415203646">
        <ele>87</ele>
        <time>2018-03-28T17:59:02Z</time>
      </trkpt>
      <trkpt lat="62.634920880724" lon="17.988426938306">
        <ele>87</ele>
        <time>2018-03-28T17:59:03Z</time>
      </trkpt>
      <trkpt lat="62.634897076128" lon="17.988435236387">
        <ele>87.2</ele>
        <time>2018-03-28T17:59:04Z</time>
      </trkpt>
      <trkpt lat="62.63487679193" lon="17.988449904712">
        <ele>87.2</ele>
        <time>2018-03-28T17:59:05Z</time>
      </trkpt>
      <trkpt lat="62.634859692854" lon="17.988466333236">
        <ele>87.4</ele>
        <time>2018-03-28T17:59:06Z</time>
      </trkpt>
      <trkpt lat="62.634829434195" lon="17.988477900258">
        <ele>87.4</ele>
        <time>2018-03-28T17:59:07Z</time>
      </trkpt>
      <trkpt lat="62.634806719246" lon="17.98848611452">
        <ele>87.6</ele>
        <time>2018-03-28T17:59:08Z</time>
      </trkpt>
      <trkpt lat="62.634782244098" lon="17.988497346266">
        <ele>87.8</ele>
        <time>2018-03-28T17:59:09Z</time>
      </trkpt>
      <trkpt lat="62.634759193873" lon="17.988510589668">
        <ele>87.8</ele>
        <time>2018-03-28T17:59:10Z</time>
      </trkpt>
      <trkpt lat="62.634738742037" lon="17.988531879694">
        <ele>87.8</ele>
        <time>2018-03-28T17:59:11Z</time>
      </trkpt>
      <trkpt lat="62.634713428699" lon="17.988539591042">
        <ele>88</ele>
        <time>2018-03-28T17:59:12Z</time>
      </trkpt>
      <trkpt lat="62.634692222492" lon="17.988558115041">
        <ele>88</ele>
        <time>2018-03-28T17:59:13Z</time>
      </trkpt>
      <trkpt lat="62.634664981317" lon="17.98857077171">
        <ele>88.2</ele>
        <time>2018-03-28T17:59:14Z</time>
      </trkpt>
      <trkpt lat="62.634632627183" lon="17.988579656524">
        <ele>88.4</ele>
        <time>2018-03-28T17:59:15Z</time>
      </trkpt>
      <trkpt lat="62.634615779564" lon="17.988606730061">
        <ele>88.6</ele>
        <time>2018-03-28T17:59:16Z</time>
      </trkpt>
      <trkpt lat="62.634596417375" lon="17.988618297083">
        <ele>88.8</ele>
        <time>2018-03-28T17:59:17Z</time>
      </trkpt>
      <trkpt lat="62.634574959711" lon="17.98864537062">
        <ele>88.8</ele>
        <time>2018-03-28T17:59:18Z</time>
      </trkpt>
      <trkpt lat="62.634564901431" lon="17.988676718926">
        <ele>89</ele>
        <time>2018-03-28T17:59:19Z</time>
      </trkpt>
      <trkpt lat="62.634538414627" lon="17.988702535178">
        <ele>89.2</ele>
        <time>2018-03-28T17:59:20Z</time>
      </trkpt>
      <trkpt lat="62.634523411026" lon="17.988732458561">
        <ele>89.4</ele>
        <time>2018-03-28T17:59:21Z</time>
      </trkpt>
      <trkpt lat="62.634508155968" lon="17.988763974505">
        <ele>89.6</ele>
        <time>2018-03-28T17:59:22Z</time>
      </trkpt>
      <trkpt lat="62.634486363028" lon="17.988793897888">
        <ele>89.6</ele>
        <time>2018-03-28T17:59:23Z</time>
      </trkpt>
      <trkpt lat="62.634472868169" lon="17.988835472112">
        <ele>89.8</ele>
        <time>2018-03-28T17:59:24Z</time>
      </trkpt>
      <trkpt lat="62.634461468785" lon="17.988871346644">
        <ele>89.8</ele>
        <time>2018-03-28T17:59:25Z</time>
      </trkpt>
      <trkpt lat="62.634443782976" lon="17.98891442961">
        <ele>90</ele>
        <time>2018-03-28T17:59:26Z</time>
      </trkpt>
      <trkpt lat="62.634424588425" lon="17.98896053006">
        <ele>90.2</ele>
        <time>2018-03-28T17:59:27Z</time>
      </trkpt>
      <trkpt lat="62.634408998091" lon="17.988999589714">
        <ele>90.4</ele>
        <time>2018-03-28T17:59:28Z</time>
      </trkpt>
      <trkpt lat="62.634382678925" lon="17.989046193078">
        <ele>90.4</ele>
        <time>2018-03-28T17:59:29Z</time>
      </trkpt>
      <trkpt lat="62.634375386672" lon="17.989088521673">
        <ele>90.6</ele>
        <time>2018-03-28T17:59:30Z</time>
      </trkpt>
      <trkpt lat="62.634346301479" lon="17.98912565349">
        <ele>90.8</ele>
        <time>2018-03-28T17:59:31Z</time>
      </trkpt>
      <trkpt lat="62.634316713372" lon="17.989164796963">
        <ele>90.8</ele>
        <time>2018-03-28T17:59:32Z</time>
      </trkpt>
      <trkpt lat="62.634290729482" lon="17.989191367586">
        <ele>90.8</ele>
        <time>2018-03-28T17:59:33Z</time>
      </trkpt>
      <trkpt lat="62.63426910418" lon="17.989251717266">
        <ele>90.8</ele>
        <time>2018-03-28T17:59:34Z</time>
      </trkpt>
      <trkpt lat="62.634243036471" lon="17.989259009519">
        <ele>90.8</ele>
        <time>2018-03-28T17:59:35Z</time>
      </trkpt>
      <trkpt lat="62.634220405341" lon="17.989291950386">
        <ele>90.8</ele>
        <time>2018-03-28T17:59:36Z</time>
      </trkpt>
      <trkpt lat="62.634197941849" lon="17.989326986728">
        <ele>90.8</ele>
        <time>2018-03-28T17:59:37Z</time>
      </trkpt>
      <trkpt lat="62.634180423678" lon="17.989385911485">
        <ele>90.8</ele>
        <time>2018-03-28T17:59:38Z</time>
      </trkpt>
      <trkpt lat="62.634154858883" lon="17.98940057981">
        <ele>91</ele>
        <time>2018-03-28T17:59:39Z</time>
      </trkpt>
      <trkpt lat="62.634142202214" lon="17.989420864008">
        <ele>91</ele>
        <time>2018-03-28T17:59:40Z</time>
      </trkpt>
      <trkpt lat="62.634111775917" lon="17.989446847898">
        <ele>91.2</ele>
        <time>2018-03-28T17:59:41Z</time>
      </trkpt>
      <trkpt lat="62.634089312425" lon="17.989471239227">
        <ele>91.2</ele>
        <time>2018-03-28T17:59:42Z</time>
      </trkpt>
      <trkpt lat="62.634066932752" lon="17.989483979715">
        <ele>91.2</ele>
        <time>2018-03-28T17:59:43Z</time>
      </trkpt>
      <trkpt lat="62.634052599703" lon="17.989520943894">
        <ele>91.2</ele>
        <time>2018-03-28T17:59:44Z</time>
      </trkpt>
      <trkpt lat="62.634027537822" lon="17.989529493432">
        <ele>91.4</ele>
        <time>2018-03-28T17:59:45Z</time>
      </trkpt>
      <trkpt lat="62.63401345623" lon="17.98956318867">
        <ele>91.4</ele>
        <time>2018-03-28T17:59:46Z</time>
      </trkpt>
      <trkpt lat="62.63399417786" lon="17.989566960525">
        <ele>91.6</ele>
        <time>2018-03-28T17:59:47Z</time>
      </trkpt>
      <trkpt lat="62.633972636377" lon="17.989604176161">
        <ele>91.6</ele>
        <time>2018-03-28T17:59:48Z</time>
      </trkpt>
      <trkpt lat="62.633939360234" lon="17.989626220558">
        <ele>92</ele>
        <time>2018-03-28T17:59:49Z</time>
      </trkpt>
      <trkpt lat="62.633913795439" lon="17.98968975536">
        <ele>92.2</ele>
        <time>2018-03-28T17:59:50Z</time>
      </trkpt>
      <trkpt lat="62.633885129341" lon="17.989732083955">
        <ele>92.4</ele>
        <time>2018-03-28T17:59:51Z</time>
      </trkpt>
      <trkpt lat="62.633871634482" lon="17.989769970143">
        <ele>92.4</ele>
        <time>2018-03-28T17:59:52Z</time>
      </trkpt>
      <trkpt lat="62.633855122139" lon="17.989814058937">
        <ele>92.6</ele>
        <time>2018-03-28T17:59:53Z</time>
      </trkpt>
      <trkpt lat="62.633835927588" lon="17.989869882391">
        <ele>92.6</ele>
        <time>2018-03-28T17:59:54Z</time>
      </trkpt>
      <trkpt lat="62.633816649218" lon="17.989918832687">
        <ele>92.6</ele>
        <time>2018-03-28T17:59:55Z</time>
      </trkpt>
      <trkpt lat="62.63379385045" lon="17.989962753843">
        <ele>92.6</ele>
        <time>2018-03-28T17:59:56Z</time>
      </trkpt>
      <trkpt lat="62.633770548768" lon="17.990021427143">
        <ele>92.6</ele>
        <time>2018-03-28T17:59:57Z</time>
      </trkpt>
      <trkpt lat="62.63374775" lon="17.990070377439">
        <ele>92.6</ele>
        <time>2018-03-28T17:59:58Z</time>
      </trkpt>
      <trkpt lat="62.633720425006" lon="17.99012729054">
        <ele>92.6</ele>
        <time>2018-03-28T17:59:59Z</time>
      </trkpt>
      <trkpt lat="62.633692345641" lon="17.990168529488">
        <ele>92.6</ele>
        <time>2018-03-28T18:00:00Z</time>
      </trkpt>
      <trkpt lat="62.633680275705" lon="17.990210858083">
        <ele>92.6</ele>
        <time>2018-03-28T18:00:01Z</time>
      </trkpt>
      <trkpt lat="62.633662422258" lon="17.990238518353">
        <ele>92.6</ele>
        <time>2018-03-28T18:00:02Z</time>
      </trkpt>
      <trkpt lat="62.633641635146" lon="17.990275566351">
        <ele>92.8</ele>
        <time>2018-03-28T18:00:03Z</time>
      </trkpt>
      <trkpt lat="62.633614310152" lon="17.990310435055">
        <ele>92.8</ele>
        <time>2018-03-28T18:00:04Z</time>
      </trkpt>
      <trkpt lat="62.633596121429" lon="17.990348069786">
        <ele>93</ele>
        <time>2018-03-28T18:00:05Z</time>
      </trkpt>
      <trkpt lat="62.633566281865" lon="17.990355948772">
        <ele>93.2</ele>
        <time>2018-03-28T18:00:06Z</time>
      </trkpt>
      <trkpt lat="62.633537196672" lon="17.990367683432">
        <ele>93.4</ele>
        <time>2018-03-28T18:00:07Z</time>
      </trkpt>
      <trkpt lat="62.633505010176" lon="17.990397522996">
        <ele>93.6</ele>
        <time>2018-03-28T18:00:08Z</time>
      </trkpt>
      <trkpt lat="62.633479696838" lon="17.990424428895">
        <ele>93.8</ele>
        <time>2018-03-28T18:00:09Z</time>
      </trkpt>
      <trkpt lat="62.633452204206" lon="17.990447311482">
        <ele>93.8</ele>
        <time>2018-03-28T18:00:10Z</time>
      </trkpt>
      <trkpt lat="62.633417251683" lon="17.990475893761">
        <ele>94</ele>
        <time>2018-03-28T18:00:11Z</time>
      </trkpt>
      <trkpt lat="62.633390178146" lon="17.990507661162">
        <ele>93.8</ele>
        <time>2018-03-28T18:00:12Z</time>
      </trkpt>
      <trkpt lat="62.633351034673" lon="17.990522748582">
        <ele>93.8</ele>
        <time>2018-03-28T18:00:13Z</time>
      </trkpt>
      <trkpt lat="62.633328319724" lon="17.99054722373">
        <ele>93.6</ele>
        <time>2018-03-28T18:00:14Z</time>
      </trkpt>
      <trkpt lat="62.633311304467" lon="17.990561892055">
        <ele>93.6</ele>
        <time>2018-03-28T18:00:15Z</time>
      </trkpt>
      <trkpt lat="62.633285320577" lon="17.990600784071">
        <ele>93.4</ele>
        <time>2018-03-28T18:00:16Z</time>
      </trkpt>
      <trkpt lat="62.63325489428" lon="17.990639759906">
        <ele>93.6</ele>
        <time>2018-03-28T18:00:17Z</time>
      </trkpt>
      <trkpt lat="62.633231760236" lon="17.990687285279">
        <ele>93.4</ele>
        <time>2018-03-28T18:00:18Z</time>
      </trkpt>
      <trkpt lat="62.633214409703" lon="17.990736906127">
        <ele>93.4</ele>
        <time>2018-03-28T18:00:19Z</time>
      </trkpt>
      <trkpt lat="62.633190856564" lon="17.990779653817">
        <ele>93.4</ele>
        <time>2018-03-28T18:00:20Z</time>
      </trkpt>
      <trkpt lat="62.633169231262" lon="17.990834303805">
        <ele>93.4</ele>
        <time>2018-03-28T18:00:21Z</time>
      </trkpt>
      <trkpt lat="62.633149952892" lon="17.990896832779">
        <ele>93.2</ele>
        <time>2018-03-28T18:00:22Z</time>
      </trkpt>
      <trkpt lat="62.633137715318" lon="17.990942095039">
        <ele>93</ele>
        <time>2018-03-28T18:00:23Z</time>
      </trkpt>
      <trkpt lat="62.633122124984" lon="17.991005210746">
        <ele>93.2</ele>
        <time>2018-03-28T18:00:24Z</time>
      </trkpt>
      <trkpt lat="62.633111731428" lon="17.991050724463">
        <ele>93</ele>
        <time>2018-03-28T18:00:25Z</time>
      </trkpt>
      <trkpt lat="62.633100834958" lon="17.991100010035">
        <ele>93.2</ele>
        <time>2018-03-28T18:00:26Z</time>
      </trkpt>
      <trkpt lat="62.63308306533" lon="17.991147619227">
        <ele>93</ele>
        <time>2018-03-28T18:00:27Z</time>
      </trkpt>
      <trkpt lat="62.633075689258" lon="17.991183577578">
        <ele>93</ele>
        <time>2018-03-28T18:00:28Z</time>
      </trkpt>
      <trkpt lat="62.633061356209" lon="17.991223307784">
        <ele>93.2</ele>
        <time>2018-03-28T18:00:29Z</time>
      </trkpt>
      <trkpt lat="62.633043754219" lon="17.991265468741">
        <ele>93.2</ele>
        <time>2018-03-28T18:00:30Z</time>
      </trkpt>
      <trkpt lat="62.633020955451" lon="17.99130913844">
        <ele>93.2</ele>
        <time>2018-03-28T18:00:31Z</time>
      </trkpt>
      <trkpt lat="62.632998911054" lon="17.991361357677">
        <ele>93.2</ele>
        <time>2018-03-28T18:00:32Z</time>
      </trkpt>
      <trkpt lat="62.632974352087" lon="17.991418270778">
        <ele>93.2</ele>
        <time>2018-03-28T18:00:33Z</time>
      </trkpt>
      <trkpt lat="62.632951134224" lon="17.991470238558">
        <ele>93.2</ele>
        <time>2018-03-28T18:00:34Z</time>
      </trkpt>
      <trkpt lat="62.632933532234" lon="17.991536120292">
        <ele>93.2</ele>
        <time>2018-03-28T18:00:35Z</time>
      </trkpt>
      <trkpt lat="62.632913331855" lon="17.991585908778">
        <ele>93.2</ele>
        <time>2018-03-28T18:00:36Z</time>
      </trkpt>
      <trkpt lat="62.632886761232" lon="17.991652461064">
        <ele>93.2</ele>
        <time>2018-03-28T18:00:37Z</time>
      </trkpt>
      <trkpt lat="62.632867734319" lon="17.991708703613">
        <ele>93.2</ele>
        <time>2018-03-28T18:00:38Z</time>
      </trkpt>
      <trkpt lat="62.632845522284" lon="17.991779027754">
        <ele>93.4</ele>
        <time>2018-03-28T18:00:39Z</time>
      </trkpt>
      <trkpt lat="62.632828507027" lon="17.991845496221">
        <ele>93.4</ele>
        <time>2018-03-28T18:00:40Z</time>
      </trkpt>
      <trkpt lat="62.632821885326" lon="17.991930907782">
        <ele>93.4</ele>
        <time>2018-03-28T18:00:41Z</time>
      </trkpt>
      <trkpt lat="62.632833452348" lon="17.992001399561">
        <ele>93.6</ele>
        <time>2018-03-28T18:00:42Z</time>
      </trkpt>
      <trkpt lat="62.632852814537" lon="17.992045739812">
        <ele>93.4</ele>
        <time>2018-03-28T18:00:43Z</time>
      </trkpt>
      <trkpt lat="62.63287519421" lon="17.992073316263">
        <ele>93.6</ele>
        <time>2018-03-28T18:00:44Z</time>
      </trkpt>
      <trkpt lat="62.632891455096" lon="17.992087481674">
        <ele>93.8</ele>
        <time>2018-03-28T18:00:45Z</time>
      </trkpt>
      <trkpt lat="62.632911739294" lon="17.99208781695">
        <ele>93.8</ele>
        <time>2018-03-28T18:00:46Z</time>
      </trkpt>
      <trkpt lat="62.632952726785" lon="17.992102149999">
        <ele>93.8</ele>
        <time>2018-03-28T18:00:47Z</time>
      </trkpt>
      <trkpt lat="62.632988852774" lon="17.992101311809">
        <ele>94</ele>
        <time>2018-03-28T18:00:48Z</time>
      </trkpt>
      <trkpt lat="62.633027493333" lon="17.992104329293">
        <ele>93.8</ele>
        <time>2018-03-28T18:00:49Z</time>
      </trkpt>
      <trkpt lat="62.633054399232" lon="17.992113381745">
        <ele>93.6</ele>
        <time>2018-03-28T18:00:50Z</time>
      </trkpt>
      <trkpt lat="62.633086585728" lon="17.99212888826">
        <ele>93.6</ele>
        <time>2018-03-28T18:00:51Z</time>
      </trkpt>
      <trkpt lat="62.633118436948" lon="17.992147747535">
        <ele>93.8</ele>
        <time>2018-03-28T18:00:52Z</time>
      </trkpt>
      <trkpt lat="62.633144839933" lon="17.992171887407">
        <ele>93.6</ele>
        <time>2018-03-28T18:00:53Z</time>
      </trkpt>
      <trkpt lat="62.633189096365" lon="17.992184879352">
        <ele>93.6</ele>
        <time>2018-03-28T18:00:54Z</time>
      </trkpt>
      <trkpt lat="62.633224970897" lon="17.99219594346">
        <ele>93.6</ele>
        <time>2018-03-28T18:00:55Z</time>
      </trkpt>
      <trkpt lat="62.633261851257" lon="17.99221522183">
        <ele>93.4</ele>
        <time>2018-03-28T18:00:56Z</time>
      </trkpt>
      <trkpt lat="62.633297390513" lon="17.992229722517">
        <ele>93.4</ele>
        <time>2018-03-28T18:00:57Z</time>
      </trkpt>
      <trkpt lat="62.633338042728" lon="17.992245480489">
        <ele>93.4</ele>
        <time>2018-03-28T18:00:58Z</time>
      </trkpt>
      <trkpt lat="62.633361428229" lon="17.992248917068">
        <ele>93.6</ele>
        <time>2018-03-28T18:00:59Z</time>
      </trkpt>
      <trkpt lat="62.633400990797" lon="17.992241540996">
        <ele>93.4</ele>
        <time>2018-03-28T18:01:00Z</time>
      </trkpt>
      <trkpt lat="62.633433344931" lon="17.992251431638">
        <ele>93.6</ele>
        <time>2018-03-28T18:01:01Z</time>
      </trkpt>
      <trkpt lat="62.633466872531" lon="17.992272134931">
        <ele>93.4</ele>
        <time>2018-03-28T18:01:02Z</time>
      </trkpt>
      <trkpt lat="62.633502244149" lon="17.992294933699">
        <ele>93</ele>
        <time>2018-03-28T18:01:03Z</time>
      </trkpt>
      <trkpt lat="62.633541639079" lon="17.992329970041">
        <ele>92.4</ele>
        <time>2018-03-28T18:01:04Z</time>
      </trkpt>
      <trkpt lat="62.633578100344" lon="17.992386044952">
        <ele>92</ele>
        <time>2018-03-28T18:01:05Z</time>
      </trkpt>
      <trkpt lat="62.633611544125" lon="17.992445975537">
        <ele>91.6</ele>
        <time>2018-03-28T18:01:06Z</time>
      </trkpt>
      <trkpt lat="62.633640629318" lon="17.992505654665">
        <ele>91.2</ele>
        <time>2018-03-28T18:01:07Z</time>
      </trkpt>
      <trkpt lat="62.633669043959" lon="17.992551252201">
        <ele>91</ele>
        <time>2018-03-28T18:01:08Z</time>
      </trkpt>
      <trkpt lat="62.633707181604" lon="17.992606908017">
        <ele>90.8</ele>
        <time>2018-03-28T18:01:09Z</time>
      </trkpt>
      <trkpt lat="62.633738194634" lon="17.992659043435">
        <ele>90.6</ele>
        <time>2018-03-28T18:01:10Z</time>
      </trkpt>
      <trkpt lat="62.633782367247" lon="17.992736827467">
        <ele>90.4</ele>
        <time>2018-03-28T18:01:11Z</time>
      </trkpt>
      <trkpt lat="62.633817990322" lon="17.992820981743">
        <ele>90.6</ele>
        <time>2018-03-28T18:01:12Z</time>
      </trkpt>
      <trkpt lat="62.633851182646" lon="17.992901364164">
        <ele>90.8</ele>
        <time>2018-03-28T18:01:13Z</time>
      </trkpt>
      <trkpt lat="62.633897031639" lon="17.992981578947">
        <ele>90.8</ele>
        <time>2018-03-28T18:01:14Z</time>
      </trkpt>
      <trkpt lat="62.633939946967" lon="17.993042180084">
        <ele>90.6</ele>
        <time>2018-03-28T18:01:15Z</time>
      </trkpt>
      <trkpt lat="62.633982107924" lon="17.993096662434">
        <ele>90.8</ele>
        <time>2018-03-28T18:01:16Z</time>
      </trkpt>
      <trkpt lat="62.634032818419" lon="17.99315231825">
        <ele>90.6</ele>
        <time>2018-03-28T18:01:17Z</time>
      </trkpt>
      <trkpt lat="62.634076488118" lon="17.993213254663">
        <ele>90.8</ele>
        <time>2018-03-28T18:01:18Z</time>
      </trkpt>
      <trkpt lat="62.634126025147" lon="17.993276035094">
        <ele>90.8</ele>
        <time>2018-03-28T18:01:19Z</time>
      </trkpt>
      <trkpt lat="62.634173466701" lon="17.993341833009">
        <ele>90.6</ele>
        <time>2018-03-28T18:01:20Z</time>
      </trkpt>
      <trkpt lat="62.634228703422" lon="17.993387346726">
        <ele>89.6</ele>
        <time>2018-03-28T18:01:21Z</time>
      </trkpt>
      <trkpt lat="62.634277653718" lon="17.993436967574">
        <ele>88.4</ele>
        <time>2018-03-28T18:01:22Z</time>
      </trkpt>
      <trkpt lat="62.63432945386" lon="17.993495557055">
        <ele>87.8</ele>
        <time>2018-03-28T18:01:23Z</time>
      </trkpt>
      <trkpt lat="62.634391228463" lon="17.993546183731">
        <ele>86.6</ele>
        <time>2018-03-28T18:01:24Z</time>
      </trkpt>
      <trkpt lat="62.634449147392" lon="17.993593122371">
        <ele>85.6</ele>
        <time>2018-03-28T18:01:25Z</time>
      </trkpt>
      <trkpt lat="62.634509748529" lon="17.993651292757">
        <ele>84.8</ele>
        <time>2018-03-28T18:01:26Z</time>
      </trkpt>
      <trkpt lat="62.634577222824" lon="17.993706194202">
        <ele>84.2</ele>
        <time>2018-03-28T18:01:27Z</time>
      </trkpt>
      <trkpt lat="62.634663137299" lon="17.993712145351">
        <ele>83.8</ele>
        <time>2018-03-28T18:01:28Z</time>
      </trkpt>
      <trkpt lat="62.634757014579" lon="17.993728825332">
        <ele>83.4</ele>
        <time>2018-03-28T18:01:29Z</time>
      </trkpt>
      <trkpt lat="62.63484326433" lon="17.993735614671">
        <ele>83</ele>
        <time>2018-03-28T18:01:30Z</time>
      </trkpt>
      <trkpt lat="62.634912917919" lon="17.993739721802">
        <ele>82.8</ele>
        <time>2018-03-28T18:01:31Z</time>
      </trkpt>
      <trkpt lat="62.634987013915" lon="17.993763107303">
        <ele>82.2</ele>
        <time>2018-03-28T18:01:32Z</time>
      </trkpt>
      <trkpt lat="62.635050716355" lon="17.993780709293">
        <ele>81.4</ele>
        <time>2018-03-28T18:01:33Z</time>
      </trkpt>
      <trkpt lat="62.635118442107" lon="17.993807531373">
        <ele>80.6</ele>
        <time>2018-03-28T18:01:34Z</time>
      </trkpt>
      <trkpt lat="62.6351894368" lon="17.993826390648">
        <ele>80.2</ele>
        <time>2018-03-28T18:01:35Z</time>
      </trkpt>
      <trkpt lat="62.635266885556" lon="17.993840304602">
        <ele>79.6</ele>
        <time>2018-03-28T18:01:36Z</time>
      </trkpt>
      <trkpt lat="62.635339221353" lon="17.993844160276">
        <ele>79.4</ele>
        <time>2018-03-28T18:01:37Z</time>
      </trkpt>
      <trkpt lat="62.635403761983" lon="17.993848686502">
        <ele>79</ele>
        <time>2018-03-28T18:01:38Z</time>
      </trkpt>
      <trkpt lat="62.635476181599" lon="17.993854218556">
        <ele>78.6</ele>
        <time>2018-03-28T18:01:39Z</time>
      </trkpt>
      <trkpt lat="62.635540889867" lon="17.993853464185">
        <ele>78.2</ele>
        <time>2018-03-28T18:01:40Z</time>
      </trkpt>
      <trkpt lat="62.63561859008" lon="17.993866372311">
        <ele>77.6</ele>
        <time>2018-03-28T18:01:41Z</time>
      </trkpt>
      <trkpt lat="62.635690339144" lon="17.993883052292">
        <ele>77.2</ele>
        <time>2018-03-28T18:01:42Z</time>
      </trkpt>
      <trkpt lat="62.635753203394" lon="17.993908114173">
        <ele>76.8</ele>
        <time>2018-03-28T18:01:43Z</time>
      </trkpt>
      <trkpt lat="62.635820174775" lon="17.993940133031">
        <ele>76.2</ele>
        <time>2018-03-28T18:01:44Z</time>
      </trkpt>
      <trkpt lat="62.635879183351" lon="17.993960165772">
        <ele>75.6</ele>
        <time>2018-03-28T18:01:45Z</time>
      </trkpt>
      <trkpt lat="62.63593794047" lon="17.993954549899">
        <ele>75.4</ele>
        <time>2018-03-28T18:01:46Z</time>
      </trkpt>
      <trkpt lat="62.636003151652" lon="17.993926219077">
        <ele>75.2</ele>
        <time>2018-03-28T18:01:47Z</time>
      </trkpt>
      <trkpt lat="62.636061824952" lon="17.993892188563">
        <ele>75</ele>
        <time>2018-03-28T18:01:48Z</time>
      </trkpt>
      <trkpt lat="62.636133825473" lon="17.993857319859">
        <ele>74.8</ele>
        <time>2018-03-28T18:01:49Z</time>
      </trkpt>
      <trkpt lat="62.636195683895" lon="17.993815494178">
        <ele>74.4</ele>
        <time>2018-03-28T18:01:50Z</time>
      </trkpt>
      <trkpt lat="62.636252429358" lon="17.993745924408">
        <ele>74</ele>
        <time>2018-03-28T18:01:51Z</time>
      </trkpt>
      <trkpt lat="62.636309007183" lon="17.993666547815">
        <ele>73.6</ele>
        <time>2018-03-28T18:01:52Z</time>
      </trkpt>
      <trkpt lat="62.636363405714" lon="17.993584908109">
        <ele>73.2</ele>
        <time>2018-03-28T18:01:53Z</time>
      </trkpt>
      <trkpt lat="62.63641487058" lon="17.993507459353">
        <ele>72.8</ele>
        <time>2018-03-28T18:01:54Z</time>
      </trkpt>
      <trkpt lat="62.636466335446" lon="17.993424227086">
        <ele>72.2</ele>
        <time>2018-03-28T18:01:55Z</time>
      </trkpt>
      <trkpt lat="62.636538168329" lon="17.99332498539">
        <ele>71.8</ele>
        <time>2018-03-28T18:01:56Z</time>
      </trkpt>
      <trkpt lat="62.636604888253" lon="17.993244435331">
        <ele>71.2</ele>
        <time>2018-03-28T18:01:57Z</time>
      </trkpt>
      <trkpt lat="62.636666495218" lon="17.993176122846">
        <ele>70.2</ele>
        <time>2018-03-28T18:01:58Z</time>
      </trkpt>
      <trkpt lat="62.636734640065" lon="17.993064811214">
        <ele>69.2</ele>
        <time>2018-03-28T18:01:59Z</time>
      </trkpt>
      <trkpt lat="62.636782165438" lon="17.992954086315">
        <ele>68.6</ele>
        <time>2018-03-28T18:02:00Z</time>
      </trkpt>
      <trkpt lat="62.636823488205" lon="17.992835817706">
        <ele>67.8</ele>
        <time>2018-03-28T18:02:01Z</time>
      </trkpt>
      <trkpt lat="62.636853746864" lon="17.99272484135">
        <ele>67.4</ele>
        <time>2018-03-28T18:02:02Z</time>
      </trkpt>
      <trkpt lat="62.636874450157" lon="17.992634903563">
        <ele>67.2</ele>
        <time>2018-03-28T18:02:03Z</time>
      </trkpt>
      <trkpt lat="62.636891213957" lon="17.992532476745">
        <ele>67.2</ele>
        <time>2018-03-28T18:02:04Z</time>
      </trkpt>
      <trkpt lat="62.636897919477" lon="17.992430133746">
        <ele>67.4</ele>
        <time>2018-03-28T18:02:05Z</time>
      </trkpt>
      <trkpt lat="62.636898673848" lon="17.992339106312">
        <ele>67.4</ele>
        <time>2018-03-28T18:02:06Z</time>
      </trkpt>
      <trkpt lat="62.636930860344" lon="17.992200804962">
        <ele>67.6</ele>
        <time>2018-03-28T18:02:07Z</time>
      </trkpt>
      <trkpt lat="62.636951982732" lon="17.992119416713">
        <ele>67.8</ele>
        <time>2018-03-28T18:02:08Z</time>
      </trkpt>
      <trkpt lat="62.636970422912" lon="17.992036938817">
        <ele>68.2</ele>
        <time>2018-03-28T18:02:09Z</time>
      </trkpt>
      <trkpt lat="62.636985510332" lon="17.99195873569">
        <ele>68.4</ele>
        <time>2018-03-28T18:02:10Z</time>
      </trkpt>
      <trkpt lat="62.637011242765" lon="17.991858320528">
        <ele>68.8</ele>
        <time>2018-03-28T18:02:11Z</time>
      </trkpt>
      <trkpt lat="62.6370418367" lon="17.991780955591">
        <ele>69</ele>
        <time>2018-03-28T18:02:12Z</time>
      </trkpt>
      <trkpt lat="62.637068407323" lon="17.991721695558">
        <ele>69</ele>
        <time>2018-03-28T18:02:13Z</time>
      </trkpt>
      <trkpt lat="62.637095229403" lon="17.991653718349">
        <ele>69</ele>
        <time>2018-03-28T18:02:14Z</time>
      </trkpt>
      <trkpt lat="62.637115178325" lon="17.99159412304">
        <ele>69</ele>
        <time>2018-03-28T18:02:15Z</time>
      </trkpt>
      <trkpt lat="62.637125236605" lon="17.991526648745">
        <ele>69</ele>
        <time>2018-03-28T18:02:16Z</time>
      </trkpt>
      <trkpt lat="62.637155243807" lon="17.991459258269">
        <ele>69.2</ele>
        <time>2018-03-28T18:02:17Z</time>
      </trkpt>
      <trkpt lat="62.637165553544" lon="17.99139379563">
        <ele>69.4</ele>
        <time>2018-03-28T18:02:18Z</time>
      </trkpt>
      <trkpt lat="62.637185334828" lon="17.991322717118">
        <ele>69.6</ele>
        <time>2018-03-28T18:02:19Z</time>
      </trkpt>
      <trkpt lat="62.63720696013" lon="17.991267145121">
        <ele>69.6</ele>
        <time>2018-03-28T18:02:20Z</time>
      </trkpt>
      <trkpt lat="62.637239146626" lon="17.991205286699">
        <ele>69.8</ele>
        <time>2018-03-28T18:02:21Z</time>
      </trkpt>
      <trkpt lat="62.637263286498" lon="17.991120378052">
        <ele>69.8</ele>
        <time>2018-03-28T18:02:22Z</time>
      </trkpt>
      <trkpt lat="62.637288348379" lon="17.991026500772">
        <ele>69.8</ele>
        <time>2018-03-28T18:02:23Z</time>
      </trkpt>
      <trkpt lat="62.637312236794" lon="17.99093195294">
        <ele>69.8</ele>
        <time>2018-03-28T18:02:24Z</time>
      </trkpt>
      <trkpt lat="62.637332185716" lon="17.990840925506">
        <ele>69.6</ele>
        <time>2018-03-28T18:02:25Z</time>
      </trkpt>
      <trkpt lat="62.637332269535" lon="17.990758363791">
        <ele>69.4</ele>
        <time>2018-03-28T18:02:26Z</time>
      </trkpt>
      <trkpt lat="62.637342160177" lon="17.990650237281">
        <ele>69.4</ele>
        <time>2018-03-28T18:02:27Z</time>
      </trkpt>
      <trkpt lat="62.637349033335" lon="17.990560299494">
        <ele>69.2</ele>
        <time>2018-03-28T18:02:28Z</time>
      </trkpt>
      <trkpt lat="62.63735364338" lon="17.990457956495">
        <ele>69</ele>
        <time>2018-03-28T18:02:29Z</time>
      </trkpt>
      <trkpt lat="62.637363114927" lon="17.990349494709">
        <ele>69</ele>
        <time>2018-03-28T18:02:30Z</time>
      </trkpt>
      <trkpt lat="62.637376525967" lon="17.990239775638">
        <ele>68.8</ele>
        <time>2018-03-28T18:02:31Z</time>
      </trkpt>
      <trkpt lat="62.637389937007" lon="17.990151514231">
        <ele>68.6</ele>
        <time>2018-03-28T18:02:32Z</time>
      </trkpt>
      <trkpt lat="62.637404856789" lon="17.990066018851">
        <ele>68.4</ele>
        <time>2018-03-28T18:02:33Z</time>
      </trkpt>
      <trkpt lat="62.637421285313" lon="17.990004244248">
        <ele>68.2</ele>
        <time>2018-03-28T18:02:34Z</time>
      </trkpt>
      <trkpt lat="62.637450202868" lon="17.98989008277">
        <ele>68.2</ele>
        <time>2018-03-28T18:02:35Z</time>
      </trkpt>
      <trkpt lat="62.637473253093" lon="17.98982973309">
        <ele>68.2</ele>
        <time>2018-03-28T18:02:36Z</time>
      </trkpt>
      <trkpt lat="62.637493285834" lon="17.989756726741">
        <ele>68.4</ele>
        <time>2018-03-28T18:02:37Z</time>
      </trkpt>
      <trkpt lat="62.637516000783" lon="17.989685061496">
        <ele>68.6</ele>
        <time>2018-03-28T18:02:38Z</time>
      </trkpt>
      <trkpt lat="62.637560173396" lon="17.989602667419">
        <ele>69</ele>
        <time>2018-03-28T18:02:39Z</time>
      </trkpt>
      <trkpt lat="62.637585319096" lon="17.989519099876">
        <ele>69</ele>
        <time>2018-03-28T18:02:40Z</time>
      </trkpt>
      <trkpt lat="62.637614069013" lon="17.989442824586">
        <ele>69</ele>
        <time>2018-03-28T18:02:41Z</time>
      </trkpt>
      <trkpt lat="62.637651871382" lon="17.989349701677">
        <ele>68.8</ele>
        <time>2018-03-28T18:02:42Z</time>
      </trkpt>
      <trkpt lat="62.637691098674" lon="17.989255489121">
        <ele>68.8</ele>
        <time>2018-03-28T18:02:43Z</time>
      </trkpt>
      <trkpt lat="62.637734600735" lon="17.989140824729">
        <ele>68.8</ele>
        <time>2018-03-28T18:02:44Z</time>
      </trkpt>
      <trkpt lat="62.637770642905" lon="17.989030770382">
        <ele>68.4</ele>
        <time>2018-03-28T18:02:45Z</time>
      </trkpt>
      <trkpt lat="62.637794196044" lon="17.988933456523">
        <ele>68.2</ele>
        <time>2018-03-28T18:02:46Z</time>
      </trkpt>
      <trkpt lat="62.637824119427" lon="17.988829018049">
        <ele>67.8</ele>
        <time>2018-03-28T18:02:47Z</time>
      </trkpt>
      <trkpt lat="62.637838703933" lon="17.988754586777">
        <ele>67.4</ele>
        <time>2018-03-28T18:02:48Z</time>
      </trkpt>
      <trkpt lat="62.637856641199" lon="17.988645789715">
        <ele>67</ele>
        <time>2018-03-28T18:02:49Z</time>
      </trkpt>
      <trkpt lat="62.637871141886" lon="17.988551409521">
        <ele>66.6</ele>
        <time>2018-03-28T18:02:50Z</time>
      </trkpt>
      <trkpt lat="62.637870387515" lon="17.988450575264">
        <ele>66.6</ele>
        <time>2018-03-28T18:02:51Z</time>
      </trkpt>
      <trkpt lat="62.637872650628" lon="17.988353261405">
        <ele>66.6</ele>
        <time>2018-03-28T18:02:52Z</time>
      </trkpt>
      <trkpt lat="62.637904166572" lon="17.988255863727">
        <ele>66.8</ele>
        <time>2018-03-28T18:02:53Z</time>
      </trkpt>
      <trkpt lat="62.637925372779" lon="17.988141283154">
        <ele>66.8</ele>
        <time>2018-03-28T18:02:54Z</time>
      </trkpt>
      <trkpt lat="62.637950769936" lon="17.988038101965">
        <ele>66.4</ele>
        <time>2018-03-28T18:02:55Z</time>
      </trkpt>
      <trkpt lat="62.637983459346" lon="17.987885802842">
        <ele>66.2</ele>
        <time>2018-03-28T18:02:56Z</time>
      </trkpt>
      <trkpt lat="62.638013382729" lon="17.987748842596">
        <ele>65.2</ele>
        <time>2018-03-28T18:02:57Z</time>
      </trkpt>
      <trkpt lat="62.638036684411" lon="17.987650355271">
        <ele>64.6</ele>
        <time>2018-03-28T18:02:58Z</time>
      </trkpt>
      <trkpt lat="62.638065518147" lon="17.987521609287">
        <ele>63.8</ele>
        <time>2018-03-28T18:02:59Z</time>
      </trkpt>
      <trkpt lat="62.638092004951" lon="17.987411471121">
        <ele>63.2</ele>
        <time>2018-03-28T18:03:00Z</time>
      </trkpt>
      <trkpt lat="62.638118994669" lon="17.987305188629">
        <ele>62.4</ele>
        <time>2018-03-28T18:03:01Z</time>
      </trkpt>
      <trkpt lat="62.638147660767" lon="17.987195637196">
        <ele>62.4</ele>
        <time>2018-03-28T18:03:02Z</time>
      </trkpt>
      <trkpt lat="62.638175740132" lon="17.987087929781">
        <ele>62.2</ele>
        <time>2018-03-28T18:03:03Z</time>
      </trkpt>
      <trkpt lat="62.638196191968" lon="17.986967230421">
        <ele>62</ele>
        <time>2018-03-28T18:03:04Z</time>
      </trkpt>
      <trkpt lat="62.638209351551" lon="17.986867737268">
        <ele>61.8</ele>
        <time>2018-03-28T18:03:05Z</time>
      </trkpt>
      <trkpt lat="62.638211782302" lon="17.98682985108">
        <ele>61.6</ele>
        <time>2018-03-28T18:03:06Z</time>
      </trkpt>
      <trkpt lat="62.638198874176" lon="17.986725831701">
        <ele>61.4</ele>
        <time>2018-03-28T18:03:07Z</time>
      </trkpt>
      <trkpt lat="62.638184708765" lon="17.986627595833">
        <ele>61.6</ele>
        <time>2018-03-28T18:03:08Z</time>
      </trkpt>
      <trkpt lat="62.638168615517" lon="17.986529862879">
        <ele>61.6</ele>
        <time>2018-03-28T18:03:09Z</time>
      </trkpt>
      <trkpt lat="62.638168447879" lon="17.986433638667">
        <ele>61.8</ele>
        <time>2018-03-28T18:03:10Z</time>
      </trkpt>
      <trkpt lat="62.638169537526" lon="17.986326685623">
        <ele>62</ele>
        <time>2018-03-28T18:03:11Z</time>
      </trkpt>
      <trkpt lat="62.638171633001" lon="17.986235155275">
        <ele>62.2</ele>
        <time>2018-03-28T18:03:12Z</time>
      </trkpt>
      <trkpt lat="62.638175572494" lon="17.986154102302">
        <ele>62</ele>
        <time>2018-03-28T18:03:13Z</time>
      </trkpt>
      <trkpt lat="62.638187558611" lon="17.986079503392">
        <ele>61.8</ele>
        <time>2018-03-28T18:03:14Z</time>
      </trkpt>
      <trkpt lat="62.638204070954" lon="17.986010352717">
        <ele>61.8</ele>
        <time>2018-03-28T18:03:15Z</time>
      </trkpt>
      <trkpt lat="62.63821614089" lon="17.985941202042">
        <ele>61.6</ele>
        <time>2018-03-28T18:03:16Z</time>
      </trkpt>
      <trkpt lat="62.63823122831" lon="17.985878756887">
        <ele>61.6</ele>
        <time>2018-03-28T18:03:17Z</time>
      </trkpt>
      <trkpt lat="62.638241454228" lon="17.985834416636">
        <ele>61.8</ele>
        <time>2018-03-28T18:03:18Z</time>
      </trkpt>
      <trkpt lat="62.638252099241" lon="17.985793764421">
        <ele>61.8</ele>
        <time>2018-03-28T18:03:19Z</time>
      </trkpt>
      <trkpt lat="62.638258134209" lon="17.985763002848">
        <ele>61.8</ele>
        <time>2018-03-28T18:03:20Z</time>
      </trkpt>
      <trkpt lat="62.638263750082" lon="17.985742383374">
        <ele>62</ele>
        <time>2018-03-28T18:03:21Z</time>
      </trkpt>
      <trkpt lat="62.638268024851" lon="17.985718830235">
        <ele>62</ele>
        <time>2018-03-28T18:03:22Z</time>
      </trkpt>
      <trkpt lat="62.638273473086" lon="17.985695193277">
        <ele>62.2</ele>
        <time>2018-03-28T18:03:23Z</time>
      </trkpt>
      <trkpt lat="62.638284118099" lon="17.985673232699">
        <ele>62.2</ele>
        <time>2018-03-28T18:03:24Z</time>
      </trkpt>
      <trkpt lat="62.638292248542" lon="17.985647584085">
        <ele>62.2</ele>
        <time>2018-03-28T18:03:25Z</time>
      </trkpt>
      <trkpt lat="62.638305408125" lon="17.98561363739">
        <ele>62.2</ele>
        <time>2018-03-28T18:03:26Z</time>
      </trkpt>
      <trkpt lat="62.638316053138" lon="17.985589581337">
        <ele>62.2</ele>
        <time>2018-03-28T18:03:27Z</time>
      </trkpt>
      <trkpt lat="62.638326362875" lon="17.985555047909">
        <ele>62.2</ele>
        <time>2018-03-28T18:03:28Z</time>
      </trkpt>
      <trkpt lat="62.638332314024" lon="17.985525459802">
        <ele>62.2</ele>
        <time>2018-03-28T18:03:29Z</time>
      </trkpt>
      <trkpt lat="62.63835025129" lon="17.985496374609">
        <ele>62.2</ele>
        <time>2018-03-28T18:03:30Z</time>
      </trkpt>
      <trkpt lat="62.63836114776" lon="17.985465948312">
        <ele>62.2</ele>
        <time>2018-03-28T18:03:31Z</time>
      </trkpt>
      <trkpt lat="62.638376402818" lon="17.985429654685">
        <ele>62.2</ele>
        <time>2018-03-28T18:03:32Z</time>
      </trkpt>
      <trkpt lat="62.638392412247" lon="17.985379614742">
        <ele>62</ele>
        <time>2018-03-28T18:03:33Z</time>
      </trkpt>
      <trkpt lat="62.638417893223" lon="17.985324378021">
        <ele>61.8</ele>
        <time>2018-03-28T18:03:34Z</time>
      </trkpt>
      <trkpt lat="62.638442200733" lon="17.985259250658">
        <ele>61.8</ele>
        <time>2018-03-28T18:03:35Z</time>
      </trkpt>
      <trkpt lat="62.638464496587" lon="17.985187585413">
        <ele>62</ele>
        <time>2018-03-28T18:03:36Z</time>
      </trkpt>
      <trkpt lat="62.638501460766" lon="17.985113824693">
        <ele>62</ele>
        <time>2018-03-28T18:03:37Z</time>
      </trkpt>
      <trkpt lat="62.638543454085" lon="17.98503863905">
        <ele>61.8</ele>
        <time>2018-03-28T18:03:38Z</time>
      </trkpt>
      <trkpt lat="62.638589554535" lon="17.984954568593">
        <ele>61.6</ele>
        <time>2018-03-28T18:03:39Z</time>
      </trkpt>
      <trkpt lat="62.638617717719" lon="17.984877036018">
        <ele>61.2</ele>
        <time>2018-03-28T18:03:40Z</time>
      </trkpt>
      <trkpt lat="62.638661890332" lon="17.984789948077">
        <ele>60.8</ele>
        <time>2018-03-28T18:03:41Z</time>
      </trkpt>
      <trkpt lat="62.638705140936" lon="17.984715516805">
        <ele>60.2</ele>
        <time>2018-03-28T18:03:42Z</time>
      </trkpt>
      <trkpt lat="62.638759623286" lon="17.984647958691">
        <ele>60.2</ele>
        <time>2018-03-28T18:03:43Z</time>
      </trkpt>
      <trkpt lat="62.638800024044" lon="17.984562798587">
        <ele>60</ele>
        <time>2018-03-28T18:03:44Z</time>
      </trkpt>
      <trkpt lat="62.638823074269" lon="17.984477638483">
        <ele>59.6</ele>
        <time>2018-03-28T18:03:45Z</time>
      </trkpt>
      <trkpt lat="62.6388439452" lon="17.984372697095">
        <ele>59.2</ele>
        <time>2018-03-28T18:03:46Z</time>
      </trkpt>
      <trkpt lat="62.638856434231" lon="17.984241687998">
        <ele>58.8</ele>
        <time>2018-03-28T18:03:47Z</time>
      </trkpt>
      <trkpt lat="62.638859451715" lon="17.984112187643">
        <ele>58</ele>
        <time>2018-03-28T18:03:48Z</time>
      </trkpt>
      <trkpt lat="62.63886322357" lon="17.983981178546">
        <ele>57.4</ele>
        <time>2018-03-28T18:03:49Z</time>
      </trkpt>
      <trkpt lat="62.638862469199" lon="17.983865005412">
        <ele>57.2</ele>
        <time>2018-03-28T18:03:50Z</time>
      </trkpt>
      <trkpt lat="62.6388523271" lon="17.983747407355">
        <ele>57.6</ele>
        <time>2018-03-28T18:03:51Z</time>
      </trkpt>
      <trkpt lat="62.638848219969" lon="17.983630060755">
        <ele>57.6</ele>
        <time>2018-03-28T18:03:52Z</time>
      </trkpt>
      <trkpt lat="62.638837994051" lon="17.98354079352">
        <ele>57.8</ele>
        <time>2018-03-28T18:03:53Z</time>
      </trkpt>
      <trkpt lat="62.63882969597" lon="17.983448341163">
        <ele>58</ele>
        <time>2018-03-28T18:03:54Z</time>
      </trkpt>
      <trkpt lat="62.638832042902" lon="17.983358822471">
        <ele>58.2</ele>
        <time>2018-03-28T18:03:55Z</time>
      </trkpt>
      <trkpt lat="62.638838161689" lon="17.98326754358">
        <ele>58</ele>
        <time>2018-03-28T18:03:56Z</time>
      </trkpt>
      <trkpt lat="62.638844615752" lon="17.983208367366">
        <ele>58</ele>
        <time>2018-03-28T18:03:57Z</time>
      </trkpt>
      <trkpt lat="62.638845873037" lon="17.98313259499">
        <ele>58</ele>
        <time>2018-03-28T18:03:58Z</time>
      </trkpt>
      <trkpt lat="62.638853500566" lon="17.983018349693">
        <ele>58</ele>
        <time>2018-03-28T18:03:59Z</time>
      </trkpt>
      <trkpt lat="62.638860792819" lon="17.982939140738">
        <ele>58</ele>
        <time>2018-03-28T18:04:00Z</time>
      </trkpt>
      <trkpt lat="62.638859451715" lon="17.982870325339">
        <ele>58</ele>
        <time>2018-03-28T18:04:01Z</time>
      </trkpt>
      <trkpt lat="62.638861128095" lon="17.982775106955">
        <ele>57.8</ele>
        <time>2018-03-28T18:04:02Z</time>
      </trkpt>
      <trkpt lat="62.638852410919" lon="17.982676535811">
        <ele>58</ele>
        <time>2018-03-28T18:04:03Z</time>
      </trkpt>
      <trkpt lat="62.638847884693" lon="17.982583496721">
        <ele>58</ele>
        <time>2018-03-28T18:04:04Z</time>
      </trkpt>
      <trkpt lat="62.638860625181" lon="17.982513088761">
        <ele>58.4</ele>
        <time>2018-03-28T18:04:05Z</time>
      </trkpt>
      <trkpt lat="62.638871940746" lon="17.982424575897">
        <ele>58.6</ele>
        <time>2018-03-28T18:04:06Z</time>
      </trkpt>
      <trkpt lat="62.638890129469" lon="17.982335895395">
        <ele>58.4</ele>
        <time>2018-03-28T18:04:07Z</time>
      </trkpt>
      <trkpt lat="62.638903289052" lon="17.982263894874">
        <ele>58.6</ele>
        <time>2018-03-28T18:04:08Z</time>
      </trkpt>
      <trkpt lat="62.638914939893" lon="17.982185943204">
        <ele>58.6</ele>
        <time>2018-03-28T18:04:09Z</time>
      </trkpt>
      <trkpt lat="62.638934385901" lon="17.982092736476">
        <ele>58.4</ele>
        <time>2018-03-28T18:04:10Z</time>
      </trkpt>
      <trkpt lat="62.638968081139" lon="17.981995925531">
        <ele>58.4</ele>
        <time>2018-03-28T18:04:11Z</time>
      </trkpt>
      <trkpt lat="62.638980402532" lon="17.981923841191">
        <ele>58</ele>
        <time>2018-03-28T18:04:12Z</time>
      </trkpt>
      <trkpt lat="62.639011415562" lon="17.981835579784">
        <ele>58.2</ele>
        <time>2018-03-28T18:04:13Z</time>
      </trkpt>
      <trkpt lat="62.639046619542" lon="17.981739104115">
        <ele>58</ele>
        <time>2018-03-28T18:04:14Z</time>
      </trkpt>
      <trkpt lat="62.639073776898" lon="17.981647741405">
        <ele>57.8</ele>
        <time>2018-03-28T18:04:15Z</time>
      </trkpt>
      <trkpt lat="62.639087439395" lon="17.981546571872">
        <ele>57.6</ele>
        <time>2018-03-28T18:04:16Z</time>
      </trkpt>
      <trkpt lat="62.639116189312" lon="17.981444061235">
        <ele>57.6</ele>
        <time>2018-03-28T18:04:17Z</time>
      </trkpt>
      <trkpt lat="62.639149968369" lon="17.981354039629">
        <ele>57.2</ele>
        <time>2018-03-28T18:04:18Z</time>
      </trkpt>
      <trkpt lat="62.639190704403" lon="17.981266113498">
        <ele>56.8</ele>
        <time>2018-03-28T18:04:19Z</time>
      </trkpt>
      <trkpt lat="62.63923035079" lon="17.981187910371">
        <ele>56.4</ele>
        <time>2018-03-28T18:04:20Z</time>
      </trkpt>
      <trkpt lat="62.639267398788" lon="17.981101325344">
        <ele>56</ele>
        <time>2018-03-28T18:04:21Z</time>
      </trkpt>
      <trkpt lat="62.63930327332" lon="17.9810111361">
        <ele>55.4</ele>
        <time>2018-03-28T18:04:22Z</time>
      </trkpt>
      <trkpt lat="62.639342081517" lon="17.980931843326">
        <ele>55.2</ele>
        <time>2018-03-28T18:04:23Z</time>
      </trkpt>
      <trkpt lat="62.639383823379" lon="17.980845677394">
        <ele>55</ele>
        <time>2018-03-28T18:04:24Z</time>
      </trkpt>
      <trkpt lat="62.639417770074" lon="17.980752470666">
        <ele>54.8</ele>
        <time>2018-03-28T18:04:25Z</time>
      </trkpt>
      <trkpt lat="62.639454482796" lon="17.980648535106">
        <ele>54.6</ele>
        <time>2018-03-28T18:04:26Z</time>
      </trkpt>
      <trkpt lat="62.639479125582" lon="17.9805333678">
        <ele>54.8</ele>
        <time>2018-03-28T18:04:27Z</time>
      </trkpt>
      <trkpt lat="62.639501672893" lon="17.980433874647">
        <ele>54.8</ele>
        <time>2018-03-28T18:04:28Z</time>
      </trkpt>
      <trkpt lat="62.639524806937" lon="17.980310995993">
        <ele>54.6</ele>
        <time>2018-03-28T18:04:29Z</time>
      </trkpt>
      <trkpt lat="62.639551042284" lon="17.980193649393">
        <ele>54.4</ele>
        <time>2018-03-28T18:04:30Z</time>
      </trkpt>
      <trkpt lat="62.639569063369" lon="17.980077476259">
        <ele>54.2</ele>
        <time>2018-03-28T18:04:31Z</time>
      </trkpt>
      <trkpt lat="62.639584318427" lon="17.97995836946">
        <ele>53.8</ele>
        <time>2018-03-28T18:04:32Z</time>
      </trkpt>
      <trkpt lat="62.639592197413" lon="17.979860385049">
        <ele>53.4</ele>
        <time>2018-03-28T18:04:33Z</time>
      </trkpt>
      <trkpt lat="62.639610721412" lon="17.979766675407">
        <ele>53.2</ele>
        <time>2018-03-28T18:04:34Z</time>
      </trkpt>
      <trkpt lat="62.639633939275" lon="17.979673720136">
        <ele>53.2</ele>
        <time>2018-03-28T18:04:35Z</time>
      </trkpt>
      <trkpt lat="62.639640058062" lon="17.979611777895">
        <ele>53.2</ele>
        <time>2018-03-28T18:04:36Z</time>
      </trkpt>
      <trkpt lat="62.639674842947" lon="17.979533658587">
        <ele>53.4</ele>
        <time>2018-03-28T18:04:37Z</time>
      </trkpt>
      <trkpt lat="62.639704179597" lon="17.979462077161">
        <ele>53.4</ele>
        <time>2018-03-28T18:04:38Z</time>
      </trkpt>
      <trkpt lat="62.639718512646" lon="17.979399799644">
        <ele>53.8</ele>
        <time>2018-03-28T18:04:39Z</time>
      </trkpt>
      <trkpt lat="62.639740389405" lon="17.979332744444">
        <ele>53.8</ele>
        <time>2018-03-28T18:04:40Z</time>
      </trkpt>
      <trkpt lat="62.639775090471" lon="17.979220678441">
        <ele>53.6</ele>
        <time>2018-03-28T18:04:41Z</time>
      </trkpt>
      <trkpt lat="62.63981121646" lon="17.979131159749">
        <ele>53.6</ele>
        <time>2018-03-28T18:04:42Z</time>
      </trkpt>
      <trkpt lat="62.639842564766" lon="17.979058656314">
        <ele>53.4</ele>
        <time>2018-03-28T18:04:43Z</time>
      </trkpt>
      <trkpt lat="62.639880199497" lon="17.978967964156">
        <ele>53</ele>
        <time>2018-03-28T18:04:44Z</time>
      </trkpt>
      <trkpt lat="62.639920348798" lon="17.978898813481">
        <ele>52.6</ele>
        <time>2018-03-28T18:04:45Z</time>
      </trkpt>
      <trkpt lat="62.639960498099" lon="17.97883854762">
        <ele>52.4</ele>
        <time>2018-03-28T18:04:46Z</time>
      </trkpt>
      <trkpt lat="62.640005592721" lon="17.978780796329">
        <ele>52</ele>
        <time>2018-03-28T18:04:47Z</time>
      </trkpt>
      <trkpt lat="62.640056219397" lon="17.978714579319">
        <ele>51.6</ele>
        <time>2018-03-28T18:04:48Z</time>
      </trkpt>
      <trkpt lat="62.640110785566" lon="17.978650206327">
        <ele>51.6</ele>
        <time>2018-03-28T18:04:49Z</time>
      </trkpt>
      <trkpt lat="62.640160657871" lon="17.978590946294">
        <ele>51.4</ele>
        <time>2018-03-28T18:04:50Z</time>
      </trkpt>
      <trkpt lat="62.64020851852" lon="17.978520789791">
        <ele>51.2</ele>
        <time>2018-03-28T18:04:51Z</time>
      </trkpt>
      <trkpt lat="62.640257804092" lon="17.978465888346">
        <ele>51</ele>
        <time>2018-03-28T18:04:52Z</time>
      </trkpt>
      <trkpt lat="62.640296277013" lon="17.978400677164">
        <ele>50.8</ele>
        <time>2018-03-28T18:04:53Z</time>
      </trkpt>
      <trkpt lat="62.640349250621" lon="17.978325742978">
        <ele>50.4</ele>
        <time>2018-03-28T18:04:54Z</time>
      </trkpt>
      <trkpt lat="62.640389651379" lon="17.978268913696">
        <ele>50.2</ele>
        <time>2018-03-28T18:04:55Z</time>
      </trkpt>
      <trkpt lat="62.640440194236" lon="17.978205378894">
        <ele>49.8</ele>
        <time>2018-03-28T18:04:56Z</time>
      </trkpt>
      <trkpt lat="62.640487300514" lon="17.978143604291">
        <ele>49.4</ele>
        <time>2018-03-28T18:04:57Z</time>
      </trkpt>
      <trkpt lat="62.640533149507" lon="17.978082835516">
        <ele>49.4</ele>
        <time>2018-03-28T18:04:58Z</time>
      </trkpt>
      <trkpt lat="62.640579417595" lon="17.978034639591">
        <ele>49</ele>
        <time>2018-03-28T18:04:59Z</time>
      </trkpt>
      <trkpt lat="62.640632558841" lon="17.977949898582">
        <ele>49</ele>
        <time>2018-03-28T18:05:00Z</time>
      </trkpt>
      <trkpt lat="62.640673881608" lon="17.97787127636">
        <ele>48.6</ele>
        <time>2018-03-28T18:05:01Z</time>
      </trkpt>
      <trkpt lat="62.640719479144" lon="17.977793408509">
        <ele>48.4</ele>
        <time>2018-03-28T18:05:02Z</time>
      </trkpt>
      <trkpt lat="62.64076088573" lon="17.977717636133">
        <ele>48</ele>
        <time>2018-03-28T18:05:03Z</time>
      </trkpt>
      <trkpt lat="62.640802543773" lon="17.977627782165">
        <ele>47.8</ele>
        <time>2018-03-28T18:05:04Z</time>
      </trkpt>
      <trkpt lat="62.64084889568" lon="17.977539520758">
        <ele>47.2</ele>
        <time>2018-03-28T18:05:05Z</time>
      </trkpt>
      <trkpt lat="62.640892062465" lon="17.977450924075">
        <ele>46.8</ele>
        <time>2018-03-28T18:05:06Z</time>
      </trkpt>
      <trkpt lat="62.640934977793" lon="17.977363919953">
        <ele>46.4</ele>
        <time>2018-03-28T18:05:07Z</time>
      </trkpt>
      <trkpt lat="62.640977725483" lon="17.977278592211">
        <ele>46.2</ele>
        <time>2018-03-28T18:05:08Z</time>
      </trkpt>
      <trkpt lat="62.641023825933" lon="17.977181697447">
        <ele>46</ele>
        <time>2018-03-28T18:05:09Z</time>
      </trkpt>
      <trkpt lat="62.641062298854" lon="17.977099638646">
        <ele>45.8</ele>
        <time>2018-03-28T18:05:10Z</time>
      </trkpt>
      <trkpt lat="62.641104878906" lon="17.976997714742">
        <ele>45.6</ele>
        <time>2018-03-28T18:05:11Z</time>
      </trkpt>
      <trkpt lat="62.641148045691" lon="17.97692328347">
        <ele>45.2</ele>
        <time>2018-03-28T18:05:12Z</time>
      </trkpt>
      <trkpt lat="62.641184506956" lon="17.976893024811">
        <ele>44.8</ele>
        <time>2018-03-28T18:05:13Z</time>
      </trkpt>
      <trkpt lat="62.641236307098" lon="17.976840889393">
        <ele>44.4</ele>
        <time>2018-03-28T18:05:14Z</time>
      </trkpt>
      <trkpt lat="62.641289532163" lon="17.976812390933">
        <ele>44</ele>
        <time>2018-03-28T18:05:15Z</time>
      </trkpt>
      <trkpt lat="62.641343763056" lon="17.976789424527">
        <ele>43.6</ele>
        <time>2018-03-28T18:05:16Z</time>
      </trkpt>
      <trkpt lat="62.641403609822" lon="17.976763943551">
        <ele>43</ele>
        <time>2018-03-28T18:05:17Z</time>
      </trkpt>
      <trkpt lat="62.641457840715" lon="17.976744162267">
        <ele>42.8</ele>
        <time>2018-03-28T18:05:18Z</time>
      </trkpt>
      <trkpt lat="62.641517352205" lon="17.976709042106">
        <ele>42.2</ele>
        <time>2018-03-28T18:05:19Z</time>
      </trkpt>
      <trkpt lat="62.641579713541" lon="17.97666595914">
        <ele>41.6</ele>
        <time>2018-03-28T18:05:20Z</time>
      </trkpt>
      <trkpt lat="62.641639644126" lon="17.976619691052">
        <ele>40.8</ele>
        <time>2018-03-28T18:05:21Z</time>
      </trkpt>
      <trkpt lat="62.641696389589" lon="17.976569315833">
        <ele>40.2</ele>
        <time>2018-03-28T18:05:22Z</time>
      </trkpt>
      <trkpt lat="62.641749530835" lon="17.976504775203">
        <ele>39.4</ele>
        <time>2018-03-28T18:05:23Z</time>
      </trkpt>
      <trkpt lat="62.641809377601" lon="17.976430343931">
        <ele>38.8</ele>
        <time>2018-03-28T18:05:24Z</time>
      </trkpt>
      <trkpt lat="62.641864027589" lon="17.976363037274">
        <ele>38.2</ele>
        <time>2018-03-28T18:05:25Z</time>
      </trkpt>
      <trkpt lat="62.64192429345" lon="17.976282654853">
        <ele>37.6</ele>
        <time>2018-03-28T18:05:26Z</time>
      </trkpt>
      <trkpt lat="62.641978021429" lon="17.976206882477">
        <ele>37</ele>
        <time>2018-03-28T18:05:27Z</time>
      </trkpt>
      <trkpt lat="62.64202655263" lon="17.976125578047">
        <ele>36.6</ele>
        <time>2018-03-28T18:05:28Z</time>
      </trkpt>
      <trkpt lat="62.642082376084" lon="17.976035137346">
        <ele>36.2</ele>
        <time>2018-03-28T18:05:29Z</time>
      </trkpt>
      <trkpt lat="62.642138199538" lon="17.975943690817">
        <ele>35.6</ele>
        <time>2018-03-28T18:05:30Z</time>
      </trkpt>
      <trkpt lat="62.642192346612" lon="17.975854004487">
        <ele>35.2</ele>
        <time>2018-03-28T18:05:31Z</time>
      </trkpt>
      <trkpt lat="62.642256300509" lon="17.975761719768">
        <ele>34.8</ele>
        <time>2018-03-28T18:05:32Z</time>
      </trkpt>
      <trkpt lat="62.642318829483" lon="17.975688210505">
        <ele>34.2</ele>
        <time>2018-03-28T18:05:33Z</time>
      </trkpt>
      <trkpt lat="62.642381190819" lon="17.97559810508">
        <ele>33.4</ele>
        <time>2018-03-28T18:05:34Z</time>
      </trkpt>
      <trkpt lat="62.642446150544" lon="17.975483440688">
        <ele>32.8</ele>
        <time>2018-03-28T18:05:35Z</time>
      </trkpt>
      <trkpt lat="62.642492083356" lon="17.975366429364">
        <ele>32.2</ele>
        <time>2018-03-28T18:05:36Z</time>
      </trkpt>
      <trkpt lat="62.642532484114" lon="17.975244807995">
        <ele>31.8</ele>
        <time>2018-03-28T18:05:37Z</time>
      </trkpt>
      <trkpt lat="62.642570286483" lon="17.975115894373">
        <ele>31.6</ele>
        <time>2018-03-28T18:05:38Z</time>
      </trkpt>
      <trkpt lat="62.64261244744" lon="17.974978431213">
        <ele>31</ele>
        <time>2018-03-28T18:05:39Z</time>
      </trkpt>
      <trkpt lat="62.642645891221" lon="17.974879440974">
        <ele>30.6</ele>
        <time>2018-03-28T18:05:40Z</time>
      </trkpt>
      <trkpt lat="62.642690063834" lon="17.974748850972">
        <ele>30</ele>
        <time>2018-03-28T18:05:41Z</time>
      </trkpt>
      <trkpt lat="62.642722501787" lon="17.974630582363">
        <ele>29.6</ele>
        <time>2018-03-28T18:05:42Z</time>
      </trkpt>
      <trkpt lat="62.642746641659" lon="17.974529664287">
        <ele>29</ele>
        <time>2018-03-28T18:05:43Z</time>
      </trkpt>
      <trkpt lat="62.642778911974" lon="17.974381304657">
        <ele>28.6</ele>
        <time>2018-03-28T18:05:44Z</time>
      </trkpt>
      <trkpt lat="62.642801543104" lon="17.974261527306">
        <ele>28.4</ele>
        <time>2018-03-28T18:05:45Z</time>
      </trkpt>
      <trkpt lat="62.642820821474" lon="17.974146611457">
        <ele>28</ele>
        <time>2018-03-28T18:05:46Z</time>
      </trkpt>
      <trkpt lat="62.642836998541" lon="17.974065726122">
        <ele>27.8</ele>
        <time>2018-03-28T18:05:47Z</time>
      </trkpt>
      <trkpt lat="62.642854013798" lon="17.973970675376">
        <ele>27.8</ele>
        <time>2018-03-28T18:05:48Z</time>
      </trkpt>
      <trkpt lat="62.642858791481" lon="17.973850395111">
        <ele>28</ele>
        <time>2018-03-28T18:05:49Z</time>
      </trkpt>
      <trkpt lat="62.642864239716" lon="17.973767665758">
        <ele>28</ele>
        <time>2018-03-28T18:05:50Z</time>
      </trkpt>
      <trkpt lat="62.642888463407" lon="17.973676219229">
        <ele>28</ele>
        <time>2018-03-28T18:05:51Z</time>
      </trkpt>
      <trkpt lat="62.642889301597" lon="17.973569098547">
        <ele>27.8</ele>
        <time>2018-03-28T18:05:52Z</time>
      </trkpt>
      <trkpt lat="62.642889301597" lon="17.973439011459">
        <ele>27.8</ele>
        <time>2018-03-28T18:05:53Z</time>
      </trkpt>
      <trkpt lat="62.642898102592" lon="17.973319988479">
        <ele>27.4</ele>
        <time>2018-03-28T18:05:54Z</time>
      </trkpt>
      <trkpt lat="62.642887122303" lon="17.973233822547">
        <ele>27.2</ele>
        <time>2018-03-28T18:05:55Z</time>
      </trkpt>
      <trkpt lat="62.642878740403" lon="17.973149416814">
        <ele>27.2</ele>
        <time>2018-03-28T18:05:56Z</time>
      </trkpt>
      <trkpt lat="62.642853259427" lon="17.973064424348">
        <ele>27.2</ele>
        <time>2018-03-28T18:05:57Z</time>
      </trkpt>
      <trkpt lat="62.642854097617" lon="17.973006253962">
        <ele>27</ele>
        <time>2018-03-28T18:05:58Z</time>
      </trkpt>
      <trkpt lat="62.642831131211" lon="17.972918160193">
        <ele>26.8</ele>
        <time>2018-03-28T18:05:59Z</time>
      </trkpt>
      <trkpt lat="62.642800956371" lon="17.972838532143">
        <ele>27</ele>
        <time>2018-03-28T18:06:00Z</time>
      </trkpt>
      <trkpt lat="62.642794921403" lon="17.972787821648">
        <ele>27</ele>
        <time>2018-03-28T18:06:01Z</time>
      </trkpt>
      <trkpt lat="62.642783857295" lon="17.972721017905">
        <ele>27.2</ele>
        <time>2018-03-28T18:06:02Z</time>
      </trkpt>
      <trkpt lat="62.642770613893" lon="17.972654465619">
        <ele>27.4</ele>
        <time>2018-03-28T18:06:03Z</time>
      </trkpt>
      <trkpt lat="62.642750581152" lon="17.9725789447">
        <ele>27.8</ele>
        <time>2018-03-28T18:06:04Z</time>
      </trkpt>
      <trkpt lat="62.642733817352" lon="17.972502837048">
        <ele>28</ele>
        <time>2018-03-28T18:06:05Z</time>
      </trkpt>
      <trkpt lat="62.642717472647" lon="17.972424382464">
        <ele>28</ele>
        <time>2018-03-28T18:06:06Z</time>
      </trkpt>
      <trkpt lat="62.642706911453" lon="17.972345508785">
        <ele>28.2</ele>
        <time>2018-03-28T18:06:07Z</time>
      </trkpt>
      <trkpt lat="62.642688974187" lon="17.972275771377">
        <ele>28.2</ele>
        <time>2018-03-28T18:06:08Z</time>
      </trkpt>
      <trkpt lat="62.642675060233" lon="17.972192371472">
        <ele>28.4</ele>
        <time>2018-03-28T18:06:09Z</time>
      </trkpt>
      <trkpt lat="62.642650417447" lon="17.972111905232">
        <ele>28.4</ele>
        <time>2018-03-28T18:06:10Z</time>
      </trkpt>
      <trkpt lat="62.642623176272" lon="17.972019369056">
        <ele>28.4</ele>
        <time>2018-03-28T18:06:11Z</time>
      </trkpt>
      <trkpt lat="62.6426074183" lon="17.971944686327">
        <ele>28.4</ele>
        <time>2018-03-28T18:06:12Z</time>
      </trkpt>
      <trkpt lat="62.642601718608" lon="17.97186815958">
        <ele>28.2</ele>
        <time>2018-03-28T18:06:13Z</time>
      </trkpt>
      <trkpt lat="62.642623260091" lon="17.971805462968">
        <ele>28.4</ele>
        <time>2018-03-28T18:06:14Z</time>
      </trkpt>
      <trkpt lat="62.642649663076" lon="17.97179188429">
        <ele>28.6</ele>
        <time>2018-03-28T18:06:15Z</time>
      </trkpt>
      <trkpt lat="62.642685286151" lon="17.971823148777">
        <ele>28.8</ele>
        <time>2018-03-28T18:06:16Z</time>
      </trkpt>
      <trkpt lat="62.642714203706" lon="17.971882492629">
        <ele>29.2</ele>
        <time>2018-03-28T18:06:17Z</time>
      </trkpt>
      <trkpt lat="62.642734655542" lon="17.97195784591">
        <ele>29.2</ele>
        <time>2018-03-28T18:06:18Z</time>
      </trkpt>
      <trkpt lat="62.642765333296" lon="17.972025487843">
        <ele>29.2</ele>
        <time>2018-03-28T18:06:19Z</time>
      </trkpt>
      <trkpt lat="62.642797519792" lon="17.972093884147">
        <ele>28.8</ele>
        <time>2018-03-28T18:06:20Z</time>
      </trkpt>
      <trkpt lat="62.642823755139" lon="17.97215649694">
        <ele>28.6</ele>
        <time>2018-03-28T18:06:21Z</time>
      </trkpt>
      <trkpt lat="62.642847811192" lon="17.972243333424">
        <ele>28</ele>
        <time>2018-03-28T18:06:22Z</time>
      </trkpt>
      <trkpt lat="62.642877483118" lon="17.97232245856">
        <ele>27.8</ele>
        <time>2018-03-28T18:06:23Z</time>
      </trkpt>
      <trkpt lat="62.642901455352" lon="17.972403343895">
        <ele>27.6</ele>
        <time>2018-03-28T18:06:24Z</time>
      </trkpt>
      <trkpt lat="62.642920817541" lon="17.972488168723">
        <ele>27.4</ele>
        <time>2018-03-28T18:06:25Z</time>
      </trkpt>
      <trkpt lat="62.642945544146" lon="17.972549021317">
        <ele>27.4</ele>
        <time>2018-03-28T18:06:26Z</time>
      </trkpt>
      <trkpt lat="62.642967169448" lon="17.972628062634">
        <ele>27.4</ele>
        <time>2018-03-28T18:06:27Z</time>
      </trkpt>
      <trkpt lat="62.642991225501" lon="17.972701488078">
        <ele>27.4</ele>
        <time>2018-03-28T18:06:28Z</time>
      </trkpt>
      <trkpt lat="62.642993907709" lon="17.972800562136">
        <ele>27.4</ele>
        <time>2018-03-28T18:06:29Z</time>
      </trkpt>
      <trkpt lat="62.643004301265" lon="17.97291086794">
        <ele>27</ele>
        <time>2018-03-28T18:06:30Z</time>
      </trkpt>
      <trkpt lat="62.643012766984" lon="17.973016228423">
        <ele>26.8</ele>
        <time>2018-03-28T18:06:31Z</time>
      </trkpt>
      <trkpt lat="62.64303154244" lon="17.973095521197">
        <ele>26.8</ele>
        <time>2018-03-28T18:06:32Z</time>
      </trkpt>
      <trkpt lat="62.643041265444" lon="17.973177579998">
        <ele>26.8</ele>
        <time>2018-03-28T18:06:33Z</time>
      </trkpt>
      <trkpt lat="62.643043780014" lon="17.973283778671">
        <ele>26.4</ele>
        <time>2018-03-28T18:06:34Z</time>
      </trkpt>
      <trkpt lat="62.643052329552" lon="17.973390983172">
        <ele>26.4</ele>
        <time>2018-03-28T18:06:35Z</time>
      </trkpt>
      <trkpt lat="62.643054257389" lon="17.973479663674">
        <ele>26.4</ele>
        <time>2018-03-28T18:06:36Z</time>
      </trkpt>
      <trkpt lat="62.643049312068" lon="17.973566248701">
        <ele>26.2</ele>
        <time>2018-03-28T18:06:37Z</time>
      </trkpt>
      <trkpt lat="62.643052581009" lon="17.973643194543">
        <ele>26.2</ele>
        <time>2018-03-28T18:06:38Z</time>
      </trkpt>
      <trkpt lat="62.643054760303" lon="17.973729611932">
        <ele>26.2</ele>
        <time>2018-03-28T18:06:39Z</time>
      </trkpt>
      <trkpt lat="62.643055766131" lon="17.973817286606">
        <ele>26</ele>
        <time>2018-03-28T18:06:40Z</time>
      </trkpt>
      <trkpt lat="62.643060543814" lon="17.973920383976">
        <ele>26.2</ele>
        <time>2018-03-28T18:06:41Z</time>
      </trkpt>
      <trkpt lat="62.643069763904" lon="17.974014428894">
        <ele>26</ele>
        <time>2018-03-28T18:06:42Z</time>
      </trkpt>
      <trkpt lat="62.643062639289" lon="17.97411115602">
        <ele>26</ele>
        <time>2018-03-28T18:06:43Z</time>
      </trkpt>
      <trkpt lat="62.643056436683" lon="17.974208218422">
        <ele>26</ele>
        <time>2018-03-28T18:06:44Z</time>
      </trkpt>
      <trkpt lat="62.643056185226" lon="17.974296731286">
        <ele>26</ele>
        <time>2018-03-28T18:06:45Z</time>
      </trkpt>
      <trkpt lat="62.643042774186" lon="17.97438692053">
        <ele>26.2</ele>
        <time>2018-03-28T18:06:46Z</time>
      </trkpt>
      <trkpt lat="62.643034643743" lon="17.974482306552">
        <ele>26.2</ele>
        <time>2018-03-28T18:06:47Z</time>
      </trkpt>
      <trkpt lat="62.643028608775" lon="17.974572579615">
        <ele>26.4</ele>
        <time>2018-03-28T18:06:48Z</time>
      </trkpt>
      <trkpt lat="62.643025172196" lon="17.974668468551">
        <ele>26.2</ele>
        <time>2018-03-28T18:06:49Z</time>
      </trkpt>
      <trkpt lat="62.6430265133" lon="17.974760334175">
        <ele>26.2</ele>
        <time>2018-03-28T18:06:50Z</time>
      </trkpt>
      <trkpt lat="62.64303321882" lon="17.974851613066">
        <ele>26</ele>
        <time>2018-03-28T18:06:51Z</time>
      </trkpt>
      <trkpt lat="62.643024920739" lon="17.974898467887">
        <ele>26</ele>
        <time>2018-03-28T18:06:52Z</time>
      </trkpt>
      <trkpt lat="62.643012347889" lon="17.975055377055">
        <ele>25.8</ele>
        <time>2018-03-28T18:06:53Z</time>
      </trkpt>
      <trkpt lat="62.642994075347" lon="17.975190828559">
        <ele>25.8</ele>
        <time>2018-03-28T18:06:54Z</time>
      </trkpt>
      <trkpt lat="62.6429762219" lon="17.975265008374">
        <ele>25.6</ele>
        <time>2018-03-28T18:06:55Z</time>
      </trkpt>
      <trkpt lat="62.642955434788" lon="17.975359304749">
        <ele>25.6</ele>
        <time>2018-03-28T18:06:56Z</time>
      </trkpt>
      <trkpt lat="62.642941185558" lon="17.975425773216">
        <ele>25.6</ele>
        <time>2018-03-28T18:06:57Z</time>
      </trkpt>
      <trkpt lat="62.642929450898" lon="17.975471957485">
        <ele>25.8</ele>
        <time>2018-03-28T18:06:58Z</time>
      </trkpt>
      <trkpt lat="62.642909921071" lon="17.975543119816">
        <ele>25.8</ele>
        <time>2018-03-28T18:06:59Z</time>
      </trkpt>
      <trkpt lat="62.642901455352" lon="17.975601625478">
        <ele>26</ele>
        <time>2018-03-28T18:07:00Z</time>
      </trkpt>
      <trkpt lat="62.642893324909" lon="17.975660550235">
        <ele>26</ele>
        <time>2018-03-28T18:07:01Z</time>
      </trkpt>
      <trkpt lat="62.642900868619" lon="17.975726683426">
        <ele>26.2</ele>
        <time>2018-03-28T18:07:02Z</time>
      </trkpt>
      <trkpt lat="62.642900114248" lon="17.975788206572">
        <ele>26.2</ele>
        <time>2018-03-28T18:07:03Z</time>
      </trkpt>
      <trkpt lat="62.642900533343" lon="17.975860961464">
        <ele>26.4</ele>
        <time>2018-03-28T18:07:04Z</time>
      </trkpt>
      <trkpt lat="62.642900868619" lon="17.975939751324">
        <ele>26.6</ele>
        <time>2018-03-28T18:07:05Z</time>
      </trkpt>
      <trkpt lat="62.642912687098" lon="17.975996496787">
        <ele>26.6</ele>
        <time>2018-03-28T18:07:06Z</time>
      </trkpt>
      <trkpt lat="62.642913609107" lon="17.976063384349">
        <ele>26.6</ele>
        <time>2018-03-28T18:07:07Z</time>
      </trkpt>
      <trkpt lat="62.642914028202" lon="17.976149466462">
        <ele>26.8</ele>
        <time>2018-03-28T18:07:08Z</time>
      </trkpt>
      <trkpt lat="62.642917716238" lon="17.976234039833">
        <ele>26.6</ele>
        <time>2018-03-28T18:07:09Z</time>
      </trkpt>
      <trkpt lat="62.64291503403" lon="17.976296820264">
        <ele>26.6</ele>
        <time>2018-03-28T18:07:10Z</time>
      </trkpt>
      <trkpt lat="62.642909418157" lon="17.976380806902">
        <ele>26.6</ele>
        <time>2018-03-28T18:07:11Z</time>
      </trkpt>
      <trkpt lat="62.642903969922" lon="17.97644802974">
        <ele>26.6</ele>
        <time>2018-03-28T18:07:12Z</time>
      </trkpt>
      <trkpt lat="62.642902796456" lon="17.976523215383">
        <ele>26.8</ele>
        <time>2018-03-28T18:07:13Z</time>
      </trkpt>
      <trkpt lat="62.642897096764" lon="17.976619607233">
        <ele>26.8</ele>
        <time>2018-03-28T18:07:14Z</time>
      </trkpt>
      <trkpt lat="62.642884356276" lon="17.976711053762">
        <ele>27</ele>
        <time>2018-03-28T18:07:15Z</time>
      </trkpt>
      <trkpt lat="62.64287144815" lon="17.976799315169">
        <ele>27</ele>
        <time>2018-03-28T18:07:16Z</time>
      </trkpt>
      <trkpt lat="62.642856276911" lon="17.976870812776">
        <ele>27</ele>
        <time>2018-03-28T18:07:17Z</time>
      </trkpt>
      <trkpt lat="62.642846386269" lon="17.976935185768">
        <ele>27.2</ele>
        <time>2018-03-28T18:07:18Z</time>
      </trkpt>
      <trkpt lat="62.642835741256" lon="17.976992769421">
        <ele>27</ele>
        <time>2018-03-28T18:07:19Z</time>
      </trkpt>
      <trkpt lat="62.642822665492" lon="17.977048006142">
        <ele>27</ele>
        <time>2018-03-28T18:07:20Z</time>
      </trkpt>
      <trkpt lat="62.642809589728" lon="17.977104164872">
        <ele>27</ele>
        <time>2018-03-28T18:07:21Z</time>
      </trkpt>
      <trkpt lat="62.642799279991" lon="17.977161664706">
        <ele>27.2</ele>
        <time>2018-03-28T18:07:22Z</time>
      </trkpt>
      <trkpt lat="62.642792490652" lon="17.977222433481">
        <ele>27.2</ele>
        <time>2018-03-28T18:07:23Z</time>
      </trkpt>
      <trkpt lat="62.642781594182" lon="17.977294434002">
        <ele>27.2</ele>
        <time>2018-03-28T18:07:24Z</time>
      </trkpt>
      <trkpt lat="62.642772290273" lon="17.977358136442">
        <ele>27.2</ele>
        <time>2018-03-28T18:07:25Z</time>
      </trkpt>
      <trkpt lat="62.642760220337" lon="17.977416809742">
        <ele>27.2</ele>
        <time>2018-03-28T18:07:26Z</time>
      </trkpt>
      <trkpt lat="62.642756532301" lon="17.977484367856">
        <ele>27.4</ele>
        <time>2018-03-28T18:07:27Z</time>
      </trkpt>
      <trkpt lat="62.642741612519" lon="17.977532731419">
        <ele>27.4</ele>
        <time>2018-03-28T18:07:28Z</time>
      </trkpt>
      <trkpt lat="62.642716131543" lon="17.977585202113">
        <ele>27.4</ele>
        <time>2018-03-28T18:07:29Z</time>
      </trkpt>
      <trkpt lat="62.64269626644" lon="17.977628787993">
        <ele>27.6</ele>
        <time>2018-03-28T18:07:30Z</time>
      </trkpt>
      <trkpt lat="62.642684950875" lon="17.977656196806">
        <ele>27.8</ele>
        <time>2018-03-28T18:07:31Z</time>
      </trkpt>
      <trkpt lat="62.642669192903" lon="17.977673966434">
        <ele>28</ele>
        <time>2018-03-28T18:07:32Z</time>
      </trkpt>
      <trkpt lat="62.642658128795" lon="17.97772040216">
        <ele>28.2</ele>
        <time>2018-03-28T18:07:33Z</time>
      </trkpt>
      <trkpt lat="62.642636084398" lon="17.977742781833">
        <ele>28.4</ele>
        <time>2018-03-28T18:07:34Z</time>
      </trkpt>
      <trkpt lat="62.642622673358" lon="17.977763820402">
        <ele>28.6</ele>
        <time>2018-03-28T18:07:35Z</time>
      </trkpt>
      <trkpt lat="62.64260993287" lon="17.977787205903">
        <ele>28.8</ele>
        <time>2018-03-28T18:07:36Z</time>
      </trkpt>
      <trkpt lat="62.642597024744" lon="17.977806484273">
        <ele>29</ele>
        <time>2018-03-28T18:07:37Z</time>
      </trkpt>
      <trkpt lat="62.642584032799" lon="17.977828277213">
        <ele>29.2</ele>
        <time>2018-03-28T18:07:38Z</time>
      </trkpt>
      <trkpt lat="62.642568693922" lon="17.97783523419">
        <ele>29.4</ele>
        <time>2018-03-28T18:07:39Z</time>
      </trkpt>
      <trkpt lat="62.642548493543" lon="17.977844035185">
        <ele>29.4</ele>
        <time>2018-03-28T18:07:40Z</time>
      </trkpt>
      <trkpt lat="62.642530137182" lon="17.977880161174">
        <ele>29.4</ele>
        <time>2018-03-28T18:07:41Z</time>
      </trkpt>
      <trkpt lat="62.642508847156" lon="17.977905977426">
        <ele>29.6</ele>
        <time>2018-03-28T18:07:42Z</time>
      </trkpt>
      <trkpt lat="62.642498118324" lon="17.977927015995">
        <ele>29.6</ele>
        <time>2018-03-28T18:07:43Z</time>
      </trkpt>
      <trkpt lat="62.642489820243" lon="17.977952999885">
        <ele>29.8</ele>
        <time>2018-03-28T18:07:44Z</time>
      </trkpt>
      <trkpt lat="62.642474229909" lon="17.977983258544">
        <ele>29.8</ele>
        <time>2018-03-28T18:07:45Z</time>
      </trkpt>
      <trkpt lat="62.642468865493" lon="17.978030700098">
        <ele>30.2</ele>
        <time>2018-03-28T18:07:46Z</time>
      </trkpt>
      <trkpt lat="62.6424481622" lon="17.978068502467">
        <ele>30.2</ele>
        <time>2018-03-28T18:07:47Z</time>
      </trkpt>
      <trkpt lat="62.642445396173" lon="17.978109657596">
        <ele>30.4</ele>
        <time>2018-03-28T18:07:48Z</time>
      </trkpt>
      <trkpt lat="62.642430392572" lon="17.978141341178">
        <ele>30.4</ele>
        <time>2018-03-28T18:07:49Z</time>
      </trkpt>
      <trkpt lat="62.642416897713" lon="17.97819314132">
        <ele>30.6</ele>
        <time>2018-03-28T18:07:50Z</time>
      </trkpt>
      <trkpt lat="62.642403402854" lon="17.978217365011">
        <ele>30.8</ele>
        <time>2018-03-28T18:07:51Z</time>
      </trkpt>
      <trkpt lat="62.642391668194" lon="17.978252736629">
        <ele>31</ele>
        <time>2018-03-28T18:07:52Z</time>
      </trkpt>
      <trkpt lat="62.642372892738" lon="17.978287186238">
        <ele>31</ele>
        <time>2018-03-28T18:07:53Z</time>
      </trkpt>
      <trkpt lat="62.642350680703" lon="17.978340578941">
        <ele>31.2</ele>
        <time>2018-03-28T18:07:54Z</time>
      </trkpt>
      <trkpt lat="62.64233668293" lon="17.978370753781">
        <ele>31.4</ele>
        <time>2018-03-28T18:07:55Z</time>
      </trkpt>
      <trkpt lat="62.642317656017" lon="17.978423392113">
        <ele>31.4</ele>
        <time>2018-03-28T18:07:56Z</time>
      </trkpt>
      <trkpt lat="62.642299048199" lon="17.97844543651">
        <ele>31.4</ele>
        <time>2018-03-28T18:07:57Z</time>
      </trkpt>
      <trkpt lat="62.642286559168" lon="17.978474270246">
        <ele>31.4</ele>
        <time>2018-03-28T18:07:58Z</time>
      </trkpt>
      <trkpt lat="62.642273902499" lon="17.978515928289">
        <ele>31.6</ele>
        <time>2018-03-28T18:07:59Z</time>
      </trkpt>
      <trkpt lat="62.642257222518" lon="17.97855440121">
        <ele>31.8</ele>
        <time>2018-03-28T18:08:00Z</time>
      </trkpt>
      <trkpt lat="62.64224364384" lon="17.978574266313">
        <ele>32</ele>
        <time>2018-03-28T18:08:01Z</time>
      </trkpt>
      <trkpt lat="62.642228472601" lon="17.978602848592">
        <ele>32.2</ele>
        <time>2018-03-28T18:08:02Z</time>
      </trkpt>
      <trkpt lat="62.642215313018" lon="17.978612068682">
        <ele>32.4</ele>
        <time>2018-03-28T18:08:03Z</time>
      </trkpt>
      <trkpt lat="62.642206009109" lon="17.978637298201">
        <ele>32.4</ele>
        <time>2018-03-28T18:08:04Z</time>
      </trkpt>
      <trkpt lat="62.642185724911" lon="17.978662108625">
        <ele>32.6</ele>
        <time>2018-03-28T18:08:05Z</time>
      </trkpt>
      <trkpt lat="62.642169296387" lon="17.978697228786">
        <ele>32.8</ele>
        <time>2018-03-28T18:08:06Z</time>
      </trkpt>
      <trkpt lat="62.642148173999" lon="17.978709969274">
        <ele>33</ele>
        <time>2018-03-28T18:08:07Z</time>
      </trkpt>
      <trkpt lat="62.642132918941" lon="17.97870946636">
        <ele>33</ele>
        <time>2018-03-28T18:08:08Z</time>
      </trkpt>
      <trkpt lat="62.642124788498" lon="17.978716926251">
        <ele>33.2</ele>
        <time>2018-03-28T18:08:09Z</time>
      </trkpt>
      <trkpt lat="62.642108527612" lon="17.9787228774">
        <ele>33.4</ele>
        <time>2018-03-28T18:08:10Z</time>
      </trkpt>
      <trkpt lat="62.642091763812" lon="17.978733690051">
        <ele>33.6</ele>
        <time>2018-03-28T18:08:11Z</time>
      </trkpt>
      <trkpt lat="62.642075586745" lon="17.978741904313">
        <ele>33.8</ele>
        <time>2018-03-28T18:08:12Z</time>
      </trkpt>
      <trkpt lat="62.642062091886" lon="17.978750453851">
        <ele>34</ele>
        <time>2018-03-28T18:08:13Z</time>
      </trkpt>
      <trkpt lat="62.642032587598" lon="17.97875053767">
        <ele>34.2</ele>
        <time>2018-03-28T18:08:14Z</time>
      </trkpt>
      <trkpt lat="62.642011549029" lon="17.978775851008">
        <ele>34.4</ele>
        <time>2018-03-28T18:08:15Z</time>
      </trkpt>
      <trkpt lat="62.641987828252" lon="17.978773587895">
        <ele>34.6</ele>
        <time>2018-03-28T18:08:16Z</time>
      </trkpt>
      <trkpt lat="62.641979865447" lon="17.9787899326">
        <ele>34.6</ele>
        <time>2018-03-28T18:08:17Z</time>
      </trkpt>
      <trkpt lat="62.641962514914" lon="17.978802337812">
        <ele>34.8</ele>
        <time>2018-03-28T18:08:18Z</time>
      </trkpt>
      <trkpt lat="62.641948181865" lon="17.978806528762">
        <ele>35</ele>
        <time>2018-03-28T18:08:19Z</time>
      </trkpt>
      <trkpt lat="62.641937201576" lon="17.978819855983">
        <ele>35.2</ele>
        <time>2018-03-28T18:08:20Z</time>
      </trkpt>
      <trkpt lat="62.641921611242" lon="17.978840307819">
        <ele>35.4</ele>
        <time>2018-03-28T18:08:21Z</time>
      </trkpt>
      <trkpt lat="62.641903422519" lon="17.978836116869">
        <ele>35.6</ele>
        <time>2018-03-28T18:08:22Z</time>
      </trkpt>
      <trkpt lat="62.641884311787" lon="17.978847264796">
        <ele>35.6</ele>
        <time>2018-03-28T18:08:23Z</time>
      </trkpt>
      <trkpt lat="62.641863021761" lon="17.978864280053">
        <ele>35.8</ele>
        <time>2018-03-28T18:08:24Z</time>
      </trkpt>
      <trkpt lat="62.641842067011" lon="17.978867465175">
        <ele>36</ele>
        <time>2018-03-28T18:08:25Z</time>
      </trkpt>
      <trkpt lat="62.641825973763" lon="17.978878194007">
        <ele>36.2</ele>
        <time>2018-03-28T18:08:26Z</time>
      </trkpt>
      <trkpt lat="62.641807282126" lon="17.978881882043">
        <ele>36.2</ele>
        <time>2018-03-28T18:08:27Z</time>
      </trkpt>
      <trkpt lat="62.641793284353" lon="17.978879032197">
        <ele>36.6</ele>
        <time>2018-03-28T18:08:28Z</time>
      </trkpt>
      <trkpt lat="62.64177174287" lon="17.978895712178">
        <ele>36.8</ele>
        <time>2018-03-28T18:08:29Z</time>
      </trkpt>
      <trkpt lat="62.641754559975" lon="17.978906608648">
        <ele>37.2</ele>
        <time>2018-03-28T18:08:30Z</time>
      </trkpt>
      <trkpt lat="62.641733689044" lon="17.978904261716">
        <ele>37.4</ele>
        <time>2018-03-28T18:08:31Z</time>
      </trkpt>
      <trkpt lat="62.641716170873" lon="17.978910715779">
        <ele>37.8</ele>
        <time>2018-03-28T18:08:32Z</time>
      </trkpt>
      <trkpt lat="62.6417021731" lon="17.978913230349">
        <ele>38</ele>
        <time>2018-03-28T18:08:33Z</time>
      </trkpt>
      <trkpt lat="62.641681385988" lon="17.978914906729">
        <ele>38.4</ele>
        <time>2018-03-28T18:08:34Z</time>
      </trkpt>
      <trkpt lat="62.641657916668" lon="17.978902836793">
        <ele>38.6</ele>
        <time>2018-03-28T18:08:35Z</time>
      </trkpt>
      <trkpt lat="62.641639476488" lon="17.978910548141">
        <ele>38.8</ele>
        <time>2018-03-28T18:08:36Z</time>
      </trkpt>
      <trkpt lat="62.641620784851" lon="17.978892275599">
        <ele>39</ele>
        <time>2018-03-28T18:08:37Z</time>
      </trkpt>
      <trkpt lat="62.641602344671" lon="17.978881714405">
        <ele>39.2</ele>
        <time>2018-03-28T18:08:38Z</time>
      </trkpt>
      <trkpt lat="62.641585916147" lon="17.978889341934">
        <ele>39.4</ele>
        <time>2018-03-28T18:08:39Z</time>
      </trkpt>
      <trkpt lat="62.641568565614" lon="17.978885653898">
        <ele>39.6</ele>
        <time>2018-03-28T18:08:40Z</time>
      </trkpt>
      <trkpt lat="62.641549119606" lon="17.978890012486">
        <ele>39.6</ele>
        <time>2018-03-28T18:08:41Z</time>
      </trkpt>
      <trkpt lat="62.641525901743" lon="17.978880038025">
        <ele>39.8</ele>
        <time>2018-03-28T18:08:42Z</time>
      </trkpt>
      <trkpt lat="62.641512490703" lon="17.978864112415">
        <ele>40</ele>
        <time>2018-03-28T18:08:43Z</time>
      </trkpt>
      <trkpt lat="62.641493128514" lon="17.978869141555">
        <ele>40.2</ele>
        <time>2018-03-28T18:08:44Z</time>
      </trkpt>
      <trkpt lat="62.641473850144" lon="17.978860843474">
        <ele>40.4</ele>
        <time>2018-03-28T18:08:45Z</time>
      </trkpt>
      <trkpt lat="62.64145742162" lon="17.978848186805">
        <ele>40.6</ele>
        <time>2018-03-28T18:08:46Z</time>
      </trkpt>
      <trkpt lat="62.641433700843" lon="17.97883938581">
        <ele>41</ele>
        <time>2018-03-28T18:08:47Z</time>
      </trkpt>
      <trkpt lat="62.641410315342" lon="17.978830333358">
        <ele>41</ele>
        <time>2018-03-28T18:08:48Z</time>
      </trkpt>
      <trkpt lat="62.641390198782" lon="17.978833183204">
        <ele>41.4</ele>
        <time>2018-03-28T18:08:49Z</time>
      </trkpt>
      <trkpt lat="62.641368322023" lon="17.978837374154">
        <ele>41.6</ele>
        <time>2018-03-28T18:08:50Z</time>
      </trkpt>
      <trkpt lat="62.641350217119" lon="17.978840391638">
        <ele>41.8</ele>
        <time>2018-03-28T18:08:51Z</time>
      </trkpt>
      <trkpt lat="62.641334459147" lon="17.978851204289">
        <ele>42.2</ele>
        <time>2018-03-28T18:08:52Z</time>
      </trkpt>
      <trkpt lat="62.641310654551" lon="17.97884776771">
        <ele>42.4</ele>
        <time>2018-03-28T18:08:53Z</time>
      </trkpt>
      <trkpt lat="62.641288693973" lon="17.9788569878">
        <ele>42.4</ele>
        <time>2018-03-28T18:08:54Z</time>
      </trkpt>
      <trkpt lat="62.641270756707" lon="17.978854054135">
        <ele>42.4</ele>
        <time>2018-03-28T18:08:55Z</time>
      </trkpt>
      <trkpt lat="62.641253070898" lon="17.978849108814">
        <ele>42.4</ele>
        <time>2018-03-28T18:08:56Z</time>
      </trkpt>
      <trkpt lat="62.641230188311" lon="17.978850030823">
        <ele>42.6</ele>
        <time>2018-03-28T18:08:57Z</time>
      </trkpt>
      <trkpt lat="62.641210323208" lon="17.978854305592">
        <ele>42.8</ele>
        <time>2018-03-28T18:08:58Z</time>
      </trkpt>
      <trkpt lat="62.641183836404" lon="17.978855646696">
        <ele>43</ele>
        <time>2018-03-28T18:08:59Z</time>
      </trkpt>
      <trkpt lat="62.641161121455" lon="17.978863944777">
        <ele>43.2</ele>
        <time>2018-03-28T18:09:00Z</time>
      </trkpt>
      <trkpt lat="62.641140166705" lon="17.978872997229">
        <ele>43.4</ele>
        <time>2018-03-28T18:09:01Z</time>
      </trkpt>
      <trkpt lat="62.641132455357" lon="17.978885150984">
        <ele>43.6</ele>
        <time>2018-03-28T18:09:02Z</time>
      </trkpt>
      <trkpt lat="62.641108986037" lon="17.978894622531">
        <ele>43.8</ele>
        <time>2018-03-28T18:09:03Z</time>
      </trkpt>
      <trkpt lat="62.641088534201" lon="17.978915242005">
        <ele>43.8</ele>
        <time>2018-03-28T18:09:04Z</time>
      </trkpt>
      <trkpt lat="62.641073111505" lon="17.978962851197">
        <ele>44</ele>
        <time>2018-03-28T18:09:05Z</time>
      </trkpt>
      <trkpt lat="62.641058778456" lon="17.978998390453">
        <ele>44</ele>
        <time>2018-03-28T18:09:06Z</time>
      </trkpt>
      <trkpt lat="62.641050815651" lon="17.979051364061">
        <ele>44.2</ele>
        <time>2018-03-28T18:09:07Z</time>
      </trkpt>
      <trkpt lat="62.641046624701" lon="17.979093105923">
        <ele>44.4</ele>
        <time>2018-03-28T18:09:08Z</time>
      </trkpt>
      <trkpt lat="62.641037153154" lon="17.979149180834">
        <ele>44.4</ele>
        <time>2018-03-28T18:09:09Z</time>
      </trkpt>
      <trkpt lat="62.641031704919" lon="17.979201064795">
        <ele>44.6</ele>
        <time>2018-03-28T18:09:10Z</time>
      </trkpt>
      <trkpt lat="62.641030028539" lon="17.979271556574">
        <ele>44.6</ele>
        <time>2018-03-28T18:09:11Z</time>
      </trkpt>
      <trkpt lat="62.641023742114" lon="17.979333414996">
        <ele>44.8</ele>
        <time>2018-03-28T18:09:12Z</time>
      </trkpt>
      <trkpt lat="62.64102156282" lon="17.979386388604">
        <ele>44.6</ele>
        <time>2018-03-28T18:09:13Z</time>
      </trkpt>
      <trkpt lat="62.641017707146" lon="17.979449671949">
        <ele>44.8</ele>
        <time>2018-03-28T18:09:14Z</time>
      </trkpt>
      <trkpt lat="62.641006726857" lon="17.979509686353">
        <ele>44.8</ele>
        <time>2018-03-28T18:09:15Z</time>
      </trkpt>
      <trkpt lat="62.641005050477" lon="17.979571712413">
        <ele>44.8</ele>
        <time>2018-03-28T18:09:16Z</time>
      </trkpt>
      <trkpt lat="62.640993986369" lon="17.979626278582">
        <ele>45</ele>
        <time>2018-03-28T18:09:17Z</time>
      </trkpt>
      <trkpt lat="62.640986275021" lon="17.979677994905">
        <ele>45.2</ele>
        <time>2018-03-28T18:09:18Z</time>
      </trkpt>
      <trkpt lat="62.640979234225" lon="17.979746391209">
        <ele>45.4</ele>
        <time>2018-03-28T18:09:19Z</time>
      </trkpt>
      <trkpt lat="62.640973031619" lon="17.979818727006">
        <ele>45.4</ele>
        <time>2018-03-28T18:09:20Z</time>
      </trkpt>
      <trkpt lat="62.640970349411" lon="17.979875137193">
        <ele>45.6</ele>
        <time>2018-03-28T18:09:21Z</time>
      </trkpt>
      <trkpt lat="62.640957441285" lon="17.979935151597">
        <ele>45.6</ele>
        <time>2018-03-28T18:09:22Z</time>
      </trkpt>
      <trkpt lat="62.640952160688" lon="17.979985862092">
        <ele>45.4</ele>
        <time>2018-03-28T18:09:23Z</time>
      </trkpt>
      <trkpt lat="62.640950735765" lon="17.980054258396">
        <ele>45.6</ele>
        <time>2018-03-28T18:09:24Z</time>
      </trkpt>
      <trkpt lat="62.640956519276" lon="17.980118966664">
        <ele>45.6</ele>
        <time>2018-03-28T18:09:25Z</time>
      </trkpt>
      <trkpt lat="62.640962218968" lon="17.980177472326">
        <ele>45.6</ele>
        <time>2018-03-28T18:09:26Z</time>
      </trkpt>
      <trkpt lat="62.640970684687" lon="17.980236061807">
        <ele>45.4</ele>
        <time>2018-03-28T18:09:27Z</time>
      </trkpt>
      <trkpt lat="62.640970600868" lon="17.980311918002">
        <ele>45.4</ele>
        <time>2018-03-28T18:09:28Z</time>
      </trkpt>
      <trkpt lat="62.640978898949" lon="17.980408226033">
        <ele>45.4</ele>
        <time>2018-03-28T18:09:29Z</time>
      </trkpt>
      <trkpt lat="62.640986861754" lon="17.980495230155">
        <ele>45.2</ele>
        <time>2018-03-28T18:09:30Z</time>
      </trkpt>
      <trkpt lat="62.640982754623" lon="17.980562285355">
        <ele>45</ele>
        <time>2018-03-28T18:09:31Z</time>
      </trkpt>
      <trkpt lat="62.640983592813" lon="17.980651720228">
        <ele>44.6</ele>
        <time>2018-03-28T18:09:32Z</time>
      </trkpt>
      <trkpt lat="62.640995662749" lon="17.980741322739">
        <ele>44.4</ele>
        <time>2018-03-28T18:09:33Z</time>
      </trkpt>
      <trkpt lat="62.64101234273" lon="17.980835283838">
        <ele>44</ele>
        <time>2018-03-28T18:09:34Z</time>
      </trkpt>
      <trkpt lat="62.641028687435" lon="17.98093486081">
        <ele>43.6</ele>
        <time>2018-03-28T18:09:35Z</time>
      </trkpt>
      <trkpt lat="62.641051989117" lon="17.981025552968">
        <ele>43.2</ele>
        <time>2018-03-28T18:09:36Z</time>
      </trkpt>
      <trkpt lat="62.641078895016" lon="17.9811284827">
        <ele>42.8</ele>
        <time>2018-03-28T18:09:37Z</time>
      </trkpt>
      <trkpt lat="62.641099765947" lon="17.981214648632">
        <ele>42.4</ele>
        <time>2018-03-28T18:09:38Z</time>
      </trkpt>
      <trkpt lat="62.641114015177" lon="17.981330905585">
        <ele>42</ele>
        <time>2018-03-28T18:09:39Z</time>
      </trkpt>
      <trkpt lat="62.641097083739" lon="17.981437355715">
        <ele>41.6</ele>
        <time>2018-03-28T18:09:40Z</time>
      </trkpt>
      <trkpt lat="62.641088869477" lon="17.981549170261">
        <ele>41</ele>
        <time>2018-03-28T18:09:41Z</time>
      </trkpt>
      <trkpt lat="62.641085181441" lon="17.981663415558">
        <ele>41.2</ele>
        <time>2018-03-28T18:09:42Z</time>
      </trkpt>
      <trkpt lat="62.641083840337" lon="17.981772799353">
        <ele>41</ele>
        <time>2018-03-28T18:09:43Z</time>
      </trkpt>
      <trkpt lat="62.641079565568" lon="17.981875980542">
        <ele>41</ele>
        <time>2018-03-28T18:09:44Z</time>
      </trkpt>
      <trkpt lat="62.641073782057" lon="17.981989136192">
        <ele>41.4</ele>
        <time>2018-03-28T18:09:45Z</time>
      </trkpt>
      <trkpt lat="62.641066908899" lon="17.982094496675">
        <ele>41.8</ele>
        <time>2018-03-28T18:09:46Z</time>
      </trkpt>
      <trkpt lat="62.641066070709" lon="17.982196085303">
        <ele>41.8</ele>
        <time>2018-03-28T18:09:47Z</time>
      </trkpt>
      <trkpt lat="62.641078811197" lon="17.982285520176">
        <ele>41.8</ele>
        <time>2018-03-28T18:09:48Z</time>
      </trkpt>
      <trkpt lat="62.641093479522" lon="17.982374535954">
        <ele>42</ele>
        <time>2018-03-28T18:09:49Z</time>
      </trkpt>
      <trkpt lat="62.641118709041" lon="17.982447709941">
        <ele>41.8</ele>
        <time>2018-03-28T18:09:50Z</time>
      </trkpt>
      <trkpt lat="62.641126671846" lon="17.982513926951">
        <ele>41.8</ele>
        <time>2018-03-28T18:09:51Z</time>
      </trkpt>
      <trkpt lat="62.641132790633" lon="17.982565810912">
        <ele>41.4</ele>
        <time>2018-03-28T18:09:52Z</time>
      </trkpt>
      <trkpt lat="62.641141172533" lon="17.982696652371">
        <ele>41</ele>
        <time>2018-03-28T18:09:53Z</time>
      </trkpt>
      <trkpt lat="62.641130862796" lon="17.982802012854">
        <ele>40.8</ele>
        <time>2018-03-28T18:09:54Z</time>
      </trkpt>
      <trkpt lat="62.641137735954" lon="17.982901338369">
        <ele>40.8</ele>
        <time>2018-03-28T18:09:55Z</time>
      </trkpt>
      <trkpt lat="62.641152069003" lon="17.983008123775">
        <ele>40.6</ele>
        <time>2018-03-28T18:09:56Z</time>
      </trkpt>
      <trkpt lat="62.641159780351" lon="17.983108119842">
        <ele>40.8</ele>
        <time>2018-03-28T18:09:57Z</time>
      </trkpt>
      <trkpt lat="62.641168665165" lon="17.983193363765">
        <ele>40.8</ele>
        <time>2018-03-28T18:09:58Z</time>
      </trkpt>
      <trkpt lat="62.641181908567" lon="17.983307609062">
        <ele>40.8</ele>
        <time>2018-03-28T18:09:59Z</time>
      </trkpt>
      <trkpt lat="62.641203869145" lon="17.983398133582">
        <ele>40.6</ele>
        <time>2018-03-28T18:10:00Z</time>
      </trkpt>
      <trkpt lat="62.641230020673" lon="17.983498129649">
        <ele>40.2</ele>
        <time>2018-03-28T18:10:01Z</time>
      </trkpt>
      <trkpt lat="62.641250137233" lon="17.983602651942">
        <ele>39.6</ele>
        <time>2018-03-28T18:10:02Z</time>
      </trkpt>
      <trkpt lat="62.641266565757" lon="17.983682112354">
        <ele>39.2</ele>
        <time>2018-03-28T18:10:03Z</time>
      </trkpt>
      <trkpt lat="62.641270589069" lon="17.983802141162">
        <ele>38.6</ele>
        <time>2018-03-28T18:10:04Z</time>
      </trkpt>
      <trkpt lat="62.64127050525" lon="17.983937341209">
        <ele>38</ele>
        <time>2018-03-28T18:10:05Z</time>
      </trkpt>
      <trkpt lat="62.641269583241" lon="17.984067763573">
        <ele>37.6</ele>
        <time>2018-03-28T18:10:06Z</time>
      </trkpt>
      <trkpt lat="62.6412663143" lon="17.984197850661">
        <ele>37.2</ele>
        <time>2018-03-28T18:10:07Z</time>
      </trkpt>
      <trkpt lat="62.641261117522" lon="17.984319891125">
        <ele>36.8</ele>
        <time>2018-03-28T18:10:08Z</time>
      </trkpt>
      <trkpt lat="62.641256088382" lon="17.984454001525">
        <ele>36.6</ele>
        <time>2018-03-28T18:10:09Z</time>
      </trkpt>
      <trkpt lat="62.641252400346" lon="17.984562211854">
        <ele>36.4</ele>
        <time>2018-03-28T18:10:10Z</time>
      </trkpt>
      <trkpt lat="62.641247203568" lon="17.984697076625">
        <ele>36.2</ele>
        <time>2018-03-28T18:10:11Z</time>
      </trkpt>
      <trkpt lat="62.641236055641" lon="17.984816015786">
        <ele>35.8</ele>
        <time>2018-03-28T18:10:12Z</time>
      </trkpt>
      <trkpt lat="62.641220549126" lon="17.984902684632">
        <ele>35.8</ele>
        <time>2018-03-28T18:10:13Z</time>
      </trkpt>
      <trkpt lat="62.641196157797" lon="17.984997232464">
        <ele>35.6</ele>
        <time>2018-03-28T18:10:14Z</time>
      </trkpt>
      <trkpt lat="62.641199175281" lon="17.985095971246">
        <ele>35.4</ele>
        <time>2018-03-28T18:10:15Z</time>
      </trkpt>
      <trkpt lat="62.641199426738" lon="17.985221280651">
        <ele>35.8</ele>
        <time>2018-03-28T18:10:16Z</time>
      </trkpt>
      <trkpt lat="62.641183417309" lon="17.985334855396">
        <ele>35.8</ele>
        <time>2018-03-28T18:10:17Z</time>
      </trkpt>
      <trkpt lat="62.641160953817" lon="17.98544767577">
        <ele>36</ele>
        <time>2018-03-28T18:10:18Z</time>
      </trkpt>
      <trkpt lat="62.641141172533" lon="17.985583965464">
        <ele>35.8</ele>
        <time>2018-03-28T18:10:19Z</time>
      </trkpt>
      <trkpt lat="62.641128264407" lon="17.985676334002">
        <ele>35.8</ele>
        <time>2018-03-28T18:10:20Z</time>
      </trkpt>
      <trkpt lat="62.641121894163" lon="17.985778090268">
        <ele>35.4</ele>
        <time>2018-03-28T18:10:21Z</time>
      </trkpt>
      <trkpt lat="62.641106555286" lon="17.985862663639">
        <ele>35</ele>
        <time>2018-03-28T18:10:22Z</time>
      </trkpt>
      <trkpt lat="62.641092557513" lon="17.985965341914">
        <ele>35</ele>
        <time>2018-03-28T18:10:23Z</time>
      </trkpt>
      <trkpt lat="62.641073111505" lon="17.986062655773">
        <ele>35.2</ele>
        <time>2018-03-28T18:10:24Z</time>
      </trkpt>
      <trkpt lat="62.641059532827" lon="17.986137757597">
        <ele>35.2</ele>
        <time>2018-03-28T18:10:25Z</time>
      </trkpt>
      <trkpt lat="62.641045367416" lon="17.98621378143">
        <ele>35.4</ele>
        <time>2018-03-28T18:10:26Z</time>
      </trkpt>
      <trkpt lat="62.641037991344" lon="17.986281339544">
        <ele>35.6</ele>
        <time>2018-03-28T18:10:27Z</time>
      </trkpt>
      <trkpt lat="62.641027849245" lon="17.986361135232">
        <ele>35.6</ele>
        <time>2018-03-28T18:10:28Z</time>
      </trkpt>
      <trkpt lat="62.641012929463" lon="17.986458784367">
        <ele>35.6</ele>
        <time>2018-03-28T18:10:29Z</time>
      </trkpt>
      <trkpt lat="62.641010331074" lon="17.986547213412">
        <ele>35.4</ele>
        <time>2018-03-28T18:10:30Z</time>
      </trkpt>
      <trkpt lat="62.641013013282" lon="17.9866102453">
        <ele>35.4</ele>
        <time>2018-03-28T18:10:31Z</time>
      </trkpt>
      <trkpt lat="62.641003625554" lon="17.986692471739">
        <ele>35.4</ele>
        <time>2018-03-28T18:10:32Z</time>
      </trkpt>
      <trkpt lat="62.640986191202" lon="17.986777212748">
        <ele>35.2</ele>
        <time>2018-03-28T18:10:33Z</time>
      </trkpt>
      <trkpt lat="62.640976132922" lon="17.986868575458">
        <ele>35.2</ele>
        <time>2018-03-28T18:10:34Z</time>
      </trkpt>
      <trkpt lat="62.640969427402" lon="17.986963458566">
        <ele>35.2</ele>
        <time>2018-03-28T18:10:35Z</time>
      </trkpt>
      <trkpt lat="62.640980072415" lon="17.987020706943">
        <ele>35.2</ele>
        <time>2018-03-28T18:10:36Z</time>
      </trkpt>
      <trkpt lat="62.640980072415" lon="17.987109052169">
        <ele>35.4</ele>
        <time>2018-03-28T18:10:37Z</time>
      </trkpt>
      <trkpt lat="62.640973031619" lon="17.987196726843">
        <ele>35.6</ele>
        <time>2018-03-28T18:10:38Z</time>
      </trkpt>
      <trkpt lat="62.640970517049" lon="17.987290687942">
        <ele>35.6</ele>
        <time>2018-03-28T18:10:39Z</time>
      </trkpt>
      <trkpt lat="62.640966661375" lon="17.987358078418">
        <ele>35.8</ele>
        <time>2018-03-28T18:10:40Z</time>
      </trkpt>
      <trkpt lat="62.640964649719" lon="17.987465869652">
        <ele>35.6</ele>
        <time>2018-03-28T18:10:41Z</time>
      </trkpt>
      <trkpt lat="62.640961464597" lon="17.98755572362">
        <ele>35.4</ele>
        <time>2018-03-28T18:10:42Z</time>
      </trkpt>
      <trkpt lat="62.640946796272" lon="17.987641470457">
        <ele>35.2</ele>
        <time>2018-03-28T18:10:43Z</time>
      </trkpt>
      <trkpt lat="62.640930786843" lon="17.987735431556">
        <ele>35</ele>
        <time>2018-03-28T18:10:44Z</time>
      </trkpt>
      <trkpt lat="62.640910837921" lon="17.987822435678">
        <ele>34.8</ele>
        <time>2018-03-28T18:10:45Z</time>
      </trkpt>
      <trkpt lat="62.640887284782" lon="17.987913211655">
        <ele>34.8</ele>
        <time>2018-03-28T18:10:46Z</time>
      </trkpt>
      <trkpt lat="62.640860965616" lon="17.988004490546">
        <ele>35</ele>
        <time>2018-03-28T18:10:47Z</time>
      </trkpt>
      <trkpt lat="62.640840765237" lon="17.988084705329">
        <ele>35</ele>
        <time>2018-03-28T18:10:48Z</time>
      </trkpt>
      <trkpt lat="62.640822157419" lon="17.988171457994">
        <ele>35</ele>
        <time>2018-03-28T18:10:49Z</time>
      </trkpt>
      <trkpt lat="62.640804387791" lon="17.9882447158">
        <ele>35</ele>
        <time>2018-03-28T18:10:50Z</time>
      </trkpt>
      <trkpt lat="62.640797011719" lon="17.988314201751">
        <ele>34.8</ele>
        <time>2018-03-28T18:10:51Z</time>
      </trkpt>
      <trkpt lat="62.640772955666" lon="17.988372372137">
        <ele>34.8</ele>
        <time>2018-03-28T18:10:52Z</time>
      </trkpt>
      <trkpt lat="62.640744205749" lon="17.98842576484">
        <ele>34.8</ele>
        <time>2018-03-28T18:10:53Z</time>
      </trkpt>
      <trkpt lat="62.640709672321" lon="17.988513690971">
        <ele>34.8</ele>
        <time>2018-03-28T18:10:54Z</time>
      </trkpt>
      <trkpt lat="62.640698775851" lon="17.988576722859">
        <ele>34.8</ele>
        <time>2018-03-28T18:10:55Z</time>
      </trkpt>
      <trkpt lat="62.640676479997" lon="17.988626511345">
        <ele>35</ele>
        <time>2018-03-28T18:10:56Z</time>
      </trkpt>
      <trkpt lat="62.640663236595" lon="17.988674791089">
        <ele>35</ele>
        <time>2018-03-28T18:10:57Z</time>
      </trkpt>
      <trkpt lat="62.640638342352" lon="17.988703624825">
        <ele>35.2</ele>
        <time>2018-03-28T18:10:58Z</time>
      </trkpt>
      <trkpt lat="62.640615292127" lon="17.988745618144">
        <ele>35.4</ele>
        <time>2018-03-28T18:10:59Z</time>
      </trkpt>
      <trkpt lat="62.640590062608" lon="17.988786354178">
        <ele>35.4</ele>
        <time>2018-03-28T18:11:00Z</time>
      </trkpt>
      <trkpt lat="62.640570951876" lon="17.988818708312">
        <ele>35.6</ele>
        <time>2018-03-28T18:11:01Z</time>
      </trkpt>
      <trkpt lat="62.640559552492" lon="17.988856845957">
        <ele>35.8</ele>
        <time>2018-03-28T18:11:02Z</time>
      </trkpt>
      <trkpt lat="62.640539938846" lon="17.988891547023">
        <ele>36.2</ele>
        <time>2018-03-28T18:11:03Z</time>
      </trkpt>
      <trkpt lat="62.640519403191" lon="17.988938234206">
        <ele>36.2</ele>
        <time>2018-03-28T18:11:04Z</time>
      </trkpt>
      <trkpt lat="62.640499118993" lon="17.988995482583">
        <ele>36.4</ele>
        <time>2018-03-28T18:11:05Z</time>
      </trkpt>
      <trkpt lat="62.640475482035" lon="17.989050467847">
        <ele>36.4</ele>
        <time>2018-03-28T18:11:06Z</time>
      </trkpt>
      <trkpt lat="62.640458466778" lon="17.98910469874">
        <ele>36.6</ele>
        <time>2018-03-28T18:11:07Z</time>
      </trkpt>
      <trkpt lat="62.640435835648" lon="17.989160773651">
        <ele>36.6</ele>
        <time>2018-03-28T18:11:08Z</time>
      </trkpt>
      <trkpt lat="62.640412366328" lon="17.989221458607">
        <ele>36.6</ele>
        <time>2018-03-28T18:11:09Z</time>
      </trkpt>
      <trkpt lat="62.64039040575" lon="17.989268816342">
        <ele>36.8</ele>
        <time>2018-03-28T18:11:10Z</time>
      </trkpt>
      <trkpt lat="62.64036861281" lon="17.989317599">
        <ele>36.8</ele>
        <time>2018-03-28T18:11:11Z</time>
      </trkpt>
      <trkpt lat="62.640352603381" lon="17.989373170997">
        <ele>37</ele>
        <time>2018-03-28T18:11:12Z</time>
      </trkpt>
      <trkpt lat="62.640328044414" lon="17.989405692769">
        <ele>37.2</ele>
        <time>2018-03-28T18:11:13Z</time>
      </trkpt>
      <trkpt lat="62.640315471564" lon="17.989469143752">
        <ele>37.2</ele>
        <time>2018-03-28T18:11:14Z</time>
      </trkpt>
      <trkpt lat="62.640289152398" lon="17.989523290826">
        <ele>37.2</ele>
        <time>2018-03-28T18:11:15Z</time>
      </trkpt>
      <trkpt lat="62.640264090517" lon="17.989579533375">
        <ele>37.2</ele>
        <time>2018-03-28T18:11:16Z</time>
      </trkpt>
      <trkpt lat="62.640246739984" lon="17.989630076232">
        <ele>37.2</ele>
        <time>2018-03-28T18:11:17Z</time>
      </trkpt>
      <trkpt lat="62.640231904021" lon="17.989686318781">
        <ele>37.2</ele>
        <time>2018-03-28T18:11:18Z</time>
      </trkpt>
      <trkpt lat="62.640208267063" lon="17.989723450598">
        <ele>37.4</ele>
        <time>2018-03-28T18:11:19Z</time>
      </trkpt>
      <trkpt lat="62.640194101652" lon="17.989767623211">
        <ele>37.4</ele>
        <time>2018-03-28T18:11:20Z</time>
      </trkpt>
      <trkpt lat="62.640175410015" lon="17.989820345362">
        <ele>37.8</ele>
        <time>2018-03-28T18:11:21Z</time>
      </trkpt>
      <trkpt lat="62.640166357563" lon="17.989878683386">
        <ele>38</ele>
        <time>2018-03-28T18:11:22Z</time>
      </trkpt>
      <trkpt lat="62.640147665926" lon="17.989933920107">
        <ele>38.2</ele>
        <time>2018-03-28T18:11:23Z</time>
      </trkpt>
      <trkpt lat="62.640130734488" lon="17.989997790185">
        <ele>38.6</ele>
        <time>2018-03-28T18:11:24Z</time>
      </trkpt>
      <trkpt lat="62.640119083647" lon="17.990046405205">
        <ele>38.6</ele>
        <time>2018-03-28T18:11:25Z</time>
      </trkpt>
      <trkpt lat="62.640108187177" lon="17.990101222831">
        <ele>38.8</ele>
        <time>2018-03-28T18:11:26Z</time>
      </trkpt>
      <trkpt lat="62.640092596843" lon="17.990152939154">
        <ele>38.8</ele>
        <time>2018-03-28T18:11:27Z</time>
      </trkpt>
      <trkpt lat="62.640083125296" lon="17.990201386536">
        <ele>38.8</ele>
        <time>2018-03-28T18:11:28Z</time>
      </trkpt>
      <trkpt lat="62.640064601297" lon="17.990254946877">
        <ele>38.6</ele>
        <time>2018-03-28T18:11:29Z</time>
      </trkpt>
      <trkpt lat="62.640049597696" lon="17.990303645716">
        <ele>38.8</ele>
        <time>2018-03-28T18:11:30Z</time>
      </trkpt>
      <trkpt lat="62.640027804756" lon="17.990346644863">
        <ele>38.8</ele>
        <time>2018-03-28T18:11:31Z</time>
      </trkpt>
      <trkpt lat="62.640009699852" lon="17.990401713946">
        <ele>39</ele>
        <time>2018-03-28T18:11:32Z</time>
      </trkpt>
      <trkpt lat="62.63998639817" lon="17.990450915699">
        <ele>39.2</ele>
        <time>2018-03-28T18:11:33Z</time>
      </trkpt>
      <trkpt lat="62.63996544342" lon="17.990503051117">
        <ele>39.4</ele>
        <time>2018-03-28T18:11:34Z</time>
      </trkpt>
      <trkpt lat="62.639941806462" lon="17.990549570662">
        <ele>39.6</ele>
        <time>2018-03-28T18:11:35Z</time>
      </trkpt>
      <trkpt lat="62.639925964671" lon="17.990612099636">
        <ele>39.8</ele>
        <time>2018-03-28T18:11:36Z</time>
      </trkpt>
      <trkpt lat="62.639909955242" lon="17.990652165118">
        <ele>39.8</ele>
        <time>2018-03-28T18:11:37Z</time>
      </trkpt>
      <trkpt lat="62.639895957469" lon="17.990702959432">
        <ele>40</ele>
        <time>2018-03-28T18:11:38Z</time>
      </trkpt>
      <trkpt lat="62.639873410158" lon="17.990749898072">
        <ele>40</ele>
        <time>2018-03-28T18:11:39Z</time>
      </trkpt>
      <trkpt lat="62.639851701037" lon="17.990792645762">
        <ele>40</ele>
        <time>2018-03-28T18:11:40Z</time>
      </trkpt>
      <trkpt lat="62.639826220061" lon="17.990824245525">
        <ele>40</ele>
        <time>2018-03-28T18:11:41Z</time>
      </trkpt>
      <trkpt lat="62.639804678578" lon="17.990864562464">
        <ele>40.2</ele>
        <time>2018-03-28T18:11:42Z</time>
      </trkpt>
      <trkpt lat="62.639786322217" lon="17.99089842534">
        <ele>40.4</ele>
        <time>2018-03-28T18:11:43Z</time>
      </trkpt>
      <trkpt lat="62.639766960028" lon="17.990934299872">
        <ele>40.6</ele>
        <time>2018-03-28T18:11:44Z</time>
      </trkpt>
      <trkpt lat="62.639753884264" lon="17.990969084757">
        <ele>40.8</ele>
        <time>2018-03-28T18:11:45Z</time>
      </trkpt>
      <trkpt lat="62.639739048301" lon="17.99101158099">
        <ele>41</ele>
        <time>2018-03-28T18:11:46Z</time>
      </trkpt>
      <trkpt lat="62.639724631433" lon="17.991064554598">
        <ele>41</ele>
        <time>2018-03-28T18:11:47Z</time>
      </trkpt>
      <trkpt lat="62.639712226221" lon="17.991114510722">
        <ele>41.2</ele>
        <time>2018-03-28T18:11:48Z</time>
      </trkpt>
      <trkpt lat="62.639706191253" lon="17.991189612546">
        <ele>41.2</ele>
        <time>2018-03-28T18:11:49Z</time>
      </trkpt>
      <trkpt lat="62.639702335579" lon="17.991254572271">
        <ele>41.2</ele>
        <time>2018-03-28T18:11:50Z</time>
      </trkpt>
      <trkpt lat="62.639690600919" lon="17.991306456232">
        <ele>41.4</ele>
        <time>2018-03-28T18:11:51Z</time>
      </trkpt>
      <trkpt lat="62.639685655598" lon="17.9913627826">
        <ele>41.4</ele>
        <time>2018-03-28T18:11:52Z</time>
      </trkpt>
      <trkpt lat="62.639677776612" lon="17.991424892479">
        <ele>41.6</ele>
        <time>2018-03-28T18:11:53Z</time>
      </trkpt>
      <trkpt lat="62.639673669481" lon="17.991482476132">
        <ele>41.6</ele>
        <time>2018-03-28T18:11:54Z</time>
      </trkpt>
      <trkpt lat="62.639666796323" lon="17.991528576582">
        <ele>41.6</ele>
        <time>2018-03-28T18:11:55Z</time>
      </trkpt>
      <trkpt lat="62.639661012812" lon="17.991577023964">
        <ele>41.6</ele>
        <time>2018-03-28T18:11:56Z</time>
      </trkpt>
      <trkpt lat="62.639648775238" lon="17.991626225717">
        <ele>41.6</ele>
        <time>2018-03-28T18:11:57Z</time>
      </trkpt>
      <trkpt lat="62.639644584288" lon="17.991668051398">
        <ele>41.8</ele>
        <time>2018-03-28T18:11:58Z</time>
      </trkpt>
      <trkpt lat="62.639630083601" lon="17.991714654762">
        <ele>41.8</ele>
        <time>2018-03-28T18:11:59Z</time>
      </trkpt>
      <trkpt lat="62.639628155764" lon="17.991768298922">
        <ele>42</ele>
        <time>2018-03-28T18:12:00Z</time>
      </trkpt>
      <trkpt lat="62.639614325629" lon="17.991827810412">
        <ele>42</ele>
        <time>2018-03-28T18:12:01Z</time>
      </trkpt>
      <trkpt lat="62.639613655077" lon="17.991891764309">
        <ele>42.2</ele>
        <time>2018-03-28T18:12:02Z</time>
      </trkpt>
      <trkpt lat="62.639603093883" lon="17.991944570279">
        <ele>42.4</ele>
        <time>2018-03-28T18:12:03Z</time>
      </trkpt>
      <trkpt lat="62.639600998408" lon="17.99201321804">
        <ele>42.8</ele>
        <time>2018-03-28T18:12:04Z</time>
      </trkpt>
      <trkpt lat="62.639591443042" lon="17.992066191648">
        <ele>43</ele>
        <time>2018-03-28T18:12:05Z</time>
      </trkpt>
      <trkpt lat="62.639583647875" lon="17.992120338722">
        <ele>43.2</ele>
        <time>2018-03-28T18:12:06Z</time>
      </trkpt>
      <trkpt lat="62.63957903783" lon="17.992188232112">
        <ele>43.4</ele>
        <time>2018-03-28T18:12:07Z</time>
      </trkpt>
      <trkpt lat="62.639562860763" lon="17.992244055566">
        <ele>43.2</ele>
        <time>2018-03-28T18:12:08Z</time>
      </trkpt>
      <trkpt lat="62.639549784999" lon="17.99230658454">
        <ele>43.4</ele>
        <time>2018-03-28T18:12:09Z</time>
      </trkpt>
      <trkpt lat="62.639545929325" lon="17.992364168193">
        <ele>43</ele>
        <time>2018-03-28T18:12:10Z</time>
      </trkpt>
      <trkpt lat="62.639532685923" lon="17.992431977764">
        <ele>43</ele>
        <time>2018-03-28T18:12:11Z</time>
      </trkpt>
      <trkpt lat="62.639525812765" lon="17.99248511901">
        <ele>43</ele>
        <time>2018-03-28T18:12:12Z</time>
      </trkpt>
      <trkpt lat="62.639517598503" lon="17.992542367387">
        <ele>43.2</ele>
        <time>2018-03-28T18:12:13Z</time>
      </trkpt>
      <trkpt lat="62.63952204091" lon="17.992609003492">
        <ele>43.2</ele>
        <time>2018-03-28T18:12:14Z</time>
      </trkpt>
      <trkpt lat="62.63951952634" lon="17.992675304321">
        <ele>43.6</ele>
        <time>2018-03-28T18:12:15Z</time>
      </trkpt>
      <trkpt lat="62.639519358702" lon="17.992741353693">
        <ele>43.6</ele>
        <time>2018-03-28T18:12:16Z</time>
      </trkpt>
      <trkpt lat="62.639517430865" lon="17.992810420549">
        <ele>43.6</ele>
        <time>2018-03-28T18:12:17Z</time>
      </trkpt>
      <trkpt lat="62.639524723118" lon="17.992869261487">
        <ele>43.6</ele>
        <time>2018-03-28T18:12:18Z</time>
      </trkpt>
      <trkpt lat="62.639523465833" lon="17.992942519293">
        <ele>43.6</ele>
        <time>2018-03-28T18:12:19Z</time>
      </trkpt>
      <trkpt lat="62.639527405326" lon="17.99300312043">
        <ele>43.6</ele>
        <time>2018-03-28T18:12:20Z</time>
      </trkpt>
      <trkpt lat="62.639532350647" lon="17.993065649404">
        <ele>43.6</ele>
        <time>2018-03-28T18:12:21Z</time>
      </trkpt>
      <trkpt lat="62.639529081706" lon="17.993123903609">
        <ele>43.8</ele>
        <time>2018-03-28T18:12:22Z</time>
      </trkpt>
      <trkpt lat="62.639522711462" lon="17.99317997852">
        <ele>43.8</ele>
        <time>2018-03-28T18:12:23Z</time>
      </trkpt>
      <trkpt lat="62.63951282082" lon="17.993239154734">
        <ele>43.8</ele>
        <time>2018-03-28T18:12:24Z</time>
      </trkpt>
      <trkpt lat="62.639509216603" lon="17.993295732559">
        <ele>44</ele>
        <time>2018-03-28T18:12:25Z</time>
      </trkpt>
      <trkpt lat="62.639507204947" lon="17.993352729479">
        <ele>44</ele>
        <time>2018-03-28T18:12:26Z</time>
      </trkpt>
      <trkpt lat="62.63950108616" lon="17.993412743883">
        <ele>44</ele>
        <time>2018-03-28T18:12:27Z</time>
      </trkpt>
      <trkpt lat="62.639496392296" lon="17.993461107446">
        <ele>44</ele>
        <time>2018-03-28T18:12:28Z</time>
      </trkpt>
      <trkpt lat="62.63949270426" lon="17.993534197614">
        <ele>44</ele>
        <time>2018-03-28T18:12:29Z</time>
      </trkpt>
      <trkpt lat="62.63947845503" lon="17.993596391312">
        <ele>44</ele>
        <time>2018-03-28T18:12:30Z</time>
      </trkpt>
      <trkpt lat="62.639465798361" lon="17.993670906403">
        <ele>44.2</ele>
        <time>2018-03-28T18:12:31Z</time>
      </trkpt>
      <trkpt lat="62.639443586326" lon="17.99372228745">
        <ele>44</ele>
        <time>2018-03-28T18:12:32Z</time>
      </trkpt>
      <trkpt lat="62.639425732879" lon="17.993775512515">
        <ele>44.2</ele>
        <time>2018-03-28T18:12:33Z</time>
      </trkpt>
      <trkpt lat="62.639404945767" lon="17.993817170558">
        <ele>44</ele>
        <time>2018-03-28T18:12:34Z</time>
      </trkpt>
      <trkpt lat="62.639391031813" lon="17.993864863569">
        <ele>44</ele>
        <time>2018-03-28T18:12:35Z</time>
      </trkpt>
      <trkpt lat="62.639369574149" lon="17.993907024526">
        <ele>44</ele>
        <time>2018-03-28T18:12:36Z</time>
      </trkpt>
      <trkpt lat="62.639352558892" lon="17.993955891003">
        <ele>44.2</ele>
        <time>2018-03-28T18:12:37Z</time>
      </trkpt>
      <trkpt lat="62.639335292178" lon="17.993988412775">
        <ele>44.2</ele>
        <time>2018-03-28T18:12:38Z</time>
      </trkpt>
      <trkpt lat="62.639315259437" lon="17.994035351415">
        <ele>44.4</ele>
        <time>2018-03-28T18:12:39Z</time>
      </trkpt>
      <trkpt lat="62.639297573628" lon="17.994067873187">
        <ele>44.6</ele>
        <time>2018-03-28T18:12:40Z</time>
      </trkpt>
      <trkpt lat="62.639283827312" lon="17.994119840967">
        <ele>44.6</ele>
        <time>2018-03-28T18:12:41Z</time>
      </trkpt>
      <trkpt lat="62.639268572254" lon="17.994160074087">
        <ele>44.8</ele>
        <time>2018-03-28T18:12:42Z</time>
      </trkpt>
      <trkpt lat="62.639254406843" lon="17.994210533125">
        <ele>45</ele>
        <time>2018-03-28T18:12:43Z</time>
      </trkpt>
      <trkpt lat="62.639237559224" lon="17.994254286643">
        <ele>45.2</ele>
        <time>2018-03-28T18:12:44Z</time>
      </trkpt>
      <trkpt lat="62.639227500944" lon="17.994304326586">
        <ele>45.4</ele>
        <time>2018-03-28T18:12:45Z</time>
      </trkpt>
      <trkpt lat="62.639209563678" lon="17.994354031253">
        <ele>45.8</ele>
        <time>2018-03-28T18:12:46Z</time>
      </trkpt>
      <trkpt lat="62.639192045507" lon="17.994407172499">
        <ele>46</ele>
        <time>2018-03-28T18:12:47Z</time>
      </trkpt>
      <trkpt lat="62.639177880096" lon="17.99444313085">
        <ele>46.4</ele>
        <time>2018-03-28T18:12:48Z</time>
      </trkpt>
      <trkpt lat="62.639161032477" lon="17.994495182449">
        <ele>46.6</ele>
        <time>2018-03-28T18:12:49Z</time>
      </trkpt>
      <trkpt lat="62.639143681944" lon="17.994538935967">
        <ele>46.6</ele>
        <time>2018-03-28T18:12:50Z</time>
      </trkpt>
      <trkpt lat="62.639126247592" lon="17.99458059401">
        <ele>46.6</ele>
        <time>2018-03-28T18:12:51Z</time>
      </trkpt>
      <trkpt lat="62.639111998362" lon="17.994614792162">
        <ele>46.6</ele>
        <time>2018-03-28T18:12:52Z</time>
      </trkpt>
      <trkpt lat="62.639096743304" lon="17.994633316161">
        <ele>46.2</ele>
        <time>2018-03-28T18:12:53Z</time>
      </trkpt>
      <trkpt lat="62.639081572065" lon="17.994689726348">
        <ele>46.2</ele>
        <time>2018-03-28T18:12:54Z</time>
      </trkpt>
      <trkpt lat="62.639062377514" lon="17.994733060771">
        <ele>46.2</ele>
        <time>2018-03-28T18:12:55Z</time>
      </trkpt>
      <trkpt lat="62.639053408881" lon="17.994767929475">
        <ele>46.4</ele>
        <time>2018-03-28T18:12:56Z</time>
      </trkpt>
      <trkpt lat="62.639043015325" lon="17.994805731844">
        <ele>46.8</ele>
        <time>2018-03-28T18:12:57Z</time>
      </trkpt>
      <trkpt lat="62.639027424991" lon="17.994841438738">
        <ele>46.8</ele>
        <time>2018-03-28T18:12:58Z</time>
      </trkpt>
      <trkpt lat="62.639007895164" lon="17.994891478681">
        <ele>46.8</ele>
        <time>2018-03-28T18:12:59Z</time>
      </trkpt>
      <trkpt lat="62.6390032013" lon="17.99492592829">
        <ele>47</ele>
        <time>2018-03-28T18:13:00Z</time>
      </trkpt>
      <trkpt lat="62.638983252378" lon="17.994950738714">
        <ele>46.8</ele>
        <time>2018-03-28T18:13:01Z</time>
      </trkpt>
      <trkpt lat="62.638970344252" lon="17.994986864703">
        <ele>47</ele>
        <time>2018-03-28T18:13:02Z</time>
      </trkpt>
      <trkpt lat="62.638951065882" lon="17.995021817226">
        <ele>46.8</ele>
        <time>2018-03-28T18:13:03Z</time>
      </trkpt>
      <trkpt lat="62.63893279334" lon="17.995060541604">
        <ele>47</ele>
        <time>2018-03-28T18:13:04Z</time>
      </trkpt>
      <trkpt lat="62.638912425323" lon="17.995110078633">
        <ele>47.2</ele>
        <time>2018-03-28T18:13:05Z</time>
      </trkpt>
      <trkpt lat="62.638892392582" lon="17.995147964821">
        <ele>47.4</ele>
        <time>2018-03-28T18:13:06Z</time>
      </trkpt>
      <trkpt lat="62.638873030393" lon="17.995190712511">
        <ele>47.6</ele>
        <time>2018-03-28T18:13:07Z</time>
      </trkpt>
      <trkpt lat="62.638852746195" lon="17.995223653378">
        <ele>47.8</ele>
        <time>2018-03-28T18:13:08Z</time>
      </trkpt>
      <trkpt lat="62.638833803101" lon="17.995275034425">
        <ele>48</ele>
        <time>2018-03-28T18:13:09Z</time>
      </trkpt>
      <trkpt lat="62.63880790303" lon="17.995304371075">
        <ele>48</ele>
        <time>2018-03-28T18:13:10Z</time>
      </trkpt>
      <trkpt lat="62.638789127574" lon="17.995333540087">
        <ele>48</ele>
        <time>2018-03-28T18:13:11Z</time>
      </trkpt>
      <trkpt lat="62.638766580263" lon="17.995359859253">
        <ele>48.2</ele>
        <time>2018-03-28T18:13:12Z</time>
      </trkpt>
      <trkpt lat="62.638752917766" lon="17.99540872573">
        <ele>48.2</ele>
        <time>2018-03-28T18:13:13Z</time>
      </trkpt>
      <trkpt lat="62.638725508953" lon="17.995449880859">
        <ele>48.4</ele>
        <time>2018-03-28T18:13:14Z</time>
      </trkpt>
      <trkpt lat="62.63871067299" lon="17.995490113979">
        <ele>48.4</ele>
        <time>2018-03-28T18:13:15Z</time>
      </trkpt>
      <trkpt lat="62.638689466783" lon="17.995523390122">
        <ele>48.6</ele>
        <time>2018-03-28T18:13:16Z</time>
      </trkpt>
      <trkpt lat="62.638669936956" lon="17.995567898011">
        <ele>48.6</ele>
        <time>2018-03-28T18:13:17Z</time>
      </trkpt>
      <trkpt lat="62.638643031057" lon="17.995604946009">
        <ele>48.8</ele>
        <time>2018-03-28T18:13:18Z</time>
      </trkpt>
      <trkpt lat="62.638625345248" lon="17.995652722839">
        <ele>48.8</ele>
        <time>2018-03-28T18:13:19Z</time>
      </trkpt>
      <trkpt lat="62.638596846788" lon="17.995700583488">
        <ele>49</ele>
        <time>2018-03-28T18:13:20Z</time>
      </trkpt>
      <trkpt lat="62.638574718572" lon="17.995753473277">
        <ele>49</ele>
        <time>2018-03-28T18:13:21Z</time>
      </trkpt>
      <trkpt lat="62.638549405234" lon="17.995804854324">
        <ele>49</ele>
        <time>2018-03-28T18:13:22Z</time>
      </trkpt>
      <trkpt lat="62.638528199027" lon="17.995857325018">
        <ele>49.2</ele>
        <time>2018-03-28T18:13:23Z</time>
      </trkpt>
      <trkpt lat="62.638508250105" lon="17.995897306681">
        <ele>49.2</ele>
        <time>2018-03-28T18:13:24Z</time>
      </trkpt>
      <trkpt lat="62.638495761074" lon="17.995934689955">
        <ele>49.4</ele>
        <time>2018-03-28T18:13:25Z</time>
      </trkpt>
      <trkpt lat="62.638478075265" lon="17.995950364108">
        <ele>49.6</ele>
        <time>2018-03-28T18:13:26Z</time>
      </trkpt>
      <trkpt lat="62.638460808551" lon="17.995986406278">
        <ele>49.6</ele>
        <time>2018-03-28T18:13:27Z</time>
      </trkpt>
      <trkpt lat="62.638444882941" lon="17.996018006041">
        <ele>49.8</ele>
        <time>2018-03-28T18:13:28Z</time>
      </trkpt>
      <trkpt lat="62.638425101657" lon="17.996064609405">
        <ele>50</ele>
        <time>2018-03-28T18:13:29Z</time>
      </trkpt>
      <trkpt lat="62.638416552119" lon="17.996092856408">
        <ele>50</ele>
        <time>2018-03-28T18:13:30Z</time>
      </trkpt>
      <trkpt lat="62.638404230726" lon="17.996139124496">
        <ele>50.2</ele>
        <time>2018-03-28T18:13:31Z</time>
      </trkpt>
      <trkpt lat="62.638389981496" lon="17.996181453091">
        <ele>50.2</ele>
        <time>2018-03-28T18:13:32Z</time>
      </trkpt>
      <trkpt lat="62.638378246836" lon="17.996228224093">
        <ele>50.2</ele>
        <time>2018-03-28T18:13:33Z</time>
      </trkpt>
      <trkpt lat="62.638355615706" lon="17.996265607367">
        <ele>50.4</ele>
        <time>2018-03-28T18:13:34Z</time>
      </trkpt>
      <trkpt lat="62.638338181354" lon="17.996305337573">
        <ele>50.4</ele>
        <time>2018-03-28T18:13:35Z</time>
      </trkpt>
      <trkpt lat="62.638322842477" lon="17.996327130513">
        <ele>50.6</ele>
        <time>2018-03-28T18:13:36Z</time>
      </trkpt>
      <trkpt lat="62.638307419781" lon="17.996352108575">
        <ele>50.8</ele>
        <time>2018-03-28T18:13:37Z</time>
      </trkpt>
      <trkpt lat="62.638284453375" lon="17.996385384718">
        <ele>51</ele>
        <time>2018-03-28T18:13:38Z</time>
      </trkpt>
      <trkpt lat="62.638265677919" lon="17.996435257023">
        <ele>51.2</ele>
        <time>2018-03-28T18:13:39Z</time>
      </trkpt>
      <trkpt lat="62.638247489196" lon="17.996458810162">
        <ele>51.2</ele>
        <time>2018-03-28T18:13:40Z</time>
      </trkpt>
      <trkpt lat="62.638229132835" lon="17.996496780169">
        <ele>51</ele>
        <time>2018-03-28T18:13:41Z</time>
      </trkpt>
      <trkpt lat="62.63821027356" lon="17.996527793199">
        <ele>51</ele>
        <time>2018-03-28T18:13:42Z</time>
      </trkpt>
      <trkpt lat="62.638189234991" lon="17.996578168418">
        <ele>51</ele>
        <time>2018-03-28T18:13:43Z</time>
      </trkpt>
      <trkpt lat="62.638171549182" lon="17.996608427077">
        <ele>51</ele>
        <time>2018-03-28T18:13:44Z</time>
      </trkpt>
      <trkpt lat="62.638150594432" lon="17.996656706821">
        <ele>51.2</ele>
        <time>2018-03-28T18:13:45Z</time>
      </trkpt>
      <trkpt lat="62.638134417365" lon="17.996683528901">
        <ele>51.4</ele>
        <time>2018-03-28T18:13:46Z</time>
      </trkpt>
      <trkpt lat="62.638111953873" lon="17.996709848067">
        <ele>51.6</ele>
        <time>2018-03-28T18:13:47Z</time>
      </trkpt>
      <trkpt lat="62.638086053802" lon="17.996750751739">
        <ele>51.6</ele>
        <time>2018-03-28T18:13:48Z</time>
      </trkpt>
      <trkpt lat="62.638061159559" lon="17.996790398126">
        <ele>52</ele>
        <time>2018-03-28T18:13:49Z</time>
      </trkpt>
      <trkpt lat="62.638032074366" lon="17.996816717292">
        <ele>52</ele>
        <time>2018-03-28T18:13:50Z</time>
      </trkpt>
      <trkpt lat="62.638007934494" lon="17.996852256548">
        <ele>52.2</ele>
        <time>2018-03-28T18:13:51Z</time>
      </trkpt>
      <trkpt lat="62.637984129898" lon="17.996878743352">
        <ele>52.4</ele>
        <time>2018-03-28T18:13:52Z</time>
      </trkpt>
      <trkpt lat="62.637965438261" lon="17.996922999784">
        <ele>52.4</ele>
        <time>2018-03-28T18:13:53Z</time>
      </trkpt>
      <trkpt lat="62.637940963113" lon="17.99696272999">
        <ele>52.6</ele>
        <time>2018-03-28T18:13:54Z</time>
      </trkpt>
      <trkpt lat="62.637929396091" lon="17.997006064413">
        <ele>52.6</ele>
        <time>2018-03-28T18:13:55Z</time>
      </trkpt>
      <trkpt lat="62.637913721938" lon="17.997041184574">
        <ele>53</ele>
        <time>2018-03-28T18:13:56Z</time>
      </trkpt>
      <trkpt lat="62.637892431912" lon="17.997091392155">
        <ele>53</ele>
        <time>2018-03-28T18:13:57Z</time>
      </trkpt>
      <trkpt lat="62.637873907913" lon="17.997117208407">
        <ele>53.2</ele>
        <time>2018-03-28T18:13:58Z</time>
      </trkpt>
      <trkpt lat="62.637856808837" lon="17.997162638305">
        <ele>53</ele>
        <time>2018-03-28T18:13:59Z</time>
      </trkpt>
      <trkpt lat="62.637835686449" lon="17.997203039063">
        <ele>53.2</ele>
        <time>2018-03-28T18:14:00Z</time>
      </trkpt>
      <trkpt lat="62.637818252097" lon="17.997248301323">
        <ele>53</ele>
        <time>2018-03-28T18:14:01Z</time>
      </trkpt>
      <trkpt lat="62.637797464985" lon="17.997294904687">
        <ele>53.2</ele>
        <time>2018-03-28T18:14:02Z</time>
      </trkpt>
      <trkpt lat="62.637774163303" lon="17.997348548847">
        <ele>53.2</ele>
        <time>2018-03-28T18:14:03Z</time>
      </trkpt>
      <trkpt lat="62.637751280716" lon="17.997398421152">
        <ele>53.2</ele>
        <time>2018-03-28T18:14:04Z</time>
      </trkpt>
      <trkpt lat="62.637729320138" lon="17.997468829112">
        <ele>53.4</ele>
        <time>2018-03-28T18:14:05Z</time>
      </trkpt>
      <trkpt lat="62.637712221062" lon="17.997523898195">
        <ele>53.4</ele>
        <time>2018-03-28T18:14:06Z</time>
      </trkpt>
      <trkpt lat="62.637696630728" lon="17.997591121033">
        <ele>53.6</ele>
        <time>2018-03-28T18:14:07Z</time>
      </trkpt>
      <trkpt lat="62.637683219688" lon="17.997650464885">
        <ele>53.6</ele>
        <time>2018-03-28T18:14:08Z</time>
      </trkpt>
      <trkpt lat="62.637666204431" lon="17.997722297768">
        <ele>53.4</ele>
        <time>2018-03-28T18:14:09Z</time>
      </trkpt>
      <trkpt lat="62.637655140323" lon="17.997789101511">
        <ele>53.4</ele>
        <time>2018-03-28T18:14:10Z</time>
      </trkpt>
      <trkpt lat="62.637642735111" lon="17.997858503643">
        <ele>53.4</ele>
        <time>2018-03-28T18:14:11Z</time>
      </trkpt>
      <trkpt lat="62.637629240252" lon="17.997912902174">
        <ele>53.2</ele>
        <time>2018-03-28T18:14:12Z</time>
      </trkpt>
      <trkpt lat="62.637605854751" lon="17.997960595185">
        <ele>53.2</ele>
        <time>2018-03-28T18:14:13Z</time>
      </trkpt>
      <trkpt lat="62.637582553069" lon="17.99800711473">
        <ele>53.2</ele>
        <time>2018-03-28T18:14:14Z</time>
      </trkpt>
      <trkpt lat="62.637552210591" lon="17.998063608736">
        <ele>53.4</ele>
        <time>2018-03-28T18:14:15Z</time>
      </trkpt>
      <trkpt lat="62.637521532837" lon="17.998123790778">
        <ele>53.2</ele>
        <time>2018-03-28T18:14:16Z</time>
      </trkpt>
      <trkpt lat="62.637502338286" lon="17.998098058345">
        <ele>53.4</ele>
        <time>2018-03-28T18:14:17Z</time>
      </trkpt>
      <trkpt lat="62.63746763722" lon="17.998133932877">
        <ele>53.2</ele>
        <time>2018-03-28T18:14:18Z</time>
      </trkpt>
      <trkpt lat="62.637441234235" lon="17.99817810549">
        <ele>53.4</ele>
        <time>2018-03-28T18:14:19Z</time>
      </trkpt>
      <trkpt lat="62.637416591449" lon="17.998212387461">
        <ele>53.4</ele>
        <time>2018-03-28T18:14:20Z</time>
      </trkpt>
      <trkpt lat="62.637386919523" lon="17.998247507622">
        <ele>53.8</ele>
        <time>2018-03-28T18:14:21Z</time>
      </trkpt>
      <trkpt lat="62.637367641153" lon="17.99830551037">
        <ele>54</ele>
        <time>2018-03-28T18:14:22Z</time>
      </trkpt>
      <trkpt lat="62.637343166005" lon="17.998355969408">
        <ele>54.2</ele>
        <time>2018-03-28T18:14:23Z</time>
      </trkpt>
      <trkpt lat="62.637323300902" lon="17.99841698964">
        <ele>54.6</ele>
        <time>2018-03-28T18:14:24Z</time>
      </trkpt>
      <trkpt lat="62.637302849066" lon="17.998470047067">
        <ele>54.8</ele>
        <time>2018-03-28T18:14:25Z</time>
      </trkpt>
      <trkpt lat="62.637278457737" lon="17.998527714539">
        <ele>54.8</ele>
        <time>2018-03-28T18:14:26Z</time>
      </trkpt>
      <trkpt lat="62.637256664797" lon="17.998599379784">
        <ele>54.8</ele>
        <time>2018-03-28T18:14:27Z</time>
      </trkpt>
      <trkpt lat="62.63723713497" lon="17.998642630388">
        <ele>54.8</ele>
        <time>2018-03-28T18:14:28Z</time>
      </trkpt>
      <trkpt lat="62.637209055605" lon="17.998691329227">
        <ele>54.8</ele>
        <time>2018-03-28T18:14:29Z</time>
      </trkpt>
      <trkpt lat="62.637182568801" lon="17.998731729985">
        <ele>54.6</ele>
        <time>2018-03-28T18:14:30Z</time>
      </trkpt>
      <trkpt lat="62.637159518576" lon="17.998771795467">
        <ele>54.8</ele>
        <time>2018-03-28T18:14:31Z</time>
      </trkpt>
      <trkpt lat="62.637145436984" lon="17.998815548985">
        <ele>54.6</ele>
        <time>2018-03-28T18:14:32Z</time>
      </trkpt>
      <trkpt lat="62.637121213293" lon="17.998841616694">
        <ele>54.6</ele>
        <time>2018-03-28T18:14:33Z</time>
      </trkpt>
      <trkpt lat="62.637101180552" lon="17.998887298049">
        <ele>54.6</ele>
        <time>2018-03-28T18:14:34Z</time>
      </trkpt>
      <trkpt lat="62.63707033516" lon="17.998928956092">
        <ele>54.8</ele>
        <time>2018-03-28T18:14:35Z</time>
      </trkpt>
      <trkpt lat="62.637050050962" lon="17.998975727094">
        <ele>54.8</ele>
        <time>2018-03-28T18:14:36Z</time>
      </trkpt>
      <trkpt lat="62.637021971597" lon="17.999007326857">
        <ele>55.2</ele>
        <time>2018-03-28T18:14:37Z</time>
      </trkpt>
      <trkpt lat="62.637002944684" lon="17.999043452846">
        <ele>55.4</ele>
        <time>2018-03-28T18:14:38Z</time>
      </trkpt>
      <trkpt lat="62.636981235563" lon="17.999080417025">
        <ele>55.6</ele>
        <time>2018-03-28T18:14:39Z</time>
      </trkpt>
      <trkpt lat="62.636964555582" lon="17.999112603521">
        <ele>55.6</ele>
        <time>2018-03-28T18:14:40Z</time>
      </trkpt>
      <trkpt lat="62.636942511185" lon="17.999143616551">
        <ele>55.8</ele>
        <time>2018-03-28T18:14:41Z</time>
      </trkpt>
      <trkpt lat="62.63691946096" lon="17.999182760024">
        <ele>56</ele>
        <time>2018-03-28T18:14:42Z</time>
      </trkpt>
      <trkpt lat="62.636898170934" lon="17.999234392528">
        <ele>56</ele>
        <time>2018-03-28T18:14:43Z</time>
      </trkpt>
      <trkpt lat="62.636876042718" lon="17.999274374191">
        <ele>56.4</ele>
        <time>2018-03-28T18:14:44Z</time>
      </trkpt>
      <trkpt lat="62.636850226466" lon="17.999314607311">
        <ele>56.6</ele>
        <time>2018-03-28T18:14:45Z</time>
      </trkpt>
      <trkpt lat="62.636828601164" lon="17.999350984757">
        <ele>56.8</ele>
        <time>2018-03-28T18:14:46Z</time>
      </trkpt>
      <trkpt lat="62.636797420496" lon="17.999387278384">
        <ele>57</ele>
        <time>2018-03-28T18:14:47Z</time>
      </trkpt>
      <trkpt lat="62.636777890669" lon="17.999416195939">
        <ele>57</ele>
        <time>2018-03-28T18:14:48Z</time>
      </trkpt>
      <trkpt lat="62.636754169892" lon="17.999448047159">
        <ele>57.2</ele>
        <time>2018-03-28T18:14:49Z</time>
      </trkpt>
      <trkpt lat="62.636736316445" lon="17.999492303591">
        <ele>57.2</ele>
        <time>2018-03-28T18:14:50Z</time>
      </trkpt>
      <trkpt lat="62.636711506021" lon="17.999528094304">
        <ele>57</ele>
        <time>2018-03-28T18:14:51Z</time>
      </trkpt>
      <trkpt lat="62.636687114692" lon="17.999570841994">
        <ele>57.2</ele>
        <time>2018-03-28T18:14:52Z</time>
      </trkpt>
      <trkpt lat="62.636664483562" lon="17.999614260236">
        <ele>57.2</ele>
        <time>2018-03-28T18:14:53Z</time>
      </trkpt>
      <trkpt lat="62.636648809409" lon="17.999674693735">
        <ele>57.2</ele>
        <time>2018-03-28T18:14:54Z</time>
      </trkpt>
      <trkpt lat="62.636629531039" lon="17.999716016502">
        <ele>57.2</ele>
        <time>2018-03-28T18:14:55Z</time>
      </trkpt>
      <trkpt lat="62.636613102515" lon="17.999771588499">
        <ele>57.2</ele>
        <time>2018-03-28T18:14:56Z</time>
      </trkpt>
      <trkpt lat="62.636598182733" lon="17.999813497999">
        <ele>57</ele>
        <time>2018-03-28T18:14:57Z</time>
      </trkpt>
      <trkpt lat="62.636586280435" lon="17.99986789653">
        <ele>56.8</ele>
        <time>2018-03-28T18:14:58Z</time>
      </trkpt>
      <trkpt lat="62.636572282662" lon="17.999923971441">
        <ele>57</ele>
        <time>2018-03-28T18:14:59Z</time>
      </trkpt>
      <trkpt lat="62.636557195242" lon="17.999981555094">
        <ele>57</ele>
        <time>2018-03-28T18:15:00Z</time>
      </trkpt>
      <trkpt lat="62.636536156673" lon="18.000038216738">
        <ele>57</ele>
        <time>2018-03-28T18:15:01Z</time>
      </trkpt>
      <trkpt lat="62.636505981833" lon="18.000109965802">
        <ele>57.2</ele>
        <time>2018-03-28T18:15:02Z</time>
      </trkpt>
      <trkpt lat="62.636495169182" lon="18.00017635045">
        <ele>57.2</ele>
        <time>2018-03-28T18:15:03Z</time>
      </trkpt>
      <trkpt lat="62.6364718675" lon="18.000251033179">
        <ele>57.2</ele>
        <time>2018-03-28T18:15:04Z</time>
      </trkpt>
      <trkpt lat="62.636449320189" lon="18.000330661229">
        <ele>57.2</ele>
        <time>2018-03-28T18:15:05Z</time>
      </trkpt>
      <trkpt lat="62.636422665747" lon="18.000382880466">
        <ele>57.4</ele>
        <time>2018-03-28T18:15:06Z</time>
      </trkpt>
      <trkpt lat="62.636400369893" lon="18.000433088047">
        <ele>57.2</ele>
        <time>2018-03-28T18:15:07Z</time>
      </trkpt>
      <trkpt lat="62.636388299957" lon="18.000468627303">
        <ele>57.2</ele>
        <time>2018-03-28T18:15:08Z</time>
      </trkpt>
      <trkpt lat="62.636377906401" lon="18.000522690558">
        <ele>57.2</ele>
        <time>2018-03-28T18:15:09Z</time>
      </trkpt>
      <trkpt lat="62.636354437081" lon="18.000596702735">
        <ele>57.2</ele>
        <time>2018-03-28T18:15:10Z</time>
      </trkpt>
      <trkpt lat="62.636334739616" lon="18.000651520361">
        <ele>57.2</ele>
        <time>2018-03-28T18:15:11Z</time>
      </trkpt>
      <trkpt lat="62.636316634712" lon="18.00071614481">
        <ele>57.2</ele>
        <time>2018-03-28T18:15:12Z</time>
      </trkpt>
      <trkpt lat="62.636296434333" lon="18.000787642417">
        <ele>57.4</ele>
        <time>2018-03-28T18:15:13Z</time>
      </trkpt>
      <trkpt lat="62.636277072144" lon="18.000845477527">
        <ele>57.4</ele>
        <time>2018-03-28T18:15:14Z</time>
      </trkpt>
      <trkpt lat="62.636252010263" lon="18.000903983189">
        <ele>57.2</ele>
        <time>2018-03-28T18:15:15Z</time>
      </trkpt>
      <trkpt lat="62.636231223151" lon="18.000957627349">
        <ele>57.2</ele>
        <time>2018-03-28T18:15:16Z</time>
      </trkpt>
      <trkpt lat="62.636210603677" lon="18.001014624269">
        <ele>57.2</ele>
        <time>2018-03-28T18:15:17Z</time>
      </trkpt>
      <trkpt lat="62.636195516257" lon="18.001079583994">
        <ele>57.2</ele>
        <time>2018-03-28T18:15:18Z</time>
      </trkpt>
      <trkpt lat="62.636177159896" lon="18.00115787094">
        <ele>57.4</ele>
        <time>2018-03-28T18:15:19Z</time>
      </trkpt>
      <trkpt lat="62.63615922263" lon="18.001235487334">
        <ele>57.4</ele>
        <time>2018-03-28T18:15:20Z</time>
      </trkpt>
      <trkpt lat="62.636136088586" lon="18.001309331873">
        <ele>57.4</ele>
        <time>2018-03-28T18:15:21Z</time>
      </trkpt>
      <trkpt lat="62.636124605383" lon="18.001375045969">
        <ele>57.4</ele>
        <time>2018-03-28T18:15:22Z</time>
      </trkpt>
      <trkpt lat="62.636111026705" lon="18.001414943813">
        <ele>57.4</ele>
        <time>2018-03-28T18:15:23Z</time>
      </trkpt>
      <trkpt lat="62.636093257077" lon="18.001478981529">
        <ele>57.4</ele>
        <time>2018-03-28T18:15:24Z</time>
      </trkpt>
      <trkpt lat="62.636073643431" lon="18.001535307897">
        <ele>57.4</ele>
        <time>2018-03-28T18:15:25Z</time>
      </trkpt>
      <trkpt lat="62.636050341749" lon="18.001593897378">
        <ele>57.4</ele>
        <time>2018-03-28T18:15:26Z</time>
      </trkpt>
      <trkpt lat="62.636024944592" lon="18.00164988847">
        <ele>57.6</ele>
        <time>2018-03-28T18:15:27Z</time>
      </trkpt>
      <trkpt lat="62.636000134168" lon="18.001697330024">
        <ele>57.6</ele>
        <time>2018-03-28T18:15:28Z</time>
      </trkpt>
      <trkpt lat="62.635982113083" lon="18.00175130946">
        <ele>57.4</ele>
        <time>2018-03-28T18:15:29Z</time>
      </trkpt>
      <trkpt lat="62.63596476255" lon="18.001810569493">
        <ele>57.4</ele>
        <time>2018-03-28T18:15:30Z</time>
      </trkpt>
      <trkpt lat="62.635937856651" lon="18.001874355752">
        <ele>57.6</ele>
        <time>2018-03-28T18:15:31Z</time>
      </trkpt>
      <trkpt lat="62.635897791169" lon="18.001946020997">
        <ele>57.6</ele>
        <time>2018-03-28T18:15:32Z</time>
      </trkpt>
      <trkpt lat="62.63586753251" lon="18.00199438456">
        <ele>57.6</ele>
        <time>2018-03-28T18:15:33Z</time>
      </trkpt>
      <trkpt lat="62.635842554448" lon="18.002042329028">
        <ele>57.6</ele>
        <time>2018-03-28T18:15:34Z</time>
      </trkpt>
      <trkpt lat="62.635815313273" lon="18.002100918509">
        <ele>57.8</ele>
        <time>2018-03-28T18:15:35Z</time>
      </trkpt>
      <trkpt lat="62.635786563356" lon="18.002149365891">
        <ele>57.6</ele>
        <time>2018-03-28T18:15:36Z</time>
      </trkpt>
      <trkpt lat="62.635763848407" lon="18.002216672548">
        <ele>57.8</ele>
        <time>2018-03-28T18:15:37Z</time>
      </trkpt>
      <trkpt lat="62.635746162598" lon="18.002288170155">
        <ele>57.6</ele>
        <time>2018-03-28T18:15:38Z</time>
      </trkpt>
      <trkpt lat="62.635725626943" lon="18.002381376883">
        <ele>57.6</ele>
        <time>2018-03-28T18:15:39Z</time>
      </trkpt>
      <trkpt lat="62.635708527867" lon="18.002457233078">
        <ele>57.4</ele>
        <time>2018-03-28T18:15:40Z</time>
      </trkpt>
      <trkpt lat="62.635697799035" lon="18.002569885814">
        <ele>57.4</ele>
        <time>2018-03-28T18:15:41Z</time>
      </trkpt>
      <trkpt lat="62.63568480709" lon="18.002663930732">
        <ele>57.2</ele>
        <time>2018-03-28T18:15:42Z</time>
      </trkpt>
      <trkpt lat="62.635677850113" lon="18.002777505477">
        <ele>57.2</ele>
        <time>2018-03-28T18:15:43Z</time>
      </trkpt>
      <trkpt lat="62.635652369137" lon="18.002877082449">
        <ele>57</ele>
        <time>2018-03-28T18:15:44Z</time>
      </trkpt>
      <trkpt lat="62.635623283944" lon="18.00298344876">
        <ele>56.4</ele>
        <time>2018-03-28T18:15:45Z</time>
      </trkpt>
      <trkpt lat="62.635597551511" lon="18.003079421515">
        <ele>55.8</ele>
        <time>2018-03-28T18:15:46Z</time>
      </trkpt>
      <trkpt lat="62.635569807422" lon="18.003174975175">
        <ele>55.4</ele>
        <time>2018-03-28T18:15:47Z</time>
      </trkpt>
      <trkpt lat="62.635545499912" lon="18.003258877994">
        <ele>54.6</ele>
        <time>2018-03-28T18:15:48Z</time>
      </trkpt>
      <trkpt lat="62.635518426375" lon="18.003343199908">
        <ele>54</ele>
        <time>2018-03-28T18:15:49Z</time>
      </trkpt>
      <trkpt lat="62.635494621779" lon="18.003422492682">
        <ele>54</ele>
        <time>2018-03-28T18:15:50Z</time>
      </trkpt>
      <trkpt lat="62.63547190683" lon="18.003506730777">
        <ele>53.8</ele>
        <time>2018-03-28T18:15:51Z</time>
      </trkpt>
      <trkpt lat="62.635453801926" lon="18.003606978301">
        <ele>53.8</ele>
        <time>2018-03-28T18:15:52Z</time>
      </trkpt>
      <trkpt lat="62.635432092805" lon="18.003704962712">
        <ele>53.8</ele>
        <time>2018-03-28T18:15:53Z</time>
      </trkpt>
      <trkpt lat="62.635416251014" lon="18.003791128644">
        <ele>54.2</ele>
        <time>2018-03-28T18:15:54Z</time>
      </trkpt>
      <trkpt lat="62.63539563154" lon="18.003903697561">
        <ele>54.4</ele>
        <time>2018-03-28T18:15:55Z</time>
      </trkpt>
      <trkpt lat="62.63539395516" lon="18.004061444919">
        <ele>54.6</ele>
        <time>2018-03-28T18:15:56Z</time>
      </trkpt>
      <trkpt lat="62.635395380083" lon="18.004184491211">
        <ele>54.4</ele>
        <time>2018-03-28T18:15:57Z</time>
      </trkpt>
      <trkpt lat="62.635376939903" lon="18.004273004075">
        <ele>54.2</ele>
        <time>2018-03-28T18:15:58Z</time>
      </trkpt>
      <trkpt lat="62.635354392592" lon="18.004380460033">
        <ele>53.8</ele>
        <time>2018-03-28T18:15:59Z</time>
      </trkpt>
      <trkpt lat="62.635327067598" lon="18.004468553802">
        <ele>53.6</ele>
        <time>2018-03-28T18:16:00Z</time>
      </trkpt>
      <trkpt lat="62.635298233862" lon="18.004535609002">
        <ele>53.6</ele>
        <time>2018-03-28T18:16:01Z</time>
      </trkpt>
      <trkpt lat="62.635265376814" lon="18.004607106609">
        <ele>53.4</ele>
        <time>2018-03-28T18:16:02Z</time>
      </trkpt>
      <trkpt lat="62.635228747911" lon="18.004670306135">
        <ele>53.6</ele>
        <time>2018-03-28T18:16:03Z</time>
      </trkpt>
      <trkpt lat="62.635200920003" lon="18.004744737407">
        <ele>53.6</ele>
        <time>2018-03-28T18:16:04Z</time>
      </trkpt>
      <trkpt lat="62.635157837037" lon="18.004778432645">
        <ele>53.8</ele>
        <time>2018-03-28T18:16:05Z</time>
      </trkpt>
      <trkpt lat="62.635123974161" lon="18.004836016298">
        <ele>53.6</ele>
        <time>2018-03-28T18:16:06Z</time>
      </trkpt>
      <trkpt lat="62.635085249783" lon="18.004896701254">
        <ele>53.6</ele>
        <time>2018-03-28T18:16:07Z</time>
      </trkpt>
      <trkpt lat="62.635050045803" lon="18.004948417577">
        <ele>54</ele>
        <time>2018-03-28T18:16:08Z</time>
      </trkpt>
      <trkpt lat="62.635017104936" lon="18.005012539112">
        <ele>54</ele>
        <time>2018-03-28T18:16:09Z</time>
      </trkpt>
      <trkpt lat="62.63499246215" lon="18.005053526603">
        <ele>54</ele>
        <time>2018-03-28T18:16:10Z</time>
      </trkpt>
      <trkpt lat="62.634960946206" lon="18.005105578202">
        <ele>54</ele>
        <time>2018-03-28T18:16:11Z</time>
      </trkpt>
      <trkpt lat="62.634929849357" lon="18.00516022819">
        <ele>54.2</ele>
        <time>2018-03-28T18:16:12Z</time>
      </trkpt>
      <trkpt lat="62.634905206571" lon="18.00521638692">
        <ele>54</ele>
        <time>2018-03-28T18:16:13Z</time>
      </trkpt>
      <trkpt lat="62.634879725595" lon="18.005281514283">
        <ele>53.8</ele>
        <time>2018-03-28T18:16:14Z</time>
      </trkpt>
      <trkpt lat="62.634859944311" lon="18.005335493719">
        <ele>54</ele>
        <time>2018-03-28T18:16:15Z</time>
      </trkpt>
      <trkpt lat="62.634833373688" lon="18.005387796775">
        <ele>54</ele>
        <time>2018-03-28T18:16:16Z</time>
      </trkpt>
      <trkpt lat="62.634805210504" lon="18.005428113714">
        <ele>54.2</ele>
        <time>2018-03-28T18:16:17Z</time>
      </trkpt>
      <trkpt lat="62.634778388424" lon="18.005455941622">
        <ele>54.2</ele>
        <time>2018-03-28T18:16:18Z</time>
      </trkpt>
      <trkpt lat="62.634748213584" lon="18.005493743991">
        <ele>54.2</ele>
        <time>2018-03-28T18:16:19Z</time>
      </trkpt>
      <trkpt lat="62.63471837402" lon="18.005520566071">
        <ele>54.4</ele>
        <time>2018-03-28T18:16:20Z</time>
      </trkpt>
      <trkpt lat="62.634692976863" lon="18.005540263536">
        <ele>54.2</ele>
        <time>2018-03-28T18:16:21Z</time>
      </trkpt>
      <trkpt lat="62.634664813679" lon="18.005562894666">
        <ele>54.4</ele>
        <time>2018-03-28T18:16:22Z</time>
      </trkpt>
      <trkpt lat="62.634636901952" lon="18.005593237144">
        <ele>54.4</ele>
        <time>2018-03-28T18:16:23Z</time>
      </trkpt>
      <trkpt lat="62.634610582786" lon="18.005632045341">
        <ele>54.6</ele>
        <time>2018-03-28T18:16:24Z</time>
      </trkpt>
      <trkpt lat="62.634598093755" lon="18.005663393647">
        <ele>54.4</ele>
        <time>2018-03-28T18:16:25Z</time>
      </trkpt>
      <trkpt lat="62.63457839629" lon="18.005701363654">
        <ele>54.8</ele>
        <time>2018-03-28T18:16:26Z</time>
      </trkpt>
      <trkpt lat="62.634556519531" lon="18.005743524611">
        <ele>54.8</ele>
        <time>2018-03-28T18:16:27Z</time>
      </trkpt>
      <trkpt lat="62.634542437939" lon="18.005788703052">
        <ele>55</ele>
        <time>2018-03-28T18:16:28Z</time>
      </trkpt>
      <trkpt lat="62.634525171225" lon="18.005838575357">
        <ele>55</ele>
        <time>2018-03-28T18:16:29Z</time>
      </trkpt>
      <trkpt lat="62.634507736873" lon="18.005882831789">
        <ele>55.4</ele>
        <time>2018-03-28T18:16:30Z</time>
      </trkpt>
      <trkpt lat="62.634488039408" lon="18.00593136299">
        <ele>55.4</ele>
        <time>2018-03-28T18:16:31Z</time>
      </trkpt>
      <trkpt lat="62.634466665563" lon="18.005987102625">
        <ele>55.4</ele>
        <time>2018-03-28T18:16:32Z</time>
      </trkpt>
      <trkpt lat="62.634447806288" lon="18.006033286894">
        <ele>55.6</ele>
        <time>2018-03-28T18:16:33Z</time>
      </trkpt>
      <trkpt lat="62.634428276461" lon="18.006083997389">
        <ele>55.6</ele>
        <time>2018-03-28T18:16:34Z</time>
      </trkpt>
      <trkpt lat="62.634400197096" lon="18.006141832499">
        <ele>55.4</ele>
        <time>2018-03-28T18:16:35Z</time>
      </trkpt>
      <trkpt lat="62.634380751088" lon="18.006196566306">
        <ele>55.4</ele>
        <time>2018-03-28T18:16:36Z</time>
      </trkpt>
      <trkpt lat="62.634364071107" lon="18.006258508547">
        <ele>55.4</ele>
        <time>2018-03-28T18:16:37Z</time>
      </trkpt>
      <trkpt lat="62.634341775253" lon="18.006304441359">
        <ele>55.4</ele>
        <time>2018-03-28T18:16:38Z</time>
      </trkpt>
      <trkpt lat="62.634315372268" lon="18.006355738587">
        <ele>55.4</ele>
        <time>2018-03-28T18:16:39Z</time>
      </trkpt>
      <trkpt lat="62.634299446658" lon="18.00639488206">
        <ele>55.4</ele>
        <time>2018-03-28T18:16:40Z</time>
      </trkpt>
      <trkpt lat="62.634274636234" lon="18.006443748537">
        <ele>55.4</ele>
        <time>2018-03-28T18:16:41Z</time>
      </trkpt>
      <trkpt lat="62.634245802498" lon="18.006499907267">
        <ele>55.4</ele>
        <time>2018-03-28T18:16:42Z</time>
      </trkpt>
      <trkpt lat="62.634223674282" lon="18.006549276658">
        <ele>55.4</ele>
        <time>2018-03-28T18:16:43Z</time>
      </trkpt>
      <trkpt lat="62.63420540174" lon="18.006613230555">
        <ele>55.4</ele>
        <time>2018-03-28T18:16:44Z</time>
      </trkpt>
      <trkpt lat="62.634182183877" lon="18.006674083149">
        <ele>55.2</ele>
        <time>2018-03-28T18:16:45Z</time>
      </trkpt>
      <trkpt lat="62.634162067317" lon="18.006725045101">
        <ele>55.2</ele>
        <time>2018-03-28T18:16:46Z</time>
      </trkpt>
      <trkpt lat="62.634152009037" lon="18.006787909351">
        <ele>55.2</ele>
        <time>2018-03-28T18:16:47Z</time>
      </trkpt>
      <trkpt lat="62.634121834197" lon="18.006856473293">
        <ele>55.4</ele>
        <time>2018-03-28T18:16:48Z</time>
      </trkpt>
      <trkpt lat="62.634098197239" lon="18.00692545633">
        <ele>55.2</ele>
        <time>2018-03-28T18:16:49Z</time>
      </trkpt>
      <trkpt lat="62.634079086507" lon="18.006973568436">
        <ele>55.4</ele>
        <time>2018-03-28T18:16:50Z</time>
      </trkpt>
      <trkpt lat="62.634056874472" lon="18.007028134605">
        <ele>55.6</ele>
        <time>2018-03-28T18:16:51Z</time>
      </trkpt>
      <trkpt lat="62.634036590274" lon="18.007096866185">
        <ele>55.6</ele>
        <time>2018-03-28T18:16:52Z</time>
      </trkpt>
      <trkpt lat="62.634018150094" lon="18.007157048227">
        <ele>55.6</ele>
        <time>2018-03-28T18:16:53Z</time>
      </trkpt>
      <trkpt lat="62.634009768194" lon="18.007203819229">
        <ele>55.6</ele>
        <time>2018-03-28T18:16:54Z</time>
      </trkpt>
      <trkpt lat="62.633986717969" lon="18.007256038466">
        <ele>55.6</ele>
        <time>2018-03-28T18:16:55Z</time>
      </trkpt>
      <trkpt lat="62.633964589753" lon="18.007316304327">
        <ele>55.4</ele>
        <time>2018-03-28T18:16:56Z</time>
      </trkpt>
      <trkpt lat="62.633940617519" lon="18.00736969703">
        <ele>55.4</ele>
        <time>2018-03-28T18:16:57Z</time>
      </trkpt>
      <trkpt lat="62.633902228417" lon="18.007418647326">
        <ele>55.2</ele>
        <time>2018-03-28T18:16:58Z</time>
      </trkpt>
      <trkpt lat="62.633868616998" lon="18.007445637044">
        <ele>55.2</ele>
        <time>2018-03-28T18:16:59Z</time>
      </trkpt>
      <trkpt lat="62.633833077742" lon="18.007473967866">
        <ele>55.4</ele>
        <time>2018-03-28T18:17:00Z</time>
      </trkpt>
      <trkpt lat="62.633798711952" lon="18.007473548771">
        <ele>55.4</ele>
        <time>2018-03-28T18:17:01Z</time>
      </trkpt>
      <trkpt lat="62.633762921239" lon="18.007477069169">
        <ele>55.2</ele>
        <time>2018-03-28T18:17:02Z</time>
      </trkpt>
      <trkpt lat="62.633732494942" lon="18.007469190183">
        <ele>55.2</ele>
        <time>2018-03-28T18:17:03Z</time>
      </trkpt>
      <trkpt lat="62.633703577387" lon="18.007444379759">
        <ele>55.2</ele>
        <time>2018-03-28T18:17:04Z</time>
      </trkpt>
      <trkpt lat="62.633673654004" lon="18.007420742801">
        <ele>55</ele>
        <time>2018-03-28T18:17:05Z</time>
      </trkpt>
      <trkpt lat="62.633647251019" lon="18.007403643725">
        <ele>55</ele>
        <time>2018-03-28T18:17:06Z</time>
      </trkpt>
      <trkpt lat="62.633621770043" lon="18.007388472486">
        <ele>55.2</ele>
        <time>2018-03-28T18:17:07Z</time>
      </trkpt>
      <trkpt lat="62.633596791981" lon="18.007364919347">
        <ele>55.4</ele>
        <time>2018-03-28T18:17:08Z</time>
      </trkpt>
      <trkpt lat="62.633570808091" lon="18.007338264905">
        <ele>55.6</ele>
        <time>2018-03-28T18:17:09Z</time>
      </trkpt>
      <trkpt lat="62.633548679875" lon="18.007326530245">
        <ele>56</ele>
        <time>2018-03-28T18:17:10Z</time>
      </trkpt>
      <trkpt lat="62.633526635478" lon="18.007296690681">
        <ele>56.4</ele>
        <time>2018-03-28T18:17:11Z</time>
      </trkpt>
      <trkpt lat="62.633500986864" lon="18.007271461162">
        <ele>56.4</ele>
        <time>2018-03-28T18:17:12Z</time>
      </trkpt>
      <trkpt lat="62.633478774829" lon="18.007237849743">
        <ele>56.6</ele>
        <time>2018-03-28T18:17:13Z</time>
      </trkpt>
      <trkpt lat="62.633449941093" lon="18.007217397907">
        <ele>56.8</ele>
        <time>2018-03-28T18:17:14Z</time>
      </trkpt>
      <trkpt lat="62.633425968859" lon="18.007179176443">
        <ele>57</ele>
        <time>2018-03-28T18:17:15Z</time>
      </trkpt>
      <trkpt lat="62.633402834815" lon="18.007157383503">
        <ele>56.8</ele>
        <time>2018-03-28T18:17:16Z</time>
      </trkpt>
      <trkpt lat="62.633385149006" lon="18.007124694093">
        <ele>56.8</ele>
        <time>2018-03-28T18:17:17Z</time>
      </trkpt>
      <trkpt lat="62.633362014962" lon="18.00708890338">
        <ele>57</ele>
        <time>2018-03-28T18:17:18Z</time>
      </trkpt>
      <trkpt lat="62.633342233678" lon="18.007042132378">
        <ele>57</ele>
        <time>2018-03-28T18:17:19Z</time>
      </trkpt>
      <trkpt lat="62.633322033299" lon="18.006987566209">
        <ele>57</ele>
        <time>2018-03-28T18:17:20Z</time>
      </trkpt>
      <trkpt lat="62.633314741046" lon="18.006951943134">
        <ele>57</ele>
        <time>2018-03-28T18:17:21Z</time>
      </trkpt>
      <trkpt lat="62.633311220648" lon="18.006906261779">
        <ele>57.2</ele>
        <time>2018-03-28T18:17:22Z</time>
      </trkpt>
      <trkpt lat="62.633299653626" lon="18.00686678303">
        <ele>57.4</ele>
        <time>2018-03-28T18:17:23Z</time>
      </trkpt>
      <trkpt lat="62.633294205391" lon="18.00680559516">
        <ele>57.4</ele>
        <time>2018-03-28T18:17:24Z</time>
      </trkpt>
      <trkpt lat="62.633289595346" lon="18.006752370095">
        <ele>57.6</ele>
        <time>2018-03-28T18:17:25Z</time>
      </trkpt>
      <trkpt lat="62.633284733844" lon="18.006699647944">
        <ele>57.8</ele>
        <time>2018-03-28T18:17:26Z</time>
      </trkpt>
      <trkpt lat="62.633283979473" lon="18.006644578861">
        <ele>57.8</ele>
        <time>2018-03-28T18:17:27Z</time>
      </trkpt>
      <trkpt lat="62.633279956161" lon="18.006596969669">
        <ele>58</ele>
        <time>2018-03-28T18:17:28Z</time>
      </trkpt>
      <trkpt lat="62.633274591745" lon="18.006540224206">
        <ele>58.2</ele>
        <time>2018-03-28T18:17:29Z</time>
      </trkpt>
      <trkpt lat="62.63326914351" lon="18.006482724372">
        <ele>58.4</ele>
        <time>2018-03-28T18:17:30Z</time>
      </trkpt>
      <trkpt lat="62.633268053863" lon="18.0064334388">
        <ele>58.6</ele>
        <time>2018-03-28T18:17:31Z</time>
      </trkpt>
      <trkpt lat="62.633265036379" lon="18.006389350006">
        <ele>58.8</ele>
        <time>2018-03-28T18:17:32Z</time>
      </trkpt>
      <trkpt lat="62.633267299492" lon="18.0063412379">
        <ele>58.8</ele>
        <time>2018-03-28T18:17:33Z</time>
      </trkpt>
      <trkpt lat="62.633258079402" lon="18.006301340056">
        <ele>59</ele>
        <time>2018-03-28T18:17:34Z</time>
      </trkpt>
      <trkpt lat="62.633251122425" lon="18.006245013688">
        <ele>59.6</ele>
        <time>2018-03-28T18:17:35Z</time>
      </trkpt>
      <trkpt lat="62.633249697502" lon="18.006201763084">
        <ele>59.6</ele>
        <time>2018-03-28T18:17:36Z</time>
      </trkpt>
      <trkpt lat="62.633245255095" lon="18.006170498597">
        <ele>60</ele>
        <time>2018-03-28T18:17:37Z</time>
      </trkpt>
      <trkpt lat="62.633243578715" lon="18.006122554129">
        <ele>60</ele>
        <time>2018-03-28T18:17:38Z</time>
      </trkpt>
      <trkpt lat="62.633245087457" lon="18.006081650457">
        <ele>60.4</ele>
        <time>2018-03-28T18:17:39Z</time>
      </trkpt>
      <trkpt lat="62.63325070333" lon="18.006052397626">
        <ele>60.4</ele>
        <time>2018-03-28T18:17:40Z</time>
      </trkpt>
      <trkpt lat="62.633251290063" lon="18.006002944416">
        <ele>60.2</ele>
        <time>2018-03-28T18:17:41Z</time>
      </trkpt>
      <trkpt lat="62.633252212072" lon="18.005960532002">
        <ele>60.2</ele>
        <time>2018-03-28T18:17:42Z</time>
      </trkpt>
      <trkpt lat="62.633253301719" lon="18.005938822881">
        <ele>60.6</ele>
        <time>2018-03-28T18:17:43Z</time>
      </trkpt>
      <trkpt lat="62.633253553176" lon="18.005912838991">
        <ele>60.8</ele>
        <time>2018-03-28T18:17:44Z</time>
      </trkpt>
      <trkpt lat="62.633251290063" lon="18.005896075191">
        <ele>61</ele>
        <time>2018-03-28T18:17:45Z</time>
      </trkpt>
      <trkpt lat="62.633252547348" lon="18.005899930865">
        <ele>61.2</ele>
        <time>2018-03-28T18:17:46Z</time>
      </trkpt>
      <trkpt lat="62.633248524036" lon="18.005874533708">
        <ele>61.2</ele>
        <time>2018-03-28T18:17:47Z</time>
      </trkpt>
      <trkpt lat="62.633249362226" lon="18.005853578958">
        <ele>61.4</ele>
        <time>2018-03-28T18:17:48Z</time>
      </trkpt>
      <trkpt lat="62.633248775493" lon="18.005833378579">
        <ele>61.6</ele>
        <time>2018-03-28T18:17:49Z</time>
      </trkpt>
      <trkpt lat="62.633244919819" lon="18.005813764933">
        <ele>61.8</ele>
        <time>2018-03-28T18:17:50Z</time>
      </trkpt>
      <trkpt lat="62.633244333086" lon="18.005799264246">
        <ele>61.8</ele>
        <time>2018-03-28T18:17:51Z</time>
      </trkpt>
      <trkpt lat="62.633244919819" lon="18.005788954509">
        <ele>62</ele>
        <time>2018-03-28T18:17:52Z</time>
      </trkpt>
      <trkpt lat="62.633245255095" lon="18.005765485189">
        <ele>62.2</ele>
        <time>2018-03-28T18:17:53Z</time>
      </trkpt>
      <trkpt lat="62.633244752181" lon="18.00574193205">
        <ele>62.6</ele>
        <time>2018-03-28T18:17:54Z</time>
      </trkpt>
      <trkpt lat="62.633244416905" lon="18.00572181549">
        <ele>62.8</ele>
        <time>2018-03-28T18:17:55Z</time>
      </trkpt>
      <trkpt lat="62.633243494896" lon="18.005709913192">
        <ele>63</ele>
        <time>2018-03-28T18:17:56Z</time>
      </trkpt>
      <trkpt lat="62.633244249267" lon="18.005698849084">
        <ele>63.4</ele>
        <time>2018-03-28T18:17:57Z</time>
      </trkpt>
      <trkpt lat="62.633246596199" lon="18.0056874497">
        <ele>63.4</ele>
        <time>2018-03-28T18:17:58Z</time>
      </trkpt>
      <trkpt lat="62.633240058317" lon="18.005678061972">
        <ele>63.6</ele>
        <time>2018-03-28T18:17:59Z</time>
      </trkpt>
      <trkpt lat="62.633236286462" lon="18.005634895187">
        <ele>63.8</ele>
        <time>2018-03-28T18:18:00Z</time>
      </trkpt>
      <trkpt lat="62.633236789376" lon="18.00561787993">
        <ele>64</ele>
        <time>2018-03-28T18:18:01Z</time>
      </trkpt>
      <trkpt lat="62.633236286462" lon="18.005605726175">
        <ele>64.4</ele>
        <time>2018-03-28T18:18:02Z</time>
      </trkpt>
      <trkpt lat="62.633236957014" lon="18.005592315135">
        <ele>64.8</ele>
        <time>2018-03-28T18:18:03Z</time>
      </trkpt>
      <trkpt lat="62.633235448272" lon="18.005570773652">
        <ele>65</ele>
        <time>2018-03-28T18:18:04Z</time>
      </trkpt>
      <trkpt lat="62.633238801032" lon="18.005546549961">
        <ele>65.2</ele>
        <time>2018-03-28T18:18:05Z</time>
      </trkpt>
      <trkpt lat="62.633240477412" lon="18.005531211084">
        <ele>65.4</ele>
        <time>2018-03-28T18:18:06Z</time>
      </trkpt>
      <trkpt lat="62.633239639222" lon="18.00551059161">
        <ele>65.6</ele>
        <time>2018-03-28T18:18:07Z</time>
      </trkpt>
      <trkpt lat="62.633240477412" lon="18.005497515846">
        <ele>65.6</ele>
        <time>2018-03-28T18:18:08Z</time>
      </trkpt>
      <trkpt lat="62.633241147964" lon="18.005473795069">
        <ele>65.8</ele>
        <time>2018-03-28T18:18:09Z</time>
      </trkpt>
      <trkpt lat="62.633239471584" lon="18.005451415396">
        <ele>66</ele>
        <time>2018-03-28T18:18:10Z</time>
      </trkpt>
      <trkpt lat="62.633237879023" lon="18.005431466474">
        <ele>66.2</ele>
        <time>2018-03-28T18:18:11Z</time>
      </trkpt>
      <trkpt lat="62.633237459928" lon="18.005420570004">
        <ele>66.4</ele>
        <time>2018-03-28T18:18:12Z</time>
      </trkpt>
      <trkpt lat="62.633237040833" lon="18.005404812032">
        <ele>66.8</ele>
        <time>2018-03-28T18:18:13Z</time>
      </trkpt>
      <trkpt lat="62.63323477772" lon="18.005385282205">
        <ele>67</ele>
        <time>2018-03-28T18:18:14Z</time>
      </trkpt>
      <trkpt lat="62.633235448272" lon="18.005359214496">
        <ele>67</ele>
        <time>2018-03-28T18:18:15Z</time>
      </trkpt>
      <trkpt lat="62.63323477772" lon="18.005335745176">
        <ele>67</ele>
        <time>2018-03-28T18:18:16Z</time>
      </trkpt>
      <trkpt lat="62.633233855711" lon="18.005317556453">
        <ele>67.2</ele>
        <time>2018-03-28T18:18:17Z</time>
      </trkpt>
      <trkpt lat="62.633237543747" lon="18.005309006915">
        <ele>67.4</ele>
        <time>2018-03-28T18:18:18Z</time>
      </trkpt>
      <trkpt lat="62.633240980326" lon="18.005294590047">
        <ele>67.4</ele>
        <time>2018-03-28T18:18:19Z</time>
      </trkpt>
      <trkpt lat="62.633241147964" lon="18.005274976401">
        <ele>67.4</ele>
        <time>2018-03-28T18:18:20Z</time>
      </trkpt>
      <trkpt lat="62.633239974498" lon="18.005251507081">
        <ele>67.8</ele>
        <time>2018-03-28T18:18:21Z</time>
      </trkpt>
      <trkpt lat="62.633237376109" lon="18.005229630322">
        <ele>68</ele>
        <time>2018-03-28T18:18:22Z</time>
      </trkpt>
      <trkpt lat="62.633234526263" lon="18.005208172658">
        <ele>68.4</ele>
        <time>2018-03-28T18:18:23Z</time>
      </trkpt>
      <trkpt lat="62.633236118824" lon="18.00518537389">
        <ele>68.8</ele>
        <time>2018-03-28T18:18:24Z</time>
      </trkpt>
      <trkpt lat="62.633240058317" lon="18.005164083864">
        <ele>69</ele>
        <time>2018-03-28T18:18:25Z</time>
      </trkpt>
      <trkpt lat="62.633237962842" lon="18.00514849353">
        <ele>69.2</ele>
        <time>2018-03-28T18:18:26Z</time>
      </trkpt>
      <trkpt lat="62.633236286462" lon="18.005123012554">
        <ele>69.4</ele>
        <time>2018-03-28T18:18:27Z</time>
      </trkpt>
      <trkpt lat="62.633230754408" lon="18.005102057804">
        <ele>69.6</ele>
        <time>2018-03-28T18:18:28Z</time>
      </trkpt>
      <trkpt lat="62.63322891039" lon="18.005083366167">
        <ele>69.6</ele>
        <time>2018-03-28T18:18:29Z</time>
      </trkpt>
      <trkpt lat="62.633231173503" lon="18.005068446385">
        <ele>69.6</ele>
        <time>2018-03-28T18:18:30Z</time>
      </trkpt>
      <trkpt lat="62.633230502951" lon="18.005056795544">
        <ele>69.8</ele>
        <time>2018-03-28T18:18:31Z</time>
      </trkpt>
      <trkpt lat="62.63322974858" lon="18.005032152758">
        <ele>69.8</ele>
        <time>2018-03-28T18:18:32Z</time>
      </trkpt>
      <trkpt lat="62.633221115223" lon="18.005007258515">
        <ele>70</ele>
        <time>2018-03-28T18:18:33Z</time>
      </trkpt>
      <trkpt lat="62.633215834626" lon="18.004984375928">
        <ele>70.2</ele>
        <time>2018-03-28T18:18:34Z</time>
      </trkpt>
      <trkpt lat="62.633211727495" lon="18.004964594644">
        <ele>70.4</ele>
        <time>2018-03-28T18:18:35Z</time>
      </trkpt>
      <trkpt lat="62.633203177957" lon="18.004949423405">
        <ele>70.6</ele>
        <time>2018-03-28T18:18:36Z</time>
      </trkpt>
      <trkpt lat="62.633197394446" lon="18.004938443116">
        <ele>70.8</ele>
        <time>2018-03-28T18:18:37Z</time>
      </trkpt>
      <trkpt lat="62.633190688926" lon="18.004926792275">
        <ele>71</ele>
        <time>2018-03-28T18:18:38Z</time>
      </trkpt>
      <trkpt lat="62.633182726121" lon="18.004906508077">
        <ele>71.4</ele>
        <time>2018-03-28T18:18:39Z</time>
      </trkpt>
      <trkpt lat="62.633169147443" lon="18.004882452024">
        <ele>71.6</ele>
        <time>2018-03-28T18:18:40Z</time>
      </trkpt>
      <trkpt lat="62.633160765543" lon="18.004867364604">
        <ele>71.8</ele>
        <time>2018-03-28T18:18:41Z</time>
      </trkpt>
      <trkpt lat="62.633150791082" lon="18.004851690451">
        <ele>71.8</ele>
        <time>2018-03-28T18:18:42Z</time>
      </trkpt>
      <trkpt lat="62.633138469689" lon="18.004843224732">
        <ele>72.2</ele>
        <time>2018-03-28T18:18:43Z</time>
      </trkpt>
      <trkpt lat="62.633125226287" lon="18.004832914995">
        <ele>72.2</ele>
        <time>2018-03-28T18:18:44Z</time>
      </trkpt>
      <trkpt lat="62.633109384496" lon="18.004831825348">
        <ele>72.6</ele>
        <time>2018-03-28T18:18:45Z</time>
      </trkpt>
      <trkpt lat="62.633094548533" lon="18.004828975502">
        <ele>73</ele>
        <time>2018-03-28T18:18:46Z</time>
      </trkpt>
      <trkpt lat="62.633074851068" lon="18.004846828949">
        <ele>73.4</ele>
        <time>2018-03-28T18:18:47Z</time>
      </trkpt>
      <trkpt lat="62.633054399232" lon="18.004847750958">
        <ele>73.6</ele>
        <time>2018-03-28T18:18:48Z</time>
      </trkpt>
      <trkpt lat="62.633036881061" lon="18.004884715137">
        <ele>73.6</ele>
        <time>2018-03-28T18:18:49Z</time>
      </trkpt>
      <trkpt lat="62.63302103927" lon="18.004906508077">
        <ele>73.8</ele>
        <time>2018-03-28T18:18:50Z</time>
      </trkpt>
      <trkpt lat="62.632998072864" lon="18.004932575786">
        <ele>73.8</ele>
        <time>2018-03-28T18:18:51Z</time>
      </trkpt>
      <trkpt lat="62.6329766152" lon="18.00495570983">
        <ele>74</ele>
        <time>2018-03-28T18:18:52Z</time>
      </trkpt>
      <trkpt lat="62.632962114513" lon="18.004987141955">
        <ele>74.2</ele>
        <time>2018-03-28T18:18:53Z</time>
      </trkpt>
      <trkpt lat="62.632947446188" lon="18.005017987347">
        <ele>74.4</ele>
        <time>2018-03-28T18:18:54Z</time>
      </trkpt>
      <trkpt lat="62.632927748723" lon="18.005057633734">
        <ele>74.4</ele>
        <time>2018-03-28T18:18:55Z</time>
      </trkpt>
      <trkpt lat="62.632914756778" lon="18.005107254582">
        <ele>74.6</ele>
        <time>2018-03-28T18:18:56Z</time>
      </trkpt>
      <trkpt lat="62.632894975494" lon="18.005151091919">
        <ele>74.8</ele>
        <time>2018-03-28T18:18:57Z</time>
      </trkpt>
      <trkpt lat="62.632881312997" lon="18.005200712767">
        <ele>74.8</ele>
        <time>2018-03-28T18:18:58Z</time>
      </trkpt>
      <trkpt lat="62.632854071822" lon="18.005235078557">
        <ele>74.8</ele>
        <time>2018-03-28T18:18:59Z</time>
      </trkpt>
      <trkpt lat="62.632824818991" lon="18.005277407152">
        <ele>74.8</ele>
        <time>2018-03-28T18:19:00Z</time>
      </trkpt>
      <trkpt lat="62.632806546449" lon="18.005312024399">
        <ele>75</ele>
        <time>2018-03-28T18:19:01Z</time>
      </trkpt>
      <trkpt lat="62.632774779048" lon="18.005333649701">
        <ele>74.8</ele>
        <time>2018-03-28T18:19:02Z</time>
      </trkpt>
      <trkpt lat="62.63274359838" lon="18.005356448469">
        <ele>74.8</ele>
        <time>2018-03-28T18:19:03Z</time>
      </trkpt>
      <trkpt lat="62.63271426173" lon="18.005378325228">
        <ele>74.8</ele>
        <time>2018-03-28T18:19:04Z</time>
      </trkpt>
      <trkpt lat="62.632704957821" lon="18.005373799002">
        <ele>74.8</ele>
        <time>2018-03-28T18:19:05Z</time>
      </trkpt>
      <trkpt lat="62.632686014727" lon="18.005380001608">
        <ele>74.8</ele>
        <time>2018-03-28T18:19:06Z</time>
      </trkpt>
      <trkpt lat="62.632662629226" lon="18.005388467327">
        <ele>74.6</ele>
        <time>2018-03-28T18:19:07Z</time>
      </trkpt>
      <trkpt lat="62.63264301558" lon="18.00538653949">
        <ele>75</ele>
        <time>2018-03-28T18:19:08Z</time>
      </trkpt>
      <trkpt lat="62.632619797717" lon="18.005390898078">
        <ele>75.2</ele>
        <time>2018-03-28T18:19:09Z</time>
      </trkpt>
      <trkpt lat="62.632598088596" lon="18.005387796775">
        <ele>75.6</ele>
        <time>2018-03-28T18:19:10Z</time>
      </trkpt>
      <trkpt lat="62.632571182697" lon="18.005384695472">
        <ele>75.8</ele>
        <time>2018-03-28T18:19:11Z</time>
      </trkpt>
      <trkpt lat="62.632550144128" lon="18.005390646621">
        <ele>76</ele>
        <time>2018-03-28T18:19:12Z</time>
      </trkpt>
      <trkpt lat="62.632522735315" lon="18.005382599997">
        <ele>76.2</ele>
        <time>2018-03-28T18:19:13Z</time>
      </trkpt>
      <trkpt lat="62.632496499968" lon="18.005392239182">
        <ele>76.2</ele>
        <time>2018-03-28T18:19:14Z</time>
      </trkpt>
      <trkpt lat="62.632466744223" lon="18.005395172847">
        <ele>76.4</ele>
        <time>2018-03-28T18:19:15Z</time>
      </trkpt>
      <trkpt lat="62.632445035102" lon="18.005398860883">
        <ele>76.4</ele>
        <time>2018-03-28T18:19:16Z</time>
      </trkpt>
      <trkpt lat="62.632424164171" lon="18.00540917062">
        <ele>76.4</ele>
        <time>2018-03-28T18:19:17Z</time>
      </trkpt>
      <trkpt lat="62.632396420082" lon="18.005425682963">
        <ele>76.4</ele>
        <time>2018-03-28T18:19:18Z</time>
      </trkpt>
      <trkpt lat="62.632367418708" lon="18.005432053207">
        <ele>76.6</ele>
        <time>2018-03-28T18:19:19Z</time>
      </trkpt>
      <trkpt lat="62.632348224157" lon="18.005457115088">
        <ele>76.8</ele>
        <time>2018-03-28T18:19:20Z</time>
      </trkpt>
      <trkpt lat="62.632321737353" lon="18.005465916083">
        <ele>77</ele>
        <time>2018-03-28T18:19:21Z</time>
      </trkpt>
      <trkpt lat="62.632301285517" lon="18.005474046526">
        <ele>77</ele>
        <time>2018-03-28T18:19:22Z</time>
      </trkpt>
      <trkpt lat="62.632277480921" lon="18.005484356263">
        <ele>77</ele>
        <time>2018-03-28T18:19:23Z</time>
      </trkpt>
      <trkpt lat="62.632253089592" lon="18.005502125891">
        <ele>77.2</ele>
        <time>2018-03-28T18:19:24Z</time>
      </trkpt>
      <trkpt lat="62.632228865901" lon="18.005504472823">
        <ele>77.4</ele>
        <time>2018-03-28T18:19:25Z</time>
      </trkpt>
      <trkpt lat="62.632207072961" lon="18.005520230795">
        <ele>77.4</ele>
        <time>2018-03-28T18:19:26Z</time>
      </trkpt>
      <trkpt lat="62.632187291677" lon="18.005527187772">
        <ele>77.4</ele>
        <time>2018-03-28T18:19:27Z</time>
      </trkpt>
      <trkpt lat="62.632166756022" lon="18.005543532477">
        <ele>77.6</ele>
        <time>2018-03-28T18:19:28Z</time>
      </trkpt>
      <trkpt lat="62.6321384252" lon="18.005552584929">
        <ele>77.6</ele>
        <time>2018-03-28T18:19:29Z</time>
      </trkpt>
      <trkpt lat="62.6321132795" lon="18.005568845815">
        <ele>77.6</ele>
        <time>2018-03-28T18:19:30Z</time>
      </trkpt>
      <trkpt lat="62.632087379429" lon="18.005579826104">
        <ele>77.6</ele>
        <time>2018-03-28T18:19:31Z</time>
      </trkpt>
      <trkpt lat="62.632061982272" lon="18.005594829705">
        <ele>77.8</ele>
        <time>2018-03-28T18:19:32Z</time>
      </trkpt>
      <trkpt lat="62.632036249839" lon="18.005599607388">
        <ele>77.8</ele>
        <time>2018-03-28T18:19:33Z</time>
      </trkpt>
      <trkpt lat="62.632008170474" lon="18.005611425867">
        <ele>77.8</ele>
        <time>2018-03-28T18:19:34Z</time>
      </trkpt>
      <trkpt lat="62.631979252919" lon="18.005615952093">
        <ele>77.8</ele>
        <time>2018-03-28T18:19:35Z</time>
      </trkpt>
      <trkpt lat="62.63195150883" lon="18.005630033685">
        <ele>77.8</ele>
        <time>2018-03-28T18:19:36Z</time>
      </trkpt>
      <trkpt lat="62.631921836904" lon="18.005622992889">
        <ele>77.8</ele>
        <time>2018-03-28T18:19:37Z</time>
      </trkpt>
      <trkpt lat="62.631894344272" lon="18.005628189667">
        <ele>78</ele>
        <time>2018-03-28T18:19:38Z</time>
      </trkpt>
      <trkpt lat="62.631863834156" lon="18.005606648184">
        <ele>78</ele>
        <time>2018-03-28T18:19:39Z</time>
      </trkpt>
      <trkpt lat="62.631840783931" lon="18.005590638755">
        <ele>78</ele>
        <time>2018-03-28T18:19:40Z</time>
      </trkpt>
      <trkpt lat="62.631818488077" lon="18.005561302105">
        <ele>78.6</ele>
        <time>2018-03-28T18:19:41Z</time>
      </trkpt>
      <trkpt lat="62.631791079264" lon="18.005518470596">
        <ele>78.6</ele>
        <time>2018-03-28T18:19:42Z</time>
      </trkpt>
      <trkpt lat="62.631770292152" lon="18.005493324896">
        <ele>78.6</ele>
        <time>2018-03-28T18:19:43Z</time>
      </trkpt>
      <trkpt lat="62.631746068461" lon="18.005439932193">
        <ele>78.6</ele>
        <time>2018-03-28T18:19:44Z</time>
      </trkpt>
      <trkpt lat="62.631721928589" lon="18.005396849227">
        <ele>78.8</ele>
        <time>2018-03-28T18:19:45Z</time>
      </trkpt>
      <trkpt lat="62.631707511721" lon="18.005348401845">
        <ele>79</ele>
        <time>2018-03-28T18:19:46Z</time>
      </trkpt>
      <trkpt lat="62.631687981894" lon="18.005308671639">
        <ele>78.6</ele>
        <time>2018-03-28T18:19:47Z</time>
      </trkpt>
      <trkpt lat="62.631671972465" lon="18.00526164918">
        <ele>78.6</ele>
        <time>2018-03-28T18:19:48Z</time>
      </trkpt>
      <trkpt lat="62.631649006059" lon="18.005217728024">
        <ele>78.6</ele>
        <time>2018-03-28T18:19:49Z</time>
      </trkpt>
      <trkpt lat="62.631635762657" lon="18.005165424968">
        <ele>78.4</ele>
        <time>2018-03-28T18:19:50Z</time>
      </trkpt>
      <trkpt lat="62.631612544794" lon="18.005116223215">
        <ele>78.4</ele>
        <time>2018-03-28T18:19:51Z</time>
      </trkpt>
      <trkpt lat="62.631592595872" lon="18.005069200756">
        <ele>78.4</ele>
        <time>2018-03-28T18:19:52Z</time>
      </trkpt>
      <trkpt lat="62.631580945031" lon="18.005044222694">
        <ele>78.6</ele>
        <time>2018-03-28T18:19:53Z</time>
      </trkpt>
      <trkpt lat="62.631560325557" lon="18.005004827764">
        <ele>78.8</ele>
        <time>2018-03-28T18:19:54Z</time>
      </trkpt>
      <trkpt lat="62.631541801558" lon="18.004974401467">
        <ele>79</ele>
        <time>2018-03-28T18:19:55Z</time>
      </trkpt>
      <trkpt lat="62.631516655858" lon="18.004958643495">
        <ele>79</ele>
        <time>2018-03-28T18:19:56Z</time>
      </trkpt>
      <trkpt lat="62.631498131859" lon="18.004921092583">
        <ele>79.4</ele>
        <time>2018-03-28T18:19:57Z</time>
      </trkpt>
      <trkpt lat="62.631478685851" lon="18.004900473109">
        <ele>79.6</ele>
        <time>2018-03-28T18:19:58Z</time>
      </trkpt>
      <trkpt lat="62.631458150196" lon="18.004869040984">
        <ele>79.6</ele>
        <time>2018-03-28T18:19:59Z</time>
      </trkpt>
      <trkpt lat="62.631432250125" lon="18.004848505329">
        <ele>79.6</ele>
        <time>2018-03-28T18:20:00Z</time>
      </trkpt>
      <trkpt lat="62.631412217384" lon="18.004821347973">
        <ele>80</ele>
        <time>2018-03-28T18:20:01Z</time>
      </trkpt>
      <trkpt lat="62.631386065856" lon="18.004811205874">
        <ele>80</ele>
        <time>2018-03-28T18:20:02Z</time>
      </trkpt>
      <trkpt lat="62.631362764174" lon="18.004780695758">
        <ele>80</ele>
        <time>2018-03-28T18:20:03Z</time>
      </trkpt>
      <trkpt lat="62.63133543918" lon="18.004776253351">
        <ele>80.2</ele>
        <time>2018-03-28T18:20:04Z</time>
      </trkpt>
      <trkpt lat="62.63131364624" lon="18.004760076284">
        <ele>80.2</ele>
        <time>2018-03-28T18:20:05Z</time>
      </trkpt>
      <trkpt lat="62.6312918533" lon="18.004745575597">
        <ele>80.4</ele>
        <time>2018-03-28T18:20:06Z</time>
      </trkpt>
      <trkpt lat="62.631270395636" lon="18.004718837336">
        <ele>80.4</ele>
        <time>2018-03-28T18:20:07Z</time>
      </trkpt>
      <trkpt lat="62.631247093954" lon="18.004711712721">
        <ele>80.4</ele>
        <time>2018-03-28T18:20:08Z</time>
      </trkpt>
      <trkpt lat="62.631223373177" lon="18.00468916541">
        <ele>80.4</ele>
        <time>2018-03-28T18:20:09Z</time>
      </trkpt>
      <trkpt lat="62.631200825866" lon="18.004669970859">
        <ele>80.6</ele>
        <time>2018-03-28T18:20:10Z</time>
      </trkpt>
      <trkpt lat="62.631170483388" lon="18.004648261738">
        <ele>80.8</ele>
        <time>2018-03-28T18:20:11Z</time>
      </trkpt>
      <trkpt lat="62.63113846453" lon="18.004634180146">
        <ele>81</ele>
        <time>2018-03-28T18:20:12Z</time>
      </trkpt>
      <trkpt lat="62.631118767065" lon="18.004606016962">
        <ele>81</ele>
        <time>2018-03-28T18:20:13Z</time>
      </trkpt>
      <trkpt lat="62.631097728496" lon="18.004560587064">
        <ele>81</ele>
        <time>2018-03-28T18:20:14Z</time>
      </trkpt>
      <trkpt lat="62.631084065999" lon="18.004542817436">
        <ele>81.2</ele>
        <time>2018-03-28T18:20:15Z</time>
      </trkpt>
      <trkpt lat="62.631065877276" lon="18.004517252641">
        <ele>81.2</ele>
        <time>2018-03-28T18:20:16Z</time>
      </trkpt>
      <trkpt lat="62.631042156499" lon="18.004510966216">
        <ele>81.2</ele>
        <time>2018-03-28T18:20:17Z</time>
      </trkpt>
      <trkpt lat="62.631021872301" lon="18.004477187159">
        <ele>81.4</ele>
        <time>2018-03-28T18:20:18Z</time>
      </trkpt>
      <trkpt lat="62.631001923379" lon="18.004452879649">
        <ele>81.6</ele>
        <time>2018-03-28T18:20:19Z</time>
      </trkpt>
      <trkpt lat="62.630982645009" lon="18.004423040085">
        <ele>82</ele>
        <time>2018-03-28T18:20:20Z</time>
      </trkpt>
      <trkpt lat="62.630971245625" lon="18.004396134186">
        <ele>82</ele>
        <time>2018-03-28T18:20:21Z</time>
      </trkpt>
      <trkpt lat="62.630954230368" lon="18.004356990713">
        <ele>82.2</ele>
        <time>2018-03-28T18:20:22Z</time>
      </trkpt>
      <trkpt lat="62.630926737736" lon="18.004328827529">
        <ele>82.2</ele>
        <time>2018-03-28T18:20:23Z</time>
      </trkpt>
      <trkpt lat="62.63090880047" lon="18.004282056527">
        <ele>82.4</ele>
        <time>2018-03-28T18:20:24Z</time>
      </trkpt>
      <trkpt lat="62.630894970335" lon="18.004242996873">
        <ele>82.4</ele>
        <time>2018-03-28T18:20:25Z</time>
      </trkpt>
      <trkpt lat="62.630879715277" lon="18.004205278323">
        <ele>82.6</ele>
        <time>2018-03-28T18:20:26Z</time>
      </trkpt>
      <trkpt lat="62.630868483531" lon="18.004175103483">
        <ele>82.8</ele>
        <time>2018-03-28T18:20:27Z</time>
      </trkpt>
      <trkpt lat="62.630855659224" lon="18.004153729638">
        <ele>82.8</ele>
        <time>2018-03-28T18:20:28Z</time>
      </trkpt>
      <trkpt lat="62.630851384455" lon="18.004136965838">
        <ele>83</ele>
        <time>2018-03-28T18:20:29Z</time>
      </trkpt>
      <trkpt lat="62.630847780238" lon="18.004117938925">
        <ele>83.4</ele>
        <time>2018-03-28T18:20:30Z</time>
      </trkpt>
      <trkpt lat="62.630846942048" lon="18.00410494698">
        <ele>83.6</ele>
        <time>2018-03-28T18:20:31Z</time>
      </trkpt>
      <trkpt lat="62.630850881541" lon="18.004118609477">
        <ele>83.8</ele>
        <time>2018-03-28T18:20:32Z</time>
      </trkpt>
      <trkpt lat="62.630849037523" lon="18.004133613078">
        <ele>84</ele>
        <time>2018-03-28T18:20:33Z</time>
      </trkpt>
      <trkpt lat="62.630774103337" lon="18.003785512771">
        <ele>83.8</ele>
        <time>2018-03-28T18:20:52Z</time>
      </trkpt>
      <trkpt lat="62.630773516604" lon="18.003740082873">
        <ele>84</ele>
        <time>2018-03-28T18:20:53Z</time>
      </trkpt>
      <trkpt lat="62.630776114993" lon="18.003676464252">
        <ele>84</ele>
        <time>2018-03-28T18:20:54Z</time>
      </trkpt>
      <trkpt lat="62.630778545744" lon="18.003626005214">
        <ele>84.2</ele>
        <time>2018-03-28T18:20:55Z</time>
      </trkpt>
      <trkpt lat="62.630775863536" lon="18.003575713814">
        <ele>84.2</ele>
        <time>2018-03-28T18:20:56Z</time>
      </trkpt>
      <trkpt lat="62.630779383934" lon="18.003525506233">
        <ele>84.2</ele>
        <time>2018-03-28T18:20:57Z</time>
      </trkpt>
      <trkpt lat="62.630782569056" lon="18.003474795738">
        <ele>84.4</ele>
        <time>2018-03-28T18:20:58Z</time>
      </trkpt>
      <trkpt lat="62.630780138305" lon="18.003412769678">
        <ele>84.8</ele>
        <time>2018-03-28T18:20:59Z</time>
      </trkpt>
      <trkpt lat="62.630781898504" lon="18.003374129119">
        <ele>84.8</ele>
        <time>2018-03-28T18:21:00Z</time>
      </trkpt>
      <trkpt lat="62.63077971921" lon="18.003314449991">
        <ele>85</ele>
        <time>2018-03-28T18:21:01Z</time>
      </trkpt>
      <trkpt lat="62.630779300115" lon="18.003257201614">
        <ele>85</ele>
        <time>2018-03-28T18:21:02Z</time>
      </trkpt>
      <trkpt lat="62.630781563228" lon="18.003209173327">
        <ele>85.2</ele>
        <time>2018-03-28T18:21:03Z</time>
      </trkpt>
      <trkpt lat="62.630781982323" lon="18.003147482543">
        <ele>85.4</ele>
        <time>2018-03-28T18:21:04Z</time>
      </trkpt>
      <trkpt lat="62.630780138305" lon="18.003089731252">
        <ele>85.4</ele>
        <time>2018-03-28T18:21:05Z</time>
      </trkpt>
      <trkpt lat="62.630783993979" lon="18.003047737933">
        <ele>85.6</ele>
        <time>2018-03-28T18:21:06Z</time>
      </trkpt>
      <trkpt lat="62.630787095282" lon="18.002998033266">
        <ele>85.8</ele>
        <time>2018-03-28T18:21:07Z</time>
      </trkpt>
      <trkpt lat="62.630793214069" lon="18.002962074915">
        <ele>85.8</ele>
        <time>2018-03-28T18:21:08Z</time>
      </trkpt>
      <trkpt lat="62.63079396844" lon="18.002905161814">
        <ele>86</ele>
        <time>2018-03-28T18:21:09Z</time>
      </trkpt>
      <trkpt lat="62.63079145387" lon="18.002854535138">
        <ele>86.2</ele>
        <time>2018-03-28T18:21:10Z</time>
      </trkpt>
      <trkpt lat="62.630783993979" lon="18.002803321729">
        <ele>86.2</ele>
        <time>2018-03-28T18:21:11Z</time>
      </trkpt>
      <trkpt lat="62.630783407246" lon="18.002743474963">
        <ele>86.4</ele>
        <time>2018-03-28T18:21:12Z</time>
      </trkpt>
      <trkpt lat="62.630776198812" lon="18.002695279038">
        <ele>86.4</ele>
        <time>2018-03-28T18:21:13Z</time>
      </trkpt>
      <trkpt lat="62.630772929871" lon="18.002634091168">
        <ele>86.6</ele>
        <time>2018-03-28T18:21:14Z</time>
      </trkpt>
      <trkpt lat="62.630760692297" lon="18.0025777648">
        <ele>86.8</ele>
        <time>2018-03-28T18:21:15Z</time>
      </trkpt>
      <trkpt lat="62.630760776116" lon="18.002536358214">
        <ele>87.2</ele>
        <time>2018-03-28T18:21:16Z</time>
      </trkpt>
      <trkpt lat="62.630766811084" lon="18.002493778162">
        <ele>87.2</ele>
        <time>2018-03-28T18:21:17Z</time>
      </trkpt>
      <trkpt lat="62.630771421129" lon="18.00245455087">
        <ele>87.2</ele>
        <time>2018-03-28T18:21:18Z</time>
      </trkpt>
      <trkpt lat="62.630769744749" lon="18.002410042981">
        <ele>87.4</ele>
        <time>2018-03-28T18:21:19Z</time>
      </trkpt>
      <trkpt lat="62.630765218523" lon="18.002352124052">
        <ele>87.6</ele>
        <time>2018-03-28T18:21:20Z</time>
      </trkpt>
      <trkpt lat="62.630765721437" lon="18.002308119077">
        <ele>87.6</ele>
        <time>2018-03-28T18:21:21Z</time>
      </trkpt>
      <trkpt lat="62.630757842451" lon="18.002254894012">
        <ele>88</ele>
        <time>2018-03-28T18:21:22Z</time>
      </trkpt>
      <trkpt lat="62.630754070596" lon="18.002203345327">
        <ele>88</ele>
        <time>2018-03-28T18:21:23Z</time>
      </trkpt>
      <trkpt lat="62.630751472207" lon="18.002161268189">
        <ele>88.2</ele>
        <time>2018-03-28T18:21:24Z</time>
      </trkpt>
      <trkpt lat="62.630749125275" lon="18.002099745043">
        <ele>88.4</ele>
        <time>2018-03-28T18:21:25Z</time>
      </trkpt>
      <trkpt lat="62.630743593221" lon="18.002045011236">
        <ele>88.2</ele>
        <time>2018-03-28T18:21:26Z</time>
      </trkpt>
      <trkpt lat="62.630746778343" lon="18.001991702352">
        <ele>88.2</ele>
        <time>2018-03-28T18:21:27Z</time>
      </trkpt>
      <trkpt lat="62.630737642072" lon="18.00193068212">
        <ele>88.2</ele>
        <time>2018-03-28T18:21:28Z</time>
      </trkpt>
      <trkpt lat="62.630731020371" lon="18.001854323011">
        <ele>88.2</ele>
        <time>2018-03-28T18:21:29Z</time>
      </trkpt>
      <trkpt lat="62.630722889928" lon="18.001795649711">
        <ele>88.2</ele>
        <time>2018-03-28T18:21:30Z</time>
      </trkpt>
      <trkpt lat="62.630718028426" lon="18.001734880936">
        <ele>88.2</ele>
        <time>2018-03-28T18:21:31Z</time>
      </trkpt>
      <trkpt lat="62.630713921295" lon="18.001677464921">
        <ele>88.4</ele>
        <time>2018-03-28T18:21:32Z</time>
      </trkpt>
      <trkpt lat="62.630715430037" lon="18.001623569304">
        <ele>88.2</ele>
        <time>2018-03-28T18:21:33Z</time>
      </trkpt>
      <trkpt lat="62.630709143612" lon="18.001568164945">
        <ele>88.4</ele>
        <time>2018-03-28T18:21:34Z</time>
      </trkpt>
      <trkpt lat="62.630703527739" lon="18.00150655798">
        <ele>88.6</ele>
        <time>2018-03-28T18:21:35Z</time>
      </trkpt>
      <trkpt lat="62.63068500374" lon="18.001449477241">
        <ele>88.6</ele>
        <time>2018-03-28T18:21:36Z</time>
      </trkpt>
      <trkpt lat="62.630678465858" lon="18.001384014602">
        <ele>88.8</ele>
        <time>2018-03-28T18:21:37Z</time>
      </trkpt>
      <trkpt lat="62.630670000139" lon="18.001332801193">
        <ele>89</ele>
        <time>2018-03-28T18:21:38Z</time>
      </trkpt>
      <trkpt lat="62.630666060646" lon="18.001267003278">
        <ele>89</ele>
        <time>2018-03-28T18:21:39Z</time>
      </trkpt>
      <trkpt lat="62.630663965171" lon="18.001218388258">
        <ele>89.2</ele>
        <time>2018-03-28T18:21:40Z</time>
      </trkpt>
      <trkpt lat="62.630656840556" lon="18.001163486813">
        <ele>89.4</ele>
        <time>2018-03-28T18:21:41Z</time>
      </trkpt>
      <trkpt lat="62.63065147614" lon="18.001107998635">
        <ele>89.2</ele>
        <time>2018-03-28T18:21:42Z</time>
      </trkpt>
      <trkpt lat="62.630643680973" lon="18.001051001715">
        <ele>89.4</ele>
        <time>2018-03-28T18:21:43Z</time>
      </trkpt>
      <trkpt lat="62.630629599381" lon="18.000984952343">
        <ele>89.4</ele>
        <time>2018-03-28T18:21:44Z</time>
      </trkpt>
      <trkpt lat="62.630611913572" lon="18.00094077973">
        <ele>89.6</ele>
        <time>2018-03-28T18:21:45Z</time>
      </trkpt>
      <trkpt lat="62.630608309355" lon="18.000881938792">
        <ele>89.6</ele>
        <time>2018-03-28T18:21:46Z</time>
      </trkpt>
      <trkpt lat="62.630597915799" lon="18.000842795319">
        <ele>89.6</ele>
        <time>2018-03-28T18:21:47Z</time>
      </trkpt>
      <trkpt lat="62.630586264958" lon="18.000778925241">
        <ele>89.8</ele>
        <time>2018-03-28T18:21:48Z</time>
      </trkpt>
      <trkpt lat="62.630567573321" lon="18.000718324104">
        <ele>89.8</ele>
        <time>2018-03-28T18:21:49Z</time>
      </trkpt>
      <trkpt lat="62.630554749014" lon="18.00066920617">
        <ele>90</ele>
        <time>2018-03-28T18:21:50Z</time>
      </trkpt>
      <trkpt lat="62.630540751241" lon="18.00062142934">
        <ele>90</ele>
        <time>2018-03-28T18:21:51Z</time>
      </trkpt>
      <trkpt lat="62.630524993269" lon="18.000577172908">
        <ele>90</ele>
        <time>2018-03-28T18:21:52Z</time>
      </trkpt>
      <trkpt lat="62.630516108455" lon="18.000567282266">
        <ele>90</ele>
        <time>2018-03-28T18:21:53Z</time>
      </trkpt>
      <trkpt lat="62.630500182845" lon="18.000505172387">
        <ele>90</ele>
        <time>2018-03-28T18:21:54Z</time>
      </trkpt>
      <trkpt lat="62.630501104854" lon="18.000464101077">
        <ele>90.2</ele>
        <time>2018-03-28T18:21:55Z</time>
      </trkpt>
      <trkpt lat="62.630509235297" lon="18.000420179921">
        <ele>90.2</ele>
        <time>2018-03-28T18:21:56Z</time>
      </trkpt>
      <trkpt lat="62.630507642736" lon="18.000364021191">
        <ele>90.4</ele>
        <time>2018-03-28T18:21:57Z</time>
      </trkpt>
      <trkpt lat="62.630501188673" lon="18.000324626261">
        <ele>90.4</ele>
        <time>2018-03-28T18:21:58Z</time>
      </trkpt>
      <trkpt lat="62.630491549488" lon="18.000249021523">
        <ele>90.4</ele>
        <time>2018-03-28T18:21:59Z</time>
      </trkpt>
      <trkpt lat="62.630476629706" lon="18.000190934956">
        <ele>90.6</ele>
        <time>2018-03-28T18:22:00Z</time>
      </trkpt>
      <trkpt lat="62.630464224494" lon="18.00012857362">
        <ele>90.6</ele>
        <time>2018-03-28T18:22:01Z</time>
      </trkpt>
      <trkpt lat="62.630444610848" lon="18.000077863125">
        <ele>90.6</ele>
        <time>2018-03-28T18:22:02Z</time>
      </trkpt>
      <trkpt lat="62.630433882016" lon="18.000016591436">
        <ele>90.6</ele>
        <time>2018-03-28T18:22:03Z</time>
      </trkpt>
      <trkpt lat="62.630420554795" lon="17.999966048579">
        <ele>90.8</ele>
        <time>2018-03-28T18:22:04Z</time>
      </trkpt>
      <trkpt lat="62.630405215918" lon="17.999916930645">
        <ele>91</ele>
        <time>2018-03-28T18:22:05Z</time>
      </trkpt>
      <trkpt lat="62.63039415181" lon="17.999861945381">
        <ele>91</ele>
        <time>2018-03-28T18:22:06Z</time>
      </trkpt>
      <trkpt lat="62.630378393838" lon="17.999813162723">
        <ele>91.2</ele>
        <time>2018-03-28T18:22:07Z</time>
      </trkpt>
      <trkpt lat="62.630369173748" lon="17.999761278762">
        <ele>91.4</ele>
        <time>2018-03-28T18:22:08Z</time>
      </trkpt>
      <trkpt lat="62.630350314473" lon="17.999715681226">
        <ele>91.6</ele>
        <time>2018-03-28T18:22:09Z</time>
      </trkpt>
      <trkpt lat="62.630337071071" lon="17.999662959075">
        <ele>91.6</ele>
        <time>2018-03-28T18:22:10Z</time>
      </trkpt>
      <trkpt lat="62.630319636719" lon="17.999613422046">
        <ele>91.8</ele>
        <time>2018-03-28T18:22:11Z</time>
      </trkpt>
      <trkpt lat="62.630306058041" lon="17.999559777886">
        <ele>92</ele>
        <time>2018-03-28T18:22:12Z</time>
      </trkpt>
      <trkpt lat="62.630290048612" lon="17.999497668007">
        <ele>91.8</ele>
        <time>2018-03-28T18:22:13Z</time>
      </trkpt>
      <trkpt lat="62.630278062495" lon="17.999429104065">
        <ele>92</ele>
        <time>2018-03-28T18:22:14Z</time>
      </trkpt>
      <trkpt lat="62.630261382514" lon="17.999376968647">
        <ele>92.2</ele>
        <time>2018-03-28T18:22:15Z</time>
      </trkpt>
      <trkpt lat="62.630256353374" lon="17.999332209301">
        <ele>92</ele>
        <time>2018-03-28T18:22:16Z</time>
      </trkpt>
      <trkpt lat="62.630248893483" lon="17.999263729178">
        <ele>92.2</ele>
        <time>2018-03-28T18:22:17Z</time>
      </trkpt>
      <trkpt lat="62.630241349773" lon="17.999194578503">
        <ele>92.4</ele>
        <time>2018-03-28T18:22:18Z</time>
      </trkpt>
      <trkpt lat="62.630236907366" lon="17.999126433656">
        <ele>92.4</ele>
        <time>2018-03-28T18:22:19Z</time>
      </trkpt>
      <trkpt lat="62.63024830675" lon="17.99908335069">
        <ele>92.6</ele>
        <time>2018-03-28T18:22:20Z</time>
      </trkpt>
      <trkpt lat="62.630244367257" lon="17.999017720413">
        <ele>92.6</ele>
        <time>2018-03-28T18:22:21Z</time>
      </trkpt>
      <trkpt lat="62.630239338117" lon="17.998948988833">
        <ele>92.6</ele>
        <time>2018-03-28T18:22:22Z</time>
      </trkpt>
      <trkpt lat="62.630236320633" lon="17.998877910321">
        <ele>92.6</ele>
        <time>2018-03-28T18:22:23Z</time>
      </trkpt>
      <trkpt lat="62.630230872398" lon="17.998807167085">
        <ele>92.8</ele>
        <time>2018-03-28T18:22:24Z</time>
      </trkpt>
      <trkpt lat="62.630225843258" lon="17.998725946474">
        <ele>92.6</ele>
        <time>2018-03-28T18:22:25Z</time>
      </trkpt>
      <trkpt lat="62.630218886281" lon="17.998656209066">
        <ele>92.6</ele>
        <time>2018-03-28T18:22:26Z</time>
      </trkpt>
      <trkpt lat="62.630215784978" lon="17.998583202717">
        <ele>92.8</ele>
        <time>2018-03-28T18:22:27Z</time>
      </trkpt>
      <trkpt lat="62.630213605684" lon="17.99851757244">
        <ele>93</ele>
        <time>2018-03-28T18:22:28Z</time>
      </trkpt>
      <trkpt lat="62.630226346172" lon="17.998463676823">
        <ele>93</ele>
        <time>2018-03-28T18:22:29Z</time>
      </trkpt>
      <trkpt lat="62.630240260126" lon="17.998394777605">
        <ele>93</ele>
        <time>2018-03-28T18:22:30Z</time>
      </trkpt>
      <trkpt lat="62.630247300922" lon="17.998315652469">
        <ele>93.2</ele>
        <time>2018-03-28T18:22:31Z</time>
      </trkpt>
      <trkpt lat="62.630255347546" lon="17.998251614753">
        <ele>93.2</ele>
        <time>2018-03-28T18:22:32Z</time>
      </trkpt>
      <trkpt lat="62.63026507055" lon="17.998163604803">
        <ele>93.2</ele>
        <time>2018-03-28T18:22:33Z</time>
      </trkpt>
      <trkpt lat="62.630277811038" lon="17.998101662562">
        <ele>93</ele>
        <time>2018-03-28T18:22:34Z</time>
      </trkpt>
      <trkpt lat="62.630284432739" lon="17.99802723129">
        <ele>93</ele>
        <time>2018-03-28T18:22:35Z</time>
      </trkpt>
      <trkpt lat="62.63029189263" lon="17.997967468343">
        <ele>93</ele>
        <time>2018-03-28T18:22:36Z</time>
      </trkpt>
      <trkpt lat="62.630301699453" lon="17.997919607694">
        <ele>93</ele>
        <time>2018-03-28T18:22:37Z</time>
      </trkpt>
      <trkpt lat="62.630309410801" lon="17.997872836692">
        <ele>93.2</ele>
        <time>2018-03-28T18:22:38Z</time>
      </trkpt>
      <trkpt lat="62.630306393317" lon="17.9978084637">
        <ele>93.2</ele>
        <time>2018-03-28T18:22:39Z</time>
      </trkpt>
      <trkpt lat="62.630315194312" lon="17.997744006889">
        <ele>93.4</ele>
        <time>2018-03-28T18:22:40Z</time>
      </trkpt>
      <trkpt lat="62.630335897605" lon="17.99769782262">
        <ele>93.4</ele>
        <time>2018-03-28T18:22:41Z</time>
      </trkpt>
      <trkpt lat="62.630346710256" lon="17.997628588126">
        <ele>93.6</ele>
        <time>2018-03-28T18:22:42Z</time>
      </trkpt>
      <trkpt lat="62.630360121296" lon="17.997576452708">
        <ele>93.8</ele>
        <time>2018-03-28T18:22:43Z</time>
      </trkpt>
      <trkpt lat="62.630384009711" lon="17.997494729183">
        <ele>93.8</ele>
        <time>2018-03-28T18:22:44Z</time>
      </trkpt>
      <trkpt lat="62.630395073819" lon="17.997423483033">
        <ele>93.8</ele>
        <time>2018-03-28T18:22:45Z</time>
      </trkpt>
      <trkpt lat="62.630416615302" lon="17.997348045933">
        <ele>93.8</ele>
        <time>2018-03-28T18:22:46Z</time>
      </trkpt>
      <trkpt lat="62.630436815681" lon="17.997283589122">
        <ele>93.6</ele>
        <time>2018-03-28T18:22:47Z</time>
      </trkpt>
      <trkpt lat="62.630455758775" lon="17.997213935533">
        <ele>93.6</ele>
        <time>2018-03-28T18:22:48Z</time>
      </trkpt>
      <trkpt lat="62.630472354937" lon="17.997170014377">
        <ele>93.6</ele>
        <time>2018-03-28T18:22:49Z</time>
      </trkpt>
      <trkpt lat="62.630495991895" lon="17.997124668298">
        <ele>93.6</ele>
        <time>2018-03-28T18:22:50Z</time>
      </trkpt>
      <trkpt lat="62.630511582229" lon="17.997070940319">
        <ele>93.4</ele>
        <time>2018-03-28T18:22:51Z</time>
      </trkpt>
      <trkpt lat="62.630524406536" lon="17.997010003906">
        <ele>93.6</ele>
        <time>2018-03-28T18:22:52Z</time>
      </trkpt>
      <trkpt lat="62.630539661594" lon="17.996956611203">
        <ele>93.8</ele>
        <time>2018-03-28T18:22:53Z</time>
      </trkpt>
      <trkpt lat="62.630565645484" lon="17.996912187133">
        <ele>94</ele>
        <time>2018-03-28T18:22:54Z</time>
      </trkpt>
      <trkpt lat="62.630589282442" lon="17.996848317055">
        <ele>94</ele>
        <time>2018-03-28T18:22:55Z</time>
      </trkpt>
      <trkpt lat="62.630608896088" lon="17.996787967375">
        <ele>94.2</ele>
        <time>2018-03-28T18:22:56Z</time>
      </trkpt>
      <trkpt lat="62.630626749535" lon="17.99672468403">
        <ele>94.2</ele>
        <time>2018-03-28T18:22:57Z</time>
      </trkpt>
      <trkpt lat="62.630643680973" lon="17.996669195852">
        <ele>94</ele>
        <time>2018-03-28T18:22:58Z</time>
      </trkpt>
      <trkpt lat="62.630663294619" lon="17.996589986897">
        <ele>93.6</ele>
        <time>2018-03-28T18:22:59Z</time>
      </trkpt>
      <trkpt lat="62.630678633496" lon="17.996519914213">
        <ele>93.8</ele>
        <time>2018-03-28T18:23:00Z</time>
      </trkpt>
      <trkpt lat="62.630700845531" lon="17.996441711086">
        <ele>93.8</ele>
        <time>2018-03-28T18:23:01Z</time>
      </trkpt>
      <trkpt lat="62.630724901584" lon="17.996383121605">
        <ele>93.8</ele>
        <time>2018-03-28T18:23:02Z</time>
      </trkpt>
      <trkpt lat="62.630742419755" lon="17.996308690333">
        <ele>94</ele>
        <time>2018-03-28T18:23:03Z</time>
      </trkpt>
      <trkpt lat="62.630770582939" lon="17.9962410484">
        <ele>94</ele>
        <time>2018-03-28T18:23:04Z</time>
      </trkpt>
      <trkpt lat="62.630792459698" lon="17.996195283226">
        <ele>94.2</ele>
        <time>2018-03-28T18:23:05Z</time>
      </trkpt>
      <trkpt lat="62.630818611226" lon="17.996129233854">
        <ele>94</ele>
        <time>2018-03-28T18:23:06Z</time>
      </trkpt>
      <trkpt lat="62.630845600944" lon="17.996083887775">
        <ele>94.4</ele>
        <time>2018-03-28T18:23:07Z</time>
      </trkpt>
      <trkpt lat="62.63087359649" lon="17.996033428737">
        <ele>94.4</ele>
        <time>2018-03-28T18:23:08Z</time>
      </trkpt>
      <trkpt lat="62.6309062859" lon="17.996004511182">
        <ele>94.6</ele>
        <time>2018-03-28T18:23:09Z</time>
      </trkpt>
      <trkpt lat="62.630937047473" lon="17.995951621393">
        <ele>94.4</ele>
        <time>2018-03-28T18:23:10Z</time>
      </trkpt>
      <trkpt lat="62.630965629752" lon="17.995888673324">
        <ele>94.4</ele>
        <time>2018-03-28T18:23:11Z</time>
      </trkpt>
      <trkpt lat="62.630999827904" lon="17.995842405236">
        <ele>94.2</ele>
        <time>2018-03-28T18:23:12Z</time>
      </trkpt>
      <trkpt lat="62.631024303052" lon="17.995798316442">
        <ele>94.2</ele>
        <time>2018-03-28T18:23:13Z</time>
      </trkpt>
      <trkpt lat="62.631053555883" lon="17.995749198508">
        <ele>94.2</ele>
        <time>2018-03-28T18:23:14Z</time>
      </trkpt>
      <trkpt lat="62.631081635248" lon="17.995699242384">
        <ele>94.2</ele>
        <time>2018-03-28T18:23:15Z</time>
      </trkpt>
      <trkpt lat="62.631109546975" lon="17.995663703128">
        <ele>94.4</ele>
        <time>2018-03-28T18:23:16Z</time>
      </trkpt>
      <trkpt lat="62.631141733471" lon="17.995625649302">
        <ele>94.6</ele>
        <time>2018-03-28T18:23:17Z</time>
      </trkpt>
      <trkpt lat="62.631179703478" lon="17.995588517485">
        <ele>94.4</ele>
        <time>2018-03-28T18:23:18Z</time>
      </trkpt>
      <trkpt lat="62.631210297413" lon="17.995539651008">
        <ele>94.6</ele>
        <time>2018-03-28T18:23:19Z</time>
      </trkpt>
      <trkpt lat="62.631243908832" lon="17.995504866123">
        <ele>94.8</ele>
        <time>2018-03-28T18:23:20Z</time>
      </trkpt>
      <trkpt lat="62.631271904378" lon="17.995449126488">
        <ele>94.8</ele>
        <time>2018-03-28T18:23:21Z</time>
      </trkpt>
      <trkpt lat="62.631291350386" lon="17.995404367142">
        <ele>94.8</ele>
        <time>2018-03-28T18:23:22Z</time>
      </trkpt>
      <trkpt lat="62.63131364624" lon="17.995343179272">
        <ele>95</ele>
        <time>2018-03-28T18:23:23Z</time>
      </trkpt>
      <trkpt lat="62.631334433352" lon="17.995293223148">
        <ele>95</ele>
        <time>2018-03-28T18:23:24Z</time>
      </trkpt>
      <trkpt lat="62.631369385875" lon="17.995244524309">
        <ele>95.2</ele>
        <time>2018-03-28T18:23:25Z</time>
      </trkpt>
      <trkpt lat="62.631385479123" lon="17.995201776619">
        <ele>95.2</ele>
        <time>2018-03-28T18:23:26Z</time>
      </trkpt>
      <trkpt lat="62.631409535176" lon="17.995158190739">
        <ele>95.2</ele>
        <time>2018-03-28T18:23:27Z</time>
      </trkpt>
      <trkpt lat="62.631424203501" lon="17.995110833004">
        <ele>95.4</ele>
        <time>2018-03-28T18:23:28Z</time>
      </trkpt>
      <trkpt lat="62.631443900966" lon="17.995048471668">
        <ele>95.4</ele>
        <time>2018-03-28T18:23:29Z</time>
      </trkpt>
      <trkpt lat="62.631458485472" lon="17.994975213862">
        <ele>95.4</ele>
        <time>2018-03-28T18:23:30Z</time>
      </trkpt>
      <trkpt lat="62.631482625344" lon="17.994918133123">
        <ele>95.4</ele>
        <time>2018-03-28T18:23:31Z</time>
      </trkpt>
      <trkpt lat="62.631501652257" lon="17.994833559752">
        <ele>95.4</ele>
        <time>2018-03-28T18:23:32Z</time>
      </trkpt>
      <trkpt lat="62.631503831551" lon="17.994757787376">
        <ele>95.4</ele>
        <time>2018-03-28T18:23:33Z</time>
      </trkpt>
      <trkpt lat="62.631514392745" lon="17.994672878729">
        <ele>95.4</ele>
        <time>2018-03-28T18:23:34Z</time>
      </trkpt>
      <trkpt lat="62.631520595351" lon="17.994593585955">
        <ele>95.2</ele>
        <time>2018-03-28T18:23:35Z</time>
      </trkpt>
      <trkpt lat="62.631524451025" lon="17.994498619028">
        <ele>95</ele>
        <time>2018-03-28T18:23:36Z</time>
      </trkpt>
      <trkpt lat="62.631503747732" lon="17.994395856934">
        <ele>94.8</ele>
        <time>2018-03-28T18:23:37Z</time>
      </trkpt>
      <trkpt lat="62.631490085235" lon="17.994301225283">
        <ele>94.6</ele>
        <time>2018-03-28T18:23:38Z</time>
      </trkpt>
      <trkpt lat="62.631483212077" lon="17.994207431822">
        <ele>94.6</ele>
        <time>2018-03-28T18:23:39Z</time>
      </trkpt>
      <trkpt lat="62.631468124657" lon="17.99411791313">
        <ele>94.4</ele>
        <time>2018-03-28T18:23:40Z</time>
      </trkpt>
      <trkpt lat="62.631454126884" lon="17.994047169894">
        <ele>94</ele>
        <time>2018-03-28T18:23:41Z</time>
      </trkpt>
      <trkpt lat="62.63143853655" lon="17.993954214623">
        <ele>93.8</ele>
        <time>2018-03-28T18:23:42Z</time>
      </trkpt>
      <trkpt lat="62.631423365311" lon="17.993881208274">
        <ele>93.6</ele>
        <time>2018-03-28T18:23:43Z</time>
      </trkpt>
      <trkpt lat="62.631416156877" lon="17.993795293799">
        <ele>93.6</ele>
        <time>2018-03-28T18:23:44Z</time>
      </trkpt>
      <trkpt lat="62.631402745837" lon="17.993709882238">
        <ele>93.6</ele>
        <time>2018-03-28T18:23:45Z</time>
      </trkpt>
      <trkpt lat="62.631406350054" lon="17.9936426594">
        <ele>93.8</ele>
        <time>2018-03-28T18:23:46Z</time>
      </trkpt>
      <trkpt lat="62.631416575972" lon="17.993550207043">
        <ele>93.8</ele>
        <time>2018-03-28T18:23:47Z</time>
      </trkpt>
      <trkpt lat="62.631425293148" lon="17.993476865418">
        <ele>93.8</ele>
        <time>2018-03-28T18:23:48Z</time>
      </trkpt>
      <trkpt lat="62.631449935934" lon="17.993388604011">
        <ele>93.8</ele>
        <time>2018-03-28T18:23:49Z</time>
      </trkpt>
      <trkpt lat="62.631467118829" lon="17.993296654568">
        <ele>93.8</ele>
        <time>2018-03-28T18:23:50Z</time>
      </trkpt>
      <trkpt lat="62.631488576493" lon="17.993214679586">
        <ele>93.8</ele>
        <time>2018-03-28T18:23:51Z</time>
      </trkpt>
      <trkpt lat="62.631498383316" lon="17.993108816189">
        <ele>93.6</ele>
        <time>2018-03-28T18:23:52Z</time>
      </trkpt>
      <trkpt lat="62.631509698881" lon="17.993001611688">
        <ele>93.4</ele>
        <time>2018-03-28T18:23:53Z</time>
      </trkpt>
      <trkpt lat="62.631530653631" lon="17.992911003349">
        <ele>93</ele>
        <time>2018-03-28T18:23:54Z</time>
      </trkpt>
      <trkpt lat="62.631536520961" lon="17.992809247083">
        <ele>92.8</ele>
        <time>2018-03-28T18:23:55Z</time>
      </trkpt>
      <trkpt lat="62.631552865666" lon="17.992755351466">
        <ele>92.6</ele>
        <time>2018-03-28T18:23:56Z</time>
      </trkpt>
      <trkpt lat="62.631566947258" lon="17.992678573262">
        <ele>92.6</ele>
        <time>2018-03-28T18:23:57Z</time>
      </trkpt>
      <trkpt lat="62.631588153465" lon="17.992606069827">
        <ele>92.6</ele>
        <time>2018-03-28T18:23:58Z</time>
      </trkpt>
      <trkpt lat="62.631620172323" lon="17.992529710718">
        <ele>92.6</ele>
        <time>2018-03-28T18:23:59Z</time>
      </trkpt>
      <trkpt lat="62.631653616104" lon="17.992477491481">
        <ele>92.6</ele>
        <time>2018-03-28T18:24:00Z</time>
      </trkpt>
      <trkpt lat="62.631696615251" lon="17.992447149003">
        <ele>92.8</ele>
        <time>2018-03-28T18:24:01Z</time>
      </trkpt>
      <trkpt lat="62.631738189475" lon="17.992424601692">
        <ele>92.8</ele>
        <time>2018-03-28T18:24:02Z</time>
      </trkpt>
      <trkpt lat="62.631773393455" lon="17.992403311666">
        <ele>93</ele>
        <time>2018-03-28T18:24:03Z</time>
      </trkpt>
      <trkpt lat="62.63181320748" lon="17.992388978617">
        <ele>93</ele>
        <time>2018-03-28T18:24:04Z</time>
      </trkpt>
      <trkpt lat="62.631848579098" lon="17.992375567577">
        <ele>92.8</ele>
        <time>2018-03-28T18:24:05Z</time>
      </trkpt>
      <trkpt lat="62.631880430318" lon="17.992361234528">
        <ele>92.8</ele>
        <time>2018-03-28T18:24:06Z</time>
      </trkpt>
      <trkpt lat="62.631911443348" lon="17.992337346113">
        <ele>92.6</ele>
        <time>2018-03-28T18:24:07Z</time>
      </trkpt>
      <trkpt lat="62.631940863817" lon="17.99231329006">
        <ele>92.8</ele>
        <time>2018-03-28T18:24:08Z</time>
      </trkpt>
      <trkpt lat="62.631974642874" lon="17.992257885701">
        <ele>92.8</ele>
        <time>2018-03-28T18:24:09Z</time>
      </trkpt>
      <trkpt lat="62.632007583741" lon="17.99224623486">
        <ele>93.4</ele>
        <time>2018-03-28T18:24:10Z</time>
      </trkpt>
      <trkpt lat="62.632040943703" lon="17.992219915694">
        <ele>93.6</ele>
        <time>2018-03-28T18:24:11Z</time>
      </trkpt>
      <trkpt lat="62.632072878742" lon="17.992213042536">
        <ele>94</ele>
        <time>2018-03-28T18:24:12Z</time>
      </trkpt>
      <trkpt lat="62.632105149057" lon="17.992198122754">
        <ele>94</ele>
        <time>2018-03-28T18:24:13Z</time>
      </trkpt>
      <trkpt lat="62.632139514847" lon="17.992186891008">
        <ele>94.2</ele>
        <time>2018-03-28T18:24:14Z</time>
      </trkpt>
      <trkpt lat="62.632182430175" lon="17.992178509108">
        <ele>94.4</ele>
        <time>2018-03-28T18:24:15Z</time>
      </trkpt>
      <trkpt lat="62.632232134842" lon="17.992133498305">
        <ele>94.4</ele>
        <time>2018-03-28T18:24:16Z</time>
      </trkpt>
      <trkpt lat="62.632263064053" lon="17.992107514415">
        <ele>94.4</ele>
        <time>2018-03-28T18:24:17Z</time>
      </trkpt>
      <trkpt lat="62.632295753463" lon="17.992098881058">
        <ele>94.6</ele>
        <time>2018-03-28T18:24:18Z</time>
      </trkpt>
      <trkpt lat="62.63233372347" lon="17.992078345403">
        <ele>95</ele>
        <time>2018-03-28T18:24:19Z</time>
      </trkpt>
      <trkpt lat="62.632369514183" lon="17.992049176391">
        <ele>95</ele>
        <time>2018-03-28T18:24:20Z</time>
      </trkpt>
      <trkpt lat="62.632404801982" lon="17.992032244953">
        <ele>94.8</ele>
        <time>2018-03-28T18:24:21Z</time>
      </trkpt>
      <trkpt lat="62.632440508876" lon="17.992005841968">
        <ele>94.8</ele>
        <time>2018-03-28T18:24:22Z</time>
      </trkpt>
      <trkpt lat="62.632471354268" lon="17.991977259689">
        <ele>94.8</ele>
        <time>2018-03-28T18:24:23Z</time>
      </trkpt>
      <trkpt lat="62.632511168293" lon="17.991960831165">
        <ele>94.8</ele>
        <time>2018-03-28T18:24:24Z</time>
      </trkpt>
      <trkpt lat="62.632546875187" lon="17.991939122044">
        <ele>94.6</ele>
        <time>2018-03-28T18:24:25Z</time>
      </trkpt>
      <trkpt lat="62.63257596038" lon="17.991897966915">
        <ele>94.6</ele>
        <time>2018-03-28T18:24:26Z</time>
      </trkpt>
      <trkpt lat="62.632610493808" lon="17.991863014392">
        <ele>94.8</ele>
        <time>2018-03-28T18:24:27Z</time>
      </trkpt>
      <trkpt lat="62.632633292576" lon="17.991828732421">
        <ele>94.8</ele>
        <time>2018-03-28T18:24:28Z</time>
      </trkpt>
      <trkpt lat="62.632656175163" lon="17.991788918396">
        <ele>94.8</ele>
        <time>2018-03-28T18:24:29Z</time>
      </trkpt>
      <trkpt lat="62.632688948392" lon="17.991742566489">
        <ele>94.8</ele>
        <time>2018-03-28T18:24:30Z</time>
      </trkpt>
      <trkpt lat="62.632715435196" lon="17.991691688356">
        <ele>94.8</ele>
        <time>2018-03-28T18:24:31Z</time>
      </trkpt>
      <trkpt lat="62.632729013874" lon="17.99164944358">
        <ele>94.6</ele>
        <time>2018-03-28T18:24:32Z</time>
      </trkpt>
      <trkpt lat="62.632750555357" lon="17.991583813303">
        <ele>94.6</ele>
        <time>2018-03-28T18:24:33Z</time>
      </trkpt>
      <trkpt lat="62.632776036333" lon="17.991528995677">
        <ele>94.4</ele>
        <time>2018-03-28T18:24:34Z</time>
      </trkpt>
      <trkpt lat="62.632802690775" lon="17.99147510006">
        <ele>94.2</ele>
        <time>2018-03-28T18:24:35Z</time>
      </trkpt>
      <trkpt lat="62.632825992457" lon="17.991411649077">
        <ele>94.2</ele>
        <time>2018-03-28T18:24:36Z</time>
      </trkpt>
      <trkpt lat="62.632847198664" lon="17.99136529717">
        <ele>94</ele>
        <time>2018-03-28T18:24:37Z</time>
      </trkpt>
      <trkpt lat="62.632867901957" lon="17.99130830025">
        <ele>93.8</ele>
        <time>2018-03-28T18:24:38Z</time>
      </trkpt>
      <trkpt lat="62.632904866136" lon="17.991246525647">
        <ele>93.8</ele>
        <time>2018-03-28T18:24:39Z</time>
      </trkpt>
      <trkpt lat="62.632928503094" lon="17.991188941994">
        <ele>93.8</ele>
        <time>2018-03-28T18:24:40Z</time>
      </trkpt>
      <trkpt lat="62.632964293807" lon="17.99112389845">
        <ele>93.8</ele>
        <time>2018-03-28T18:24:41Z</time>
      </trkpt>
      <trkpt lat="62.632987176394" lon="17.991068661729">
        <ele>94</ele>
        <time>2018-03-28T18:24:42Z</time>
      </trkpt>
      <trkpt lat="62.633008801696" lon="17.991012922094">
        <ele>94</ele>
        <time>2018-03-28T18:24:43Z</time>
      </trkpt>
      <trkpt lat="62.633023134745" lon="17.990926672343">
        <ele>94.2</ele>
        <time>2018-03-28T18:24:44Z</time>
      </trkpt>
      <trkpt lat="62.633048783359" lon="17.990863975731">
        <ele>94.4</ele>
        <time>2018-03-28T18:24:45Z</time>
      </trkpt>
      <trkpt lat="62.633066385349" lon="17.99078275512">
        <ele>94.6</ele>
        <time>2018-03-28T18:24:46Z</time>
      </trkpt>
      <trkpt lat="62.633087172461" lon="17.990728188951">
        <ele>94.6</ele>
        <time>2018-03-28T18:24:47Z</time>
      </trkpt>
      <trkpt lat="62.633109216858" lon="17.99067379042">
        <ele>94.4</ele>
        <time>2018-03-28T18:24:48Z</time>
      </trkpt>
      <trkpt lat="62.633138972603" lon="17.990625259219">
        <ele>94.4</ele>
        <time>2018-03-28T18:24:49Z</time>
      </trkpt>
      <trkpt lat="62.633172500203" lon="17.990568094661">
        <ele>94.6</ele>
        <time>2018-03-28T18:24:50Z</time>
      </trkpt>
      <trkpt lat="62.63321801392" lon="17.990527610084">
        <ele>94.4</ele>
        <time>2018-03-28T18:24:51Z</time>
      </trkpt>
      <trkpt lat="62.633245171276" lon="17.990483688928">
        <ele>94.2</ele>
        <time>2018-03-28T18:24:52Z</time>
      </trkpt>
      <trkpt lat="62.633279620885" lon="17.990441025057">
        <ele>94.2</ele>
        <time>2018-03-28T18:24:53Z</time>
      </trkpt>
      <trkpt lat="62.633320105462" lon="17.990405485801">
        <ele>94.4</ele>
        <time>2018-03-28T18:24:54Z</time>
      </trkpt>
      <trkpt lat="62.633349693569" lon="17.990380591558">
        <ele>94</ele>
        <time>2018-03-28T18:24:55Z</time>
      </trkpt>
      <trkpt lat="62.633380706599" lon="17.99038042392">
        <ele>94</ele>
        <time>2018-03-28T18:24:56Z</time>
      </trkpt>
      <trkpt lat="62.633409791792" lon="17.990359301532">
        <ele>94.2</ele>
        <time>2018-03-28T18:24:57Z</time>
      </trkpt>
      <trkpt lat="62.633433512569" lon="17.990336586583">
        <ele>94.4</ele>
        <time>2018-03-28T18:24:58Z</time>
      </trkpt>
      <trkpt lat="62.633466285798" lon="17.990297610748">
        <ele>94.2</ele>
        <time>2018-03-28T18:24:59Z</time>
      </trkpt>
      <trkpt lat="62.633504255805" lon="17.990267603546">
        <ele>94.2</ele>
        <time>2018-03-28T18:25:00Z</time>
      </trkpt>
      <trkpt lat="62.633530491152" lon="17.990233070118">
        <ele>94.2</ele>
        <time>2018-03-28T18:25:01Z</time>
      </trkpt>
      <trkpt lat="62.633554798662" lon="17.99018596384">
        <ele>94.4</ele>
        <time>2018-03-28T18:25:02Z</time>
      </trkpt>
      <trkpt lat="62.633579944362" lon="17.990138019372">
        <ele>94.4</ele>
        <time>2018-03-28T18:25:03Z</time>
      </trkpt>
      <trkpt lat="62.633618501102" lon="17.990074903665">
        <ele>94.6</ele>
        <time>2018-03-28T18:25:04Z</time>
      </trkpt>
      <trkpt lat="62.633651022874" lon="17.990025366636">
        <ele>94.8</ele>
        <time>2018-03-28T18:25:05Z</time>
      </trkpt>
      <trkpt lat="62.633684801931" lon="17.989990581751">
        <ele>94.6</ele>
        <time>2018-03-28T18:25:06Z</time>
      </trkpt>
      <trkpt lat="62.633716150237" lon="17.989924364741">
        <ele>94.4</ele>
        <time>2018-03-28T18:25:07Z</time>
      </trkpt>
      <trkpt lat="62.633742385584" lon="17.989852615677">
        <ele>94.2</ele>
        <time>2018-03-28T18:25:08Z</time>
      </trkpt>
      <trkpt lat="62.633771973691" lon="17.989770556876">
        <ele>93.8</ele>
        <time>2018-03-28T18:25:09Z</time>
      </trkpt>
      <trkpt lat="62.633802064712" lon="17.98970819554">
        <ele>93.6</ele>
        <time>2018-03-28T18:25:10Z</time>
      </trkpt>
      <trkpt lat="62.633840705271" lon="17.989656395398">
        <ele>93.6</ele>
        <time>2018-03-28T18:25:11Z</time>
      </trkpt>
      <trkpt lat="62.633883955875" lon="17.989606606912">
        <ele>93.2</ele>
        <time>2018-03-28T18:25:12Z</time>
      </trkpt>
      <trkpt lat="62.633911113231" lon="17.989553298028">
        <ele>93.2</ele>
        <time>2018-03-28T18:25:13Z</time>
      </trkpt>
      <trkpt lat="62.633944640831" lon="17.989517507315">
        <ele>93.4</ele>
        <time>2018-03-28T18:25:14Z</time>
      </trkpt>
      <trkpt lat="62.633979425716" lon="17.989472245055">
        <ele>93.4</ele>
        <time>2018-03-28T18:25:15Z</time>
      </trkpt>
      <trkpt lat="62.634009349099" lon="17.989430251736">
        <ele>93.2</ele>
        <time>2018-03-28T18:25:16Z</time>
      </trkpt>
      <trkpt lat="62.634033237514" lon="17.989400076896">
        <ele>93.4</ele>
        <time>2018-03-28T18:25:17Z</time>
      </trkpt>
      <trkpt lat="62.634080595249" lon="17.989343079976">
        <ele>93.4</ele>
        <time>2018-03-28T18:25:18Z</time>
      </trkpt>
      <trkpt lat="62.634122588568" lon="17.98927904226">
        <ele>93.2</ele>
        <time>2018-03-28T18:25:19Z</time>
      </trkpt>
      <trkpt lat="62.634159971842" lon="17.989221877702">
        <ele>92.6</ele>
        <time>2018-03-28T18:25:20Z</time>
      </trkpt>
      <trkpt lat="62.634206910482" lon="17.989162869126">
        <ele>92.2</ele>
        <time>2018-03-28T18:25:21Z</time>
      </trkpt>
      <trkpt lat="62.634264242678" lon="17.989097071211">
        <ele>92.2</ele>
        <time>2018-03-28T18:25:22Z</time>
      </trkpt>
      <trkpt lat="62.634317048648" lon="17.989026663251">
        <ele>91.8</ele>
        <time>2018-03-28T18:25:23Z</time>
      </trkpt>
      <trkpt lat="62.634356192121" lon="17.988951729065">
        <ele>92</ele>
        <time>2018-03-28T18:25:24Z</time>
      </trkpt>
      <trkpt lat="62.634386199323" lon="17.988894732145">
        <ele>91.8</ele>
        <time>2018-03-28T18:25:25Z</time>
      </trkpt>
      <trkpt lat="62.634422409131" lon="17.988835220655">
        <ele>92.2</ele>
        <time>2018-03-28T18:25:26Z</time>
      </trkpt>
      <trkpt lat="62.634444034433" lon="17.988749054723">
        <ele>92</ele>
        <time>2018-03-28T18:25:27Z</time>
      </trkpt>
      <trkpt lat="62.634479573689" lon="17.988702451359">
        <ele>91.8</ele>
        <time>2018-03-28T18:25:28Z</time>
      </trkpt>
      <trkpt lat="62.634516286411" lon="17.988622320395">
        <ele>91.4</ele>
        <time>2018-03-28T18:25:29Z</time>
      </trkpt>
      <trkpt lat="62.634559034101" lon="17.988557193032">
        <ele>91</ele>
        <time>2018-03-28T18:25:30Z</time>
      </trkpt>
      <trkpt lat="62.634614522279" lon="17.988492736221">
        <ele>91</ele>
        <time>2018-03-28T18:25:31Z</time>
      </trkpt>
      <trkpt lat="62.634655174494" lon="17.98844755778">
        <ele>90.8</ele>
        <time>2018-03-28T18:25:32Z</time>
      </trkpt>
      <trkpt lat="62.634707393731" lon="17.988402127882">
        <ele>90.4</ele>
        <time>2018-03-28T18:25:33Z</time>
      </trkpt>
      <trkpt lat="62.634764977384" lon="17.988372288318">
        <ele>89.8</ele>
        <time>2018-03-28T18:25:34Z</time>
      </trkpt>
      <trkpt lat="62.634822561037" lon="17.988348064627">
        <ele>89.2</ele>
        <time>2018-03-28T18:25:35Z</time>
      </trkpt>
      <trkpt lat="62.634876708111" lon="17.988334066854">
        <ele>88.4</ele>
        <time>2018-03-28T18:25:36Z</time>
      </trkpt>
      <trkpt lat="62.634930352271" lon="17.988290732431">
        <ele>88</ele>
        <time>2018-03-28T18:25:37Z</time>
      </trkpt>
      <trkpt lat="62.634970333934" lon="17.988243123239">
        <ele>87.8</ele>
        <time>2018-03-28T18:25:38Z</time>
      </trkpt>
      <trkpt lat="62.635013752176" lon="17.988182773559">
        <ele>87.8</ele>
        <time>2018-03-28T18:25:39Z</time>
      </trkpt>
      <trkpt lat="62.635040071342" lon="17.988101217672">
        <ele>87.8</ele>
        <time>2018-03-28T18:25:40Z</time>
      </trkpt>
      <trkpt lat="62.635070497639" lon="17.988007340392">
        <ele>88</ele>
        <time>2018-03-28T18:25:41Z</time>
      </trkpt>
      <trkpt lat="62.63509472133" lon="17.987922180288">
        <ele>88.2</ele>
        <time>2018-03-28T18:25:42Z</time>
      </trkpt>
      <trkpt lat="62.635112658596" lon="17.987848000473">
        <ele>88</ele>
        <time>2018-03-28T18:25:43Z</time>
      </trkpt>
      <trkpt lat="62.63512489617" lon="17.987764684387">
        <ele>88</ele>
        <time>2018-03-28T18:25:44Z</time>
      </trkpt>
      <trkpt lat="62.635131098776" lon="17.987695030798">
        <ele>88</ele>
        <time>2018-03-28T18:25:45Z</time>
      </trkpt>
      <trkpt lat="62.635126237274" lon="17.987655384411">
        <ele>87.8</ele>
        <time>2018-03-28T18:25:46Z</time>
      </trkpt>
      <trkpt lat="62.635105031067" lon="17.98759763312">
        <ele>87.4</ele>
        <time>2018-03-28T18:25:47Z</time>
      </trkpt>
      <trkpt lat="62.635087345258" lon="17.987593190713">
        <ele>87</ele>
        <time>2018-03-28T18:25:48Z</time>
      </trkpt>
      <trkpt lat="62.635070916734" lon="17.987584976451">
        <ele>87</ele>
        <time>2018-03-28T18:25:49Z</time>
      </trkpt>
      <trkpt lat="62.635044765206" lon="17.987694946979">
        <ele>87.4</ele>
        <time>2018-03-28T18:25:50Z</time>
      </trkpt>
      <trkpt lat="62.635030599795" lon="17.98773928723">
        <ele>87.4</ele>
        <time>2018-03-28T18:25:51Z</time>
      </trkpt>
      <trkpt lat="62.635019954782" lon="17.9877669475">
        <ele>87.4</ele>
        <time>2018-03-28T18:25:52Z</time>
      </trkpt>
      <trkpt lat="62.635001179326" lon="17.987798295806">
        <ele>87.4</ele>
        <time>2018-03-28T18:25:53Z</time>
      </trkpt>
      <trkpt lat="62.634980643671" lon="17.98783903184">
        <ele>87.6</ele>
        <time>2018-03-28T18:25:54Z</time>
      </trkpt>
      <trkpt lat="62.634962203491" lon="17.987878678227">
        <ele>87.4</ele>
        <time>2018-03-28T18:25:55Z</time>
      </trkpt>
      <trkpt lat="62.634942338388" lon="17.987909607438">
        <ele>87.4</ele>
        <time>2018-03-28T18:25:56Z</time>
      </trkpt>
      <trkpt lat="62.634923311475" lon="17.98795051111">
        <ele>87.4</ele>
        <time>2018-03-28T18:25:57Z</time>
      </trkpt>
      <trkpt lat="62.634901686173" lon="17.987978339018">
        <ele>87.6</ele>
        <time>2018-03-28T18:25:58Z</time>
      </trkpt>
      <trkpt lat="62.634888778047" lon="17.988005580193">
        <ele>87.8</ele>
        <time>2018-03-28T18:25:59Z</time>
      </trkpt>
      <trkpt lat="62.634871343695" lon="17.988031899359">
        <ele>87.6</ele>
        <time>2018-03-28T18:26:00Z</time>
      </trkpt>
      <trkpt lat="62.634858938483" lon="17.988052686471">
        <ele>87.8</ele>
        <time>2018-03-28T18:26:01Z</time>
      </trkpt>
      <trkpt lat="62.634839660113" lon="17.988066432787">
        <ele>87.8</ele>
        <time>2018-03-28T18:26:02Z</time>
      </trkpt>
      <trkpt lat="62.634820214105" lon="17.988079927646">
        <ele>88</ele>
        <time>2018-03-28T18:26:03Z</time>
      </trkpt>
      <trkpt lat="62.634800265183" lon="17.988088393365">
        <ele>88</ele>
        <time>2018-03-28T18:26:04Z</time>
      </trkpt>
      <trkpt lat="62.634777717872" lon="17.988097026722">
        <ele>88.2</ele>
        <time>2018-03-28T18:26:05Z</time>
      </trkpt>
      <trkpt lat="62.634753075086" lon="17.988116724187">
        <ele>88.4</ele>
        <time>2018-03-28T18:26:06Z</time>
      </trkpt>
      <trkpt lat="62.634722900246" lon="17.988119238757">
        <ele>88.4</ele>
        <time>2018-03-28T18:26:07Z</time>
      </trkpt>
      <trkpt lat="62.634701861677" lon="17.988123429707">
        <ele>88.6</ele>
        <time>2018-03-28T18:26:08Z</time>
      </trkpt>
      <trkpt lat="62.634669256086" lon="17.988134745272">
        <ele>88.8</ele>
        <time>2018-03-28T18:26:09Z</time>
      </trkpt>
      <trkpt lat="62.634645702947" lon="17.988149832692">
        <ele>89</ele>
        <time>2018-03-28T18:26:10Z</time>
      </trkpt>
      <trkpt lat="62.634617372125" lon="17.988156202936">
        <ele>89.2</ele>
        <time>2018-03-28T18:26:11Z</time>
      </trkpt>
      <trkpt lat="62.634588370751" lon="17.988169865433">
        <ele>89.2</ele>
        <time>2018-03-28T18:26:12Z</time>
      </trkpt>
      <trkpt lat="62.634568589467" lon="17.988164920112">
        <ele>89.4</ele>
        <time>2018-03-28T18:26:13Z</time>
      </trkpt>
      <trkpt lat="62.634552160943" lon="17.988160980619">
        <ele>89.2</ele>
        <time>2018-03-28T18:26:14Z</time>
      </trkpt>
      <trkpt lat="62.634527769614" lon="17.988166177397">
        <ele>89.2</ele>
        <time>2018-03-28T18:26:15Z</time>
      </trkpt>
      <trkpt lat="62.634498935878" lon="17.988173385831">
        <ele>89.2</ele>
        <time>2018-03-28T18:26:16Z</time>
      </trkpt>
      <trkpt lat="62.634473371083" lon="17.988176403315">
        <ele>89.4</ele>
        <time>2018-03-28T18:26:17Z</time>
      </trkpt>
      <trkpt lat="62.63444596227" lon="17.988177409143">
        <ele>89.4</ele>
        <time>2018-03-28T18:26:18Z</time>
      </trkpt>
      <trkpt lat="62.634424420787" lon="17.988180091351">
        <ele>89.6</ele>
        <time>2018-03-28T18:26:19Z</time>
      </trkpt>
      <trkpt lat="62.634388462436" lon="17.988196436056">
        <ele>89.8</ele>
        <time>2018-03-28T18:26:20Z</time>
      </trkpt>
      <trkpt lat="62.634360299252" lon="17.988211439657">
        <ele>90</ele>
        <time>2018-03-28T18:26:21Z</time>
      </trkpt>
      <trkpt lat="62.634329537679" lon="17.988207164888">
        <ele>90.2</ele>
        <time>2018-03-28T18:26:22Z</time>
      </trkpt>
      <trkpt lat="62.634304559617" lon="17.988214624779">
        <ele>90.2</ele>
        <time>2018-03-28T18:26:23Z</time>
      </trkpt>
      <trkpt lat="62.634274049501" lon="17.988218145177">
        <ele>90.2</ele>
        <time>2018-03-28T18:26:24Z</time>
      </trkpt>
      <trkpt lat="62.634238258788" lon="17.98820364449">
        <ele>90.4</ele>
        <time>2018-03-28T18:26:25Z</time>
      </trkpt>
      <trkpt lat="62.634211101432" lon="17.988188808527">
        <ele>90.4</ele>
        <time>2018-03-28T18:26:26Z</time>
      </trkpt>
      <trkpt lat="62.63417019776" lon="17.988172882917">
        <ele>90.4</ele>
        <time>2018-03-28T18:26:27Z</time>
      </trkpt>
      <trkpt lat="62.634140106739" lon="17.988164584836">
        <ele>90.4</ele>
        <time>2018-03-28T18:26:28Z</time>
      </trkpt>
      <trkpt lat="62.634103226379" lon="17.988142372801">
        <ele>90.4</ele>
        <time>2018-03-28T18:26:29Z</time>
      </trkpt>
      <trkpt lat="62.634067854761" lon="17.988138936222">
        <ele>90.4</ele>
        <time>2018-03-28T18:26:30Z</time>
      </trkpt>
      <trkpt lat="62.634037260826" lon="17.988122675336">
        <ele>90.6</ele>
        <time>2018-03-28T18:26:31Z</time>
      </trkpt>
      <trkpt lat="62.634004571416" lon="17.988105157165">
        <ele>90.8</ele>
        <time>2018-03-28T18:26:32Z</time>
      </trkpt>
      <trkpt lat="62.633974983309" lon="17.988081771664">
        <ele>90.8</ele>
        <time>2018-03-28T18:26:33Z</time>
      </trkpt>
      <trkpt lat="62.633947742134" lon="17.988058972896">
        <ele>90.8</ele>
        <time>2018-03-28T18:26:34Z</time>
      </trkpt>
      <trkpt lat="62.633921422968" lon="17.988048244064">
        <ele>91.2</ele>
        <time>2018-03-28T18:26:35Z</time>
      </trkpt>
      <trkpt lat="62.633898121286" lon="17.988034833024">
        <ele>91</ele>
        <time>2018-03-28T18:26:36Z</time>
      </trkpt>
      <trkpt lat="62.633867275894" lon="17.988017985405">
        <ele>91.2</ele>
        <time>2018-03-28T18:26:37Z</time>
      </trkpt>
      <trkpt lat="62.633843806574" lon="17.987992672067">
        <ele>91.4</ele>
        <time>2018-03-28T18:26:38Z</time>
      </trkpt>
      <trkpt lat="62.633823354738" lon="17.987975070077">
        <ele>91.6</ele>
        <time>2018-03-28T18:26:39Z</time>
      </trkpt>
      <trkpt lat="62.633803321997" lon="17.987957803363">
        <ele>91.6</ele>
        <time>2018-03-28T18:26:40Z</time>
      </trkpt>
      <trkpt lat="62.633777757202" lon="17.987927293247">
        <ele>91.6</ele>
        <time>2018-03-28T18:26:41Z</time>
      </trkpt>
      <trkpt lat="62.633750180751" lon="17.987910613266">
        <ele>91.8</ele>
        <time>2018-03-28T18:26:42Z</time>
      </trkpt>
      <trkpt lat="62.633718832445" lon="17.98788261772">
        <ele>91.8</ele>
        <time>2018-03-28T18:26:43Z</time>
      </trkpt>
      <trkpt lat="62.633689244338" lon="17.987850934138">
        <ele>91.6</ele>
        <time>2018-03-28T18:26:44Z</time>
      </trkpt>
      <trkpt lat="62.633665775018" lon="17.987822435678">
        <ele>91.6</ele>
        <time>2018-03-28T18:26:45Z</time>
      </trkpt>
      <trkpt lat="62.63364549082" lon="17.987802905851">
        <ele>91.8</ele>
        <time>2018-03-28T18:26:46Z</time>
      </trkpt>
      <trkpt lat="62.633623865518" lon="17.987783878938">
        <ele>92</ele>
        <time>2018-03-28T18:26:47Z</time>
      </trkpt>
      <trkpt lat="62.633600060922" lon="17.987755715754">
        <ele>92</ele>
        <time>2018-03-28T18:26:48Z</time>
      </trkpt>
      <trkpt lat="62.633575334317" lon="17.987727468751">
        <ele>92.2</ele>
        <time>2018-03-28T18:26:49Z</time>
      </trkpt>
      <trkpt lat="62.633556810318" lon="17.987688744373">
        <ele>92.4</ele>
        <time>2018-03-28T18:26:50Z</time>
      </trkpt>
      <trkpt lat="62.633518756492" lon="17.987641638095">
        <ele>92.6</ele>
        <time>2018-03-28T18:26:51Z</time>
      </trkpt>
      <trkpt lat="62.633488078738" lon="17.987605512106">
        <ele>92.8</ele>
        <time>2018-03-28T18:26:52Z</time>
      </trkpt>
      <trkpt lat="62.633461340477" lon="17.987567625918">
        <ele>93</ele>
        <time>2018-03-28T18:26:53Z</time>
      </trkpt>
      <trkpt lat="62.633436697691" lon="17.987522363658">
        <ele>93.2</ele>
        <time>2018-03-28T18:26:54Z</time>
      </trkpt>
      <trkpt lat="62.633415659122" lon="17.987491350628">
        <ele>93.4</ele>
        <time>2018-03-28T18:26:55Z</time>
      </trkpt>
      <trkpt lat="62.633396464571" lon="17.987453967354">
        <ele>93.6</ele>
        <time>2018-03-28T18:26:56Z</time>
      </trkpt>
      <trkpt lat="62.633377102382" lon="17.987408285999">
        <ele>93.8</ele>
        <time>2018-03-28T18:26:57Z</time>
      </trkpt>
      <trkpt lat="62.633363356066" lon="17.987374423123">
        <ele>94</ele>
        <time>2018-03-28T18:26:58Z</time>
      </trkpt>
      <trkpt lat="62.633339467651" lon="17.987327316845">
        <ele>94.2</ele>
        <time>2018-03-28T18:26:59Z</time>
      </trkpt>
      <trkpt lat="62.633313064666" lon="17.98725816617">
        <ele>94.6</ele>
        <time>2018-03-28T18:27:00Z</time>
      </trkpt>
      <trkpt lat="62.633292109916" lon="17.987178789577">
        <ele>94.4</ele>
        <time>2018-03-28T18:27:01Z</time>
      </trkpt>
      <trkpt lat="62.633277106315" lon="17.987095389672">
        <ele>94.2</ele>
        <time>2018-03-28T18:27:02Z</time>
      </trkpt>
      <trkpt lat="62.633260091058" lon="17.986970415543">
        <ele>93.8</ele>
        <time>2018-03-28T18:27:03Z</time>
      </trkpt>
      <trkpt lat="62.633236370281" lon="17.986857762807">
        <ele>93</ele>
        <time>2018-03-28T18:27:04Z</time>
      </trkpt>
      <trkpt lat="62.633226312001" lon="17.986752905238">
        <ele>92.2</ele>
        <time>2018-03-28T18:27:05Z</time>
      </trkpt>
      <trkpt lat="62.633213655332" lon="17.986641509787">
        <ele>91.6</ele>
        <time>2018-03-28T18:27:06Z</time>
      </trkpt>
      <trkpt lat="62.633210218753" lon="17.986538580055">
        <ele>91.2</ele>
        <time>2018-03-28T18:27:07Z</time>
      </trkpt>
      <trkpt lat="62.633214325884" lon="17.986448390811">
        <ele>90.8</ele>
        <time>2018-03-28T18:27:08Z</time>
      </trkpt>
      <trkpt lat="62.633209799658" lon="17.986357028101">
        <ele>90.4</ele>
        <time>2018-03-28T18:27:09Z</time>
      </trkpt>
      <trkpt lat="62.633222540146" lon="17.98625904369">
        <ele>90.2</ele>
        <time>2018-03-28T18:27:10Z</time>
      </trkpt>
      <trkpt lat="62.633231257322" lon="17.986137757597">
        <ele>90.2</ele>
        <time>2018-03-28T18:27:11Z</time>
      </trkpt>
      <trkpt lat="62.63323310134" lon="17.986015298038">
        <ele>89.8</ele>
        <time>2018-03-28T18:27:12Z</time>
      </trkpt>
      <trkpt lat="62.633233185159" lon="17.98589610742">
        <ele>89.4</ele>
        <time>2018-03-28T18:27:13Z</time>
      </trkpt>
      <trkpt lat="62.633240225955" lon="17.985774653689">
        <ele>89.2</ele>
        <time>2018-03-28T18:27:14Z</time>
      </trkpt>
      <trkpt lat="62.633241231783" lon="17.985661498039">
        <ele>88.6</ele>
        <time>2018-03-28T18:27:15Z</time>
      </trkpt>
      <trkpt lat="62.63325489428" lon="17.985556221375">
        <ele>88.4</ele>
        <time>2018-03-28T18:27:16Z</time>
      </trkpt>
      <trkpt lat="62.633263108542" lon="17.985461170629">
        <ele>88.2</ele>
        <time>2018-03-28T18:27:17Z</time>
      </trkpt>
      <trkpt lat="62.633277022496" lon="17.985342566744">
        <ele>88.4</ele>
        <time>2018-03-28T18:27:18Z</time>
      </trkpt>
      <trkpt lat="62.633292948106" lon="17.985171492165">
        <ele>88.4</ele>
        <time>2018-03-28T18:27:19Z</time>
      </trkpt>
      <trkpt lat="62.633309544268" lon="17.985010475866">
        <ele>88</ele>
        <time>2018-03-28T18:27:20Z</time>
      </trkpt>
      <trkpt lat="62.633329828466" lon="17.984864463168">
        <ele>87.4</ele>
        <time>2018-03-28T18:27:21Z</time>
      </trkpt>
      <trkpt lat="62.633350112664" lon="17.98473772884">
        <ele>86.8</ele>
        <time>2018-03-28T18:27:22Z</time>
      </trkpt>
      <trkpt lat="62.63337140269" lon="17.984614934005">
        <ele>86.2</ele>
        <time>2018-03-28T18:27:23Z</time>
      </trkpt>
      <trkpt lat="62.633395291105" lon="17.984494569921">
        <ele>85.4</ele>
        <time>2018-03-28T18:27:24Z</time>
      </trkpt>
      <trkpt lat="62.633414066561" lon="17.984391137275">
        <ele>85</ele>
        <time>2018-03-28T18:27:25Z</time>
      </trkpt>
      <trkpt lat="62.633421442633" lon="17.984288542819">
        <ele>84.8</ele>
        <time>2018-03-28T18:27:26Z</time>
      </trkpt>
      <trkpt lat="62.633430830361" lon="17.98417614154">
        <ele>84.8</ele>
        <time>2018-03-28T18:27:27Z</time>
      </trkpt>
      <trkpt lat="62.633451785111" lon="17.984094501834">
        <ele>84.8</ele>
        <time>2018-03-28T18:27:28Z</time>
      </trkpt>
      <trkpt lat="62.633484474521" lon="17.984008754997">
        <ele>85</ele>
        <time>2018-03-28T18:27:29Z</time>
      </trkpt>
      <trkpt lat="62.63349713119" lon="17.983912530785">
        <ele>85.2</ele>
        <time>2018-03-28T18:27:30Z</time>
      </trkpt>
      <trkpt lat="62.633507524746" lon="17.983826197215">
        <ele>85.4</ele>
        <time>2018-03-28T18:27:31Z</time>
      </trkpt>
      <trkpt lat="62.633506183642" lon="17.983735337419">
        <ele>85.6</ele>
        <time>2018-03-28T18:27:32Z</time>
      </trkpt>
      <trkpt lat="62.633518840311" lon="17.983647746564">
        <ele>86</ele>
        <time>2018-03-28T18:27:33Z</time>
      </trkpt>
      <trkpt lat="62.633534765921" lon="17.983557641139">
        <ele>86.4</ele>
        <time>2018-03-28T18:27:34Z</time>
      </trkpt>
      <trkpt lat="62.633545830029" lon="17.983468373904">
        <ele>86.2</ele>
        <time>2018-03-28T18:27:35Z</time>
      </trkpt>
      <trkpt lat="62.633556223585" lon="17.983387823845">
        <ele>86.4</ele>
        <time>2018-03-28T18:27:36Z</time>
      </trkpt>
      <trkpt lat="62.633570808091" lon="17.983312973478">
        <ele>86.4</ele>
        <time>2018-03-28T18:27:37Z</time>
      </trkpt>
      <trkpt lat="62.633593439221" lon="17.983242565518">
        <ele>86.6</ele>
        <time>2018-03-28T18:27:38Z</time>
      </trkpt>
      <trkpt lat="62.633621770043" lon="17.983164613848">
        <ele>86.4</ele>
        <time>2018-03-28T18:27:39Z</time>
      </trkpt>
      <trkpt lat="62.633652699254" lon="17.983090853128">
        <ele>86.6</ele>
        <time>2018-03-28T18:27:40Z</time>
      </trkpt>
      <trkpt lat="62.63367901842" lon="17.983011560354">
        <ele>86.8</ele>
        <time>2018-03-28T18:27:41Z</time>
      </trkpt>
      <trkpt lat="62.633698715885" lon="17.982929166277">
        <ele>86.6</ele>
        <time>2018-03-28T18:27:42Z</time>
      </trkpt>
      <trkpt lat="62.63370835507" lon="17.982852974806">
        <ele>86.4</ele>
        <time>2018-03-28T18:27:43Z</time>
      </trkpt>
      <trkpt lat="62.633727298164" lon="17.982773095299">
        <ele>86.4</ele>
        <time>2018-03-28T18:27:44Z</time>
      </trkpt>
      <trkpt lat="62.633745738344" lon="17.982687013186">
        <ele>86.6</ele>
        <time>2018-03-28T18:27:45Z</time>
      </trkpt>
      <trkpt lat="62.633760909583" lon="17.98262716642">
        <ele>86.4</ele>
        <time>2018-03-28T18:27:46Z</time>
      </trkpt>
      <trkpt lat="62.633769040026" lon="17.98255424389">
        <ele>86.4</ele>
        <time>2018-03-28T18:27:47Z</time>
      </trkpt>
      <trkpt lat="62.633781445238" lon="17.982481656636">
        <ele>86.4</ele>
        <time>2018-03-28T18:27:48Z</time>
      </trkpt>
      <trkpt lat="62.633793598993" lon="17.982410410486">
        <ele>86.6</ele>
        <time>2018-03-28T18:27:49Z</time>
      </trkpt>
      <trkpt lat="62.633803741092" lon="17.982334470472">
        <ele>86.6</ele>
        <time>2018-03-28T18:27:50Z</time>
      </trkpt>
      <trkpt lat="62.633821678358" lon="17.982259452467">
        <ele>86.4</ele>
        <time>2018-03-28T18:27:51Z</time>
      </trkpt>
      <trkpt lat="62.633832239552" lon="17.982189379783">
        <ele>86.6</ele>
        <time>2018-03-28T18:27:52Z</time>
      </trkpt>
      <trkpt lat="62.633842130194" lon="17.982112433941">
        <ele>86.8</ele>
        <time>2018-03-28T18:27:53Z</time>
      </trkpt>
      <trkpt lat="62.633857217614" lon="17.982043450904">
        <ele>87</ele>
        <time>2018-03-28T18:27:54Z</time>
      </trkpt>
      <trkpt lat="62.633872975586" lon="17.981967678528">
        <ele>86.6</ele>
        <time>2018-03-28T18:27:55Z</time>
      </trkpt>
      <trkpt lat="62.633885380798" lon="17.981873885067">
        <ele>86.6</ele>
        <time>2018-03-28T18:27:56Z</time>
      </trkpt>
      <trkpt lat="62.633889152653" lon="17.981785036927">
        <ele>86.8</ele>
        <time>2018-03-28T18:27:57Z</time>
      </trkpt>
      <trkpt lat="62.633871215387" lon="17.981691494923">
        <ele>86.8</ele>
        <time>2018-03-28T18:27:58Z</time>
      </trkpt>
      <trkpt lat="62.633874735785" lon="17.981592420865">
        <ele>86.8</ele>
        <time>2018-03-28T18:27:59Z</time>
      </trkpt>
      <trkpt lat="62.633882028038" lon="17.981519330697">
        <ele>87</ele>
        <time>2018-03-28T18:28:00Z</time>
      </trkpt>
      <trkpt lat="62.633880100201" lon="17.981437188077">
        <ele>87</ele>
        <time>2018-03-28T18:28:01Z</time>
      </trkpt>
      <trkpt lat="62.63388269859" lon="17.981368456497">
        <ele>87</ele>
        <time>2018-03-28T18:28:02Z</time>
      </trkpt>
      <trkpt lat="62.633889152653" lon="17.981299808736">
        <ele>87</ele>
        <time>2018-03-28T18:28:03Z</time>
      </trkpt>
      <trkpt lat="62.633902647512" lon="17.981240129608">
        <ele>87</ele>
        <time>2018-03-28T18:28:04Z</time>
      </trkpt>
      <trkpt lat="62.633904323892" lon="17.981162513214">
        <ele>86.8</ele>
        <time>2018-03-28T18:28:05Z</time>
      </trkpt>
      <trkpt lat="62.633921925882" lon="17.981124124112">
        <ele>87</ele>
        <time>2018-03-28T18:28:06Z</time>
      </trkpt>
      <trkpt lat="62.633933409085" lon="17.981062768604">
        <ele>87.2</ele>
        <time>2018-03-28T18:28:07Z</time>
      </trkpt>
      <trkpt lat="62.633958051871" lon="17.981011890471">
        <ele>87.2</ele>
        <time>2018-03-28T18:28:08Z</time>
      </trkpt>
      <trkpt lat="62.633971965825" lon="17.98095497737">
        <ele>87.2</ele>
        <time>2018-03-28T18:28:09Z</time>
      </trkpt>
      <trkpt lat="62.633986298874" lon="17.980902925771">
        <ele>87.6</ele>
        <time>2018-03-28T18:28:10Z</time>
      </trkpt>
      <trkpt lat="62.634005996339" lon="17.980852885828">
        <ele>87.6</ele>
        <time>2018-03-28T18:28:11Z</time>
      </trkpt>
      <trkpt lat="62.63403022003" lon="17.980821202246">
        <ele>87.8</ele>
        <time>2018-03-28T18:28:12Z</time>
      </trkpt>
      <trkpt lat="62.634047235287" lon="17.980763953869">
        <ele>87.8</ele>
        <time>2018-03-28T18:28:13Z</time>
      </trkpt>
      <trkpt lat="62.634065926924" lon="17.980694887013">
        <ele>88</ele>
        <time>2018-03-28T18:28:14Z</time>
      </trkpt>
      <trkpt lat="62.634085121475" lon="17.980628753822">
        <ele>88.2</ele>
        <time>2018-03-28T18:28:15Z</time>
      </trkpt>
      <trkpt lat="62.634102388189" lon="17.980564967563">
        <ele>88.2</ele>
        <time>2018-03-28T18:28:16Z</time>
      </trkpt>
      <trkpt lat="62.634116637419" lon="17.980499421105">
        <ele>88.2</ele>
        <time>2018-03-28T18:28:17Z</time>
      </trkpt>
      <trkpt lat="62.634132646848" lon="17.980437227407">
        <ele>88.2</ele>
        <time>2018-03-28T18:28:18Z</time>
      </trkpt>
      <trkpt lat="62.634150332657" lon="17.980367489999">
        <ele>88.4</ele>
        <time>2018-03-28T18:28:19Z</time>
      </trkpt>
      <trkpt lat="62.63417857966" lon="17.980327424517">
        <ele>88.2</ele>
        <time>2018-03-28T18:28:20Z</time>
      </trkpt>
      <trkpt lat="62.634201965161" lon="17.980273696538">
        <ele>88.2</ele>
        <time>2018-03-28T18:28:21Z</time>
      </trkpt>
      <trkpt lat="62.634221159712" lon="17.980226506441">
        <ele>88.2</ele>
        <time>2018-03-28T18:28:22Z</time>
      </trkpt>
      <trkpt lat="62.634244629032" lon="17.980141681613">
        <ele>88.2</ele>
        <time>2018-03-28T18:28:23Z</time>
      </trkpt>
      <trkpt lat="62.634269187999" lon="17.980070770739">
        <ele>88.2</ele>
        <time>2018-03-28T18:28:24Z</time>
      </trkpt>
      <trkpt lat="62.634291567672" lon="17.980019724968">
        <ele>88</ele>
        <time>2018-03-28T18:28:25Z</time>
      </trkpt>
      <trkpt lat="62.634312773879" lon="17.979954094691">
        <ele>88</ele>
        <time>2018-03-28T18:28:26Z</time>
      </trkpt>
      <trkpt lat="62.634339847416" lon="17.979888296776">
        <ele>88</ele>
        <time>2018-03-28T18:28:27Z</time>
      </trkpt>
      <trkpt lat="62.634351833533" lon="17.979812021486">
        <ele>88</ele>
        <time>2018-03-28T18:28:28Z</time>
      </trkpt>
      <trkpt lat="62.634366166582" lon="17.979729208314">
        <ele>88</ele>
        <time>2018-03-28T18:28:29Z</time>
      </trkpt>
      <trkpt lat="62.634382511287" lon="17.979647484789">
        <ele>88</ele>
        <time>2018-03-28T18:28:30Z</time>
      </trkpt>
      <trkpt lat="62.634391144644" lon="17.97956861111">
        <ele>88</ele>
        <time>2018-03-28T18:28:31Z</time>
      </trkpt>
      <trkpt lat="62.634401370562" lon="17.979489569793">
        <ele>88</ele>
        <time>2018-03-28T18:28:32Z</time>
      </trkpt>
      <trkpt lat="62.634415452154" lon="17.979420838213">
        <ele>88</ele>
        <time>2018-03-28T18:28:33Z</time>
      </trkpt>
      <trkpt lat="62.634433221782" lon="17.979356884316">
        <ele>87.8</ele>
        <time>2018-03-28T18:28:34Z</time>
      </trkpt>
      <trkpt lat="62.634444369709" lon="17.979266695072">
        <ele>87.8</ele>
        <time>2018-03-28T18:28:35Z</time>
      </trkpt>
      <trkpt lat="62.634463983355" lon="17.979208943781">
        <ele>87.8</ele>
        <time>2018-03-28T18:28:36Z</time>
      </trkpt>
      <trkpt lat="62.634474544549" lon="17.97912353222">
        <ele>87.8</ele>
        <time>2018-03-28T18:28:37Z</time>
      </trkpt>
      <trkpt lat="62.634499271154" lon="17.979062092893">
        <ele>87.8</ele>
        <time>2018-03-28T18:28:38Z</time>
      </trkpt>
      <trkpt lat="62.634511508728" lon="17.978977184246">
        <ele>88</ele>
        <time>2018-03-28T18:28:39Z</time>
      </trkpt>
      <trkpt lat="62.63452475213" lon="17.978892443237">
        <ele>87.8</ele>
        <time>2018-03-28T18:28:40Z</time>
      </trkpt>
      <trkpt lat="62.634546796527" lon="17.97882681296">
        <ele>88</ele>
        <time>2018-03-28T18:28:41Z</time>
      </trkpt>
      <trkpt lat="62.634558112092" lon="17.978738132458">
        <ele>88</ele>
        <time>2018-03-28T18:28:42Z</time>
      </trkpt>
      <trkpt lat="62.634575294987" lon="17.978670658163">
        <ele>88</ele>
        <time>2018-03-28T18:28:43Z</time>
      </trkpt>
      <trkpt lat="62.634590466226" lon="17.978592622674">
        <ele>88</ele>
        <time>2018-03-28T18:28:44Z</time>
      </trkpt>
      <trkpt lat="62.634594573357" lon="17.978490531132">
        <ele>88</ele>
        <time>2018-03-28T18:28:45Z</time>
      </trkpt>
      <trkpt lat="62.634607397664" lon="17.978418782068">
        <ele>88</ele>
        <time>2018-03-28T18:28:46Z</time>
      </trkpt>
      <trkpt lat="62.634618964686" lon="17.97831048792">
        <ele>87.8</ele>
        <time>2018-03-28T18:28:47Z</time>
      </trkpt>
      <trkpt lat="62.634632291907" lon="17.978213844613">
        <ele>87.8</ele>
        <time>2018-03-28T18:28:48Z</time>
      </trkpt>
      <trkpt lat="62.63464377511" lon="17.978132875459">
        <ele>87.6</ele>
        <time>2018-03-28T18:28:49Z</time>
      </trkpt>
      <trkpt lat="62.634661460919" lon="17.978040926016">
        <ele>87.4</ele>
        <time>2018-03-28T18:28:50Z</time>
      </trkpt>
      <trkpt lat="62.634680906927" lon="17.977952496971">
        <ele>87.2</ele>
        <time>2018-03-28T18:28:51Z</time>
      </trkpt>
      <trkpt lat="62.634690629931" lon="17.977864989935">
        <ele>87</ele>
        <time>2018-03-28T18:28:52Z</time>
      </trkpt>
      <trkpt lat="62.634705382075" lon="17.977813357431">
        <ele>87</ele>
        <time>2018-03-28T18:28:53Z</time>
      </trkpt>
      <trkpt lat="62.634719631305" lon="17.977702548713">
        <ele>87</ele>
        <time>2018-03-28T18:28:54Z</time>
      </trkpt>
      <trkpt lat="62.634727761748" lon="17.977599199886">
        <ele>86.6</ele>
        <time>2018-03-28T18:28:55Z</time>
      </trkpt>
      <trkpt lat="62.634753075086" lon="17.977528121374">
        <ele>86.6</ele>
        <time>2018-03-28T18:28:56Z</time>
      </trkpt>
      <trkpt lat="62.634775119483" lon="17.977452013722">
        <ele>86.6</ele>
        <time>2018-03-28T18:28:57Z</time>
      </trkpt>
      <trkpt lat="62.634791464188" lon="17.977383952694">
        <ele>86.6</ele>
        <time>2018-03-28T18:28:58Z</time>
      </trkpt>
      <trkpt lat="62.634807808893" lon="17.977295942744">
        <ele>86.4</ele>
        <time>2018-03-28T18:28:59Z</time>
      </trkpt>
      <trkpt lat="62.634821136114" lon="17.977210950278">
        <ele>86.6</ele>
        <time>2018-03-28T18:29:00Z</time>
      </trkpt>
      <trkpt lat="62.634838402828" lon="17.977132495694">
        <ele>86.4</ele>
        <time>2018-03-28T18:29:01Z</time>
      </trkpt>
      <trkpt lat="62.634853909343" lon="17.977064015571">
        <ele>86.6</ele>
        <time>2018-03-28T18:29:02Z</time>
      </trkpt>
      <trkpt lat="62.634870505505" lon="17.976976676173">
        <ele>86.6</ele>
        <time>2018-03-28T18:29:03Z</time>
      </trkpt>
      <trkpt lat="62.634884922373" lon="17.976888833861">
        <ele>86.6</ele>
        <time>2018-03-28T18:29:04Z</time>
      </trkpt>
      <trkpt lat="62.634908726969" lon="17.976832507493">
        <ele>86.2</ele>
        <time>2018-03-28T18:29:05Z</time>
      </trkpt>
      <trkpt lat="62.634924317303" lon="17.976744665181">
        <ele>86</ele>
        <time>2018-03-28T18:29:06Z</time>
      </trkpt>
      <trkpt lat="62.634945188234" lon="17.976652715738">
        <ele>85.8</ele>
        <time>2018-03-28T18:29:07Z</time>
      </trkpt>
      <trkpt lat="62.634965472432" lon="17.976573003869">
        <ele>85.8</ele>
        <time>2018-03-28T18:29:08Z</time>
      </trkpt>
      <trkpt lat="62.634990534313" lon="17.976474516544">
        <ele>85.8</ele>
        <time>2018-03-28T18:29:09Z</time>
      </trkpt>
      <trkpt lat="62.635014087452" lon="17.9763843273">
        <ele>85.6</ele>
        <time>2018-03-28T18:29:10Z</time>
      </trkpt>
      <trkpt lat="62.635040490437" lon="17.976296401169">
        <ele>85.8</ele>
        <time>2018-03-28T18:29:11Z</time>
      </trkpt>
      <trkpt lat="62.63506287011" lon="17.976218952413">
        <ele>85.8</ele>
        <time>2018-03-28T18:29:12Z</time>
      </trkpt>
      <trkpt lat="62.635087680534" lon="17.976138821449">
        <ele>85.8</ele>
        <time>2018-03-28T18:29:13Z</time>
      </trkpt>
      <trkpt lat="62.635113832062" lon="17.976037651916">
        <ele>86</ele>
        <time>2018-03-28T18:29:14Z</time>
      </trkpt>
      <trkpt lat="62.635125315265" lon="17.975935392736">
        <ele>85.6</ele>
        <time>2018-03-28T18:29:15Z</time>
      </trkpt>
      <trkpt lat="62.635149119861" lon="17.975855764686">
        <ele>85.6</ele>
        <time>2018-03-28T18:29:16Z</time>
      </trkpt>
      <trkpt lat="62.635166889489" lon="17.97577161041">
        <ele>85.2</ele>
        <time>2018-03-28T18:29:17Z</time>
      </trkpt>
      <trkpt lat="62.635176528674" lon="17.975673877456">
        <ele>84.8</ele>
        <time>2018-03-28T18:29:18Z</time>
      </trkpt>
      <trkpt lat="62.635189855895" lon="17.975575390131">
        <ele>84.4</ele>
        <time>2018-03-28T18:29:19Z</time>
      </trkpt>
      <trkpt lat="62.635194968854" lon="17.975482099584">
        <ele>84</ele>
        <time>2018-03-28T18:29:20Z</time>
      </trkpt>
      <trkpt lat="62.635202931659" lon="17.975376655282">
        <ele>84</ele>
        <time>2018-03-28T18:29:21Z</time>
      </trkpt>
      <trkpt lat="62.635200668546" lon="17.975270121333">
        <ele>83.8</ele>
        <time>2018-03-28T18:29:22Z</time>
      </trkpt>
      <trkpt lat="62.63519027499" lon="17.975167526877">
        <ele>83.4</ele>
        <time>2018-03-28T18:29:23Z</time>
      </trkpt>
      <trkpt lat="62.635176444855" lon="17.975061495842">
        <ele>83</ele>
        <time>2018-03-28T18:29:24Z</time>
      </trkpt>
      <trkpt lat="62.635152640259" lon="17.974960410128">
        <ele>82.4</ele>
        <time>2018-03-28T18:29:25Z</time>
      </trkpt>
      <trkpt lat="62.635128165111" lon="17.974860749337">
        <ele>81.8</ele>
        <time>2018-03-28T18:29:26Z</time>
      </trkpt>
      <trkpt lat="62.635104025239" lon="17.974756981415">
        <ele>81.6</ele>
        <time>2018-03-28T18:29:27Z</time>
      </trkpt>
      <trkpt lat="62.635077454616" lon="17.974656566253">
        <ele>81.2</ele>
        <time>2018-03-28T18:29:28Z</time>
      </trkpt>
      <trkpt lat="62.635055242581" lon="17.974541901861">
        <ele>81</ele>
        <time>2018-03-28T18:29:29Z</time>
      </trkpt>
      <trkpt lat="62.635029426329" lon="17.974428494754">
        <ele>80.6</ele>
        <time>2018-03-28T18:29:30Z</time>
      </trkpt>
      <trkpt lat="62.634992629788" lon="17.974331516171">
        <ele>80.4</ele>
        <time>2018-03-28T18:29:31Z</time>
      </trkpt>
      <trkpt lat="62.634949043908" lon="17.974244595868">
        <ele>80.4</ele>
        <time>2018-03-28T18:29:32Z</time>
      </trkpt>
      <trkpt lat="62.634908810788" lon="17.974154406624">
        <ele>80.2</ele>
        <time>2018-03-28T18:29:33Z</time>
      </trkpt>
      <trkpt lat="62.634883162174" lon="17.974064301199">
        <ele>80.2</ele>
        <time>2018-03-28T18:29:34Z</time>
      </trkpt>
      <trkpt lat="62.634863213252" lon="17.973992300678">
        <ele>80.2</ele>
        <time>2018-03-28T18:29:35Z</time>
      </trkpt>
      <trkpt lat="62.634851394773" lon="17.973949301531">
        <ele>80.4</ele>
        <time>2018-03-28T18:29:36Z</time>
      </trkpt>
      <trkpt lat="62.634829685652" lon="17.973867075092">
        <ele>80.4</ele>
        <time>2018-03-28T18:29:37Z</time>
      </trkpt>
      <trkpt lat="62.634819543553" lon="17.973795493666">
        <ele>80.8</ele>
        <time>2018-03-28T18:29:38Z</time>
      </trkpt>
      <trkpt lat="62.634799846088" lon="17.973691055192">
        <ele>81</ele>
        <time>2018-03-28T18:29:39Z</time>
      </trkpt>
      <trkpt lat="62.634789871627" lon="17.973591897315">
        <ele>80.8</ele>
        <time>2018-03-28T18:29:40Z</time>
      </trkpt>
      <trkpt lat="62.634787273238" lon="17.973464995349">
        <ele>80.6</ele>
        <time>2018-03-28T18:29:41Z</time>
      </trkpt>
      <trkpt lat="62.634786770324" lon="17.973340775591">
        <ele>80.4</ele>
        <time>2018-03-28T18:29:42Z</time>
      </trkpt>
      <trkpt lat="62.634817867173" lon="17.973256621315">
        <ele>80</ele>
        <time>2018-03-28T18:29:43Z</time>
      </trkpt>
      <trkpt lat="62.634836894086" lon="17.97316232494">
        <ele>79.8</ele>
        <time>2018-03-28T18:29:44Z</time>
      </trkpt>
      <trkpt lat="62.634852652058" lon="17.973051432403">
        <ele>80</ele>
        <time>2018-03-28T18:29:45Z</time>
      </trkpt>
      <trkpt lat="62.634870756962" lon="17.972970044154">
        <ele>80</ele>
        <time>2018-03-28T18:29:46Z</time>
      </trkpt>
      <trkpt lat="62.634896154119" lon="17.972890919018">
        <ele>80</ele>
        <time>2018-03-28T18:29:47Z</time>
      </trkpt>
      <trkpt lat="62.634920126353" lon="17.972791258227">
        <ele>79.8</ele>
        <time>2018-03-28T18:29:48Z</time>
      </trkpt>
      <trkpt lat="62.634934040307" lon="17.972680114233">
        <ele>79.6</ele>
        <time>2018-03-28T18:29:49Z</time>
      </trkpt>
      <trkpt lat="62.63496815464" lon="17.972615322146">
        <ele>79.4</ele>
        <time>2018-03-28T18:29:50Z</time>
      </trkpt>
      <trkpt lat="62.634998078023" lon="17.97254206434">
        <ele>79.2</ele>
        <time>2018-03-28T18:29:51Z</time>
      </trkpt>
      <trkpt lat="62.635029007234" lon="17.972456736598">
        <ele>79</ele>
        <time>2018-03-28T18:29:52Z</time>
      </trkpt>
      <trkpt lat="62.635047531233" lon="17.972369900114">
        <ele>79.2</ele>
        <time>2018-03-28T18:29:53Z</time>
      </trkpt>
      <trkpt lat="62.635071419648" lon="17.972265294002">
        <ele>79</ele>
        <time>2018-03-28T18:29:54Z</time>
      </trkpt>
      <trkpt lat="62.635092374398" lon="17.97215649694">
        <ele>78.8</ele>
        <time>2018-03-28T18:29:55Z</time>
      </trkpt>
      <trkpt lat="62.635113496786" lon="17.972032025725">
        <ele>78.6</ele>
        <time>2018-03-28T18:29:56Z</time>
      </trkpt>
      <trkpt lat="62.635137636658" lon="17.971902441551">
        <ele>78.4</ele>
        <time>2018-03-28T18:29:57Z</time>
      </trkpt>
      <trkpt lat="62.635149036042" lon="17.971777215965">
        <ele>78.2</ele>
        <time>2018-03-28T18:29:58Z</time>
      </trkpt>
      <trkpt lat="62.635162782358" lon="17.971625419756">
        <ele>77.8</ele>
        <time>2018-03-28T18:29:59Z</time>
      </trkpt>
      <trkpt lat="62.635175522846" lon="17.971486950768">
        <ele>77.2</ele>
        <time>2018-03-28T18:30:00Z</time>
      </trkpt>
      <trkpt lat="62.635190191171" lon="17.971355774033">
        <ele>76.4</ele>
        <time>2018-03-28T18:30:01Z</time>
      </trkpt>
      <trkpt lat="62.635204608039" lon="17.971238008338">
        <ele>75.6</ele>
        <time>2018-03-28T18:30:02Z</time>
      </trkpt>
      <trkpt lat="62.635215672147" lon="17.971094258753">
        <ele>74.4</ele>
        <time>2018-03-28T18:30:03Z</time>
      </trkpt>
      <trkpt lat="62.635227322988" lon="17.970952772281">
        <ele>73.6</ele>
        <time>2018-03-28T18:30:04Z</time>
      </trkpt>
      <trkpt lat="62.635241320761" lon="17.970814387112">
        <ele>73</ele>
        <time>2018-03-28T18:30:05Z</time>
      </trkpt>
      <trkpt lat="62.635255737629" lon="17.970672565364">
        <ele>72.6</ele>
        <time>2018-03-28T18:30:06Z</time>
      </trkpt>
      <trkpt lat="62.635268897212" lon="17.970539460792">
        <ele>72</ele>
        <time>2018-03-28T18:30:07Z</time>
      </trkpt>
      <trkpt lat="62.635283146442" lon="17.970414151387">
        <ele>71.6</ele>
        <time>2018-03-28T18:30:08Z</time>
      </trkpt>
      <trkpt lat="62.635301921898" lon="17.970275514761">
        <ele>71.2</ele>
        <time>2018-03-28T18:30:09Z</time>
      </trkpt>
      <trkpt lat="62.635325055942" lon="17.970174512866">
        <ele>70.8</ele>
        <time>2018-03-28T18:30:10Z</time>
      </trkpt>
      <trkpt lat="62.635352297117" lon="17.970029589815">
        <ele>70.4</ele>
        <time>2018-03-28T18:30:11Z</time>
      </trkpt>
      <trkpt lat="62.635384064518" lon="17.969893970673">
        <ele>70</ele>
        <time>2018-03-28T18:30:12Z</time>
      </trkpt>
      <trkpt lat="62.635412143883" lon="17.969771594933">
        <ele>69.6</ele>
        <time>2018-03-28T18:30:13Z</time>
      </trkpt>
      <trkpt lat="62.635436032298" lon="17.969640166741">
        <ele>69.4</ele>
        <time>2018-03-28T18:30:14Z</time>
      </trkpt>
      <trkpt lat="62.635465285129" lon="17.969516868992">
        <ele>69</ele>
        <time>2018-03-28T18:30:15Z</time>
      </trkpt>
      <trkpt lat="62.635494370322" lon="17.969394577071">
        <ele>68.4</ele>
        <time>2018-03-28T18:30:16Z</time>
      </trkpt>
      <trkpt lat="62.63552722737" lon="17.969268429476">
        <ele>68.2</ele>
        <time>2018-03-28T18:30:17Z</time>
      </trkpt>
      <trkpt lat="62.635562682807" lon="17.969139599673">
        <ele>67.8</ele>
        <time>2018-03-28T18:30:18Z</time>
      </trkpt>
      <trkpt lat="62.635601910099" lon="17.969001968875">
        <ele>67.4</ele>
        <time>2018-03-28T18:30:19Z</time>
      </trkpt>
      <trkpt lat="62.63564289759" lon="17.96888671775">
        <ele>66.8</ele>
        <time>2018-03-28T18:30:20Z</time>
      </trkpt>
      <trkpt lat="62.635684387995" lon="17.968770796073">
        <ele>66.4</ele>
        <time>2018-03-28T18:30:21Z</time>
      </trkpt>
      <trkpt lat="62.635726548952" lon="17.968663256296">
        <ele>65.6</ele>
        <time>2018-03-28T18:30:22Z</time>
      </trkpt>
      <trkpt lat="62.635779019646" lon="17.968575246346">
        <ele>64.6</ele>
        <time>2018-03-28T18:30:23Z</time>
      </trkpt>
      <trkpt lat="62.635840039878" lon="17.968512130639">
        <ele>64.4</ele>
        <time>2018-03-28T18:30:24Z</time>
      </trkpt>
      <trkpt lat="62.635900389558" lon="17.968481201428">
        <ele>64.2</ele>
        <time>2018-03-28T18:30:25Z</time>
      </trkpt>
      <trkpt lat="62.635953530804" lon="17.968472148976">
        <ele>64</ele>
        <time>2018-03-28T18:30:26Z</time>
      </trkpt>
      <trkpt lat="62.636000720901" lon="17.968466030189">
        <ele>64</ele>
        <time>2018-03-28T18:30:27Z</time>
      </trkpt>
      <trkpt lat="62.636035338148" lon="17.9684718137">
        <ele>64</ele>
        <time>2018-03-28T18:30:28Z</time>
      </trkpt>
    </trkseg>
  </trk>
</gpx>